GFSSE_sfc_thetae_000.txt.gz
Theta_e
341 346 348 350 350 350 349 349 349 348 348 347 347 346 345 344 344 345 346 346 346 345 344 344 344 344 346 346 345 344 345 346 345 344 346 346 342 340 343 345 343 339 343
344 346 347 349 350 351 349 349 348 348 348 347 347 345 345 344 342 342 343 344 344 343 342 342 343 342 342 341 341 341 342 343 343 342 341 340 339 339 339 343 342 338 342
344 346 347 348 350 350 350 350 349 349 348 346 346 345 344 342 341 341 341 342 341 340 339 338 338 338 338 338 339 340 340 341 341 341 342 333 332 338 337 340 342 342 342
344 345 345 348 349 350 349 350 349 349 348 347 345 344 343 341 340 340 339 340 338 337 337 337 337 337 336 337 337 337 338 339 339 339 333 334 336 337 332 337 340 340 342
344 345 346 346 348 349 349 349 348 349 348 347 345 343 341 340 339 338 337 335 334 334 334 333 333 333 334 334 335 336 336 336 337 335 329 332 330 330 333 337 338 341 343
345 344 344 345 347 348 348 348 347 346 346 344 343 342 340 339 337 336 334 333 332 331 331 330 330 329 330 331 332 333 333 334 335 326 328 333 331 335 337 337 339 340 341
343 347 346 343 346 347 348 347 345 344 344 343 343 341 338 337 335 334 333 331 330 329 329 328 328 327 328 329 330 331 332 332 327 323 326 330 329 334 335 337 335 339 340
341 345 347 346 346 345 345 344 342 342 342 342 342 340 337 336 335 334 332 330 329 328 327 327 327 327 327 327 328 330 330 330 327 322 327 329 332 336 334 335 338 339 338
343 343 342 342 343 341 339 339 339 340 340 340 340 339 338 336 336 334 332 330 329 328 327 326 327 327 327 327 328 328 328 329 324 319 325 329 333 338 337 335 337 339 340
336 337 333 335 336 335 336 337 337 337 337 337 338 336 335 335 335 335 333 332 331 330 328 329 329 328 327 327 327 327 327 328 320 318 322 327 338 339 338 338 340 340 340
331 330 330 330 331 331 332 335 337 337 336 335 335 335 332 330 329 329 331 330 333 331 331 331 331 330 327 327 327 327 328 320 319 319 323 329 335 335 335 335 336 337 338
324 327 328 328 328 329 333 332 331 333 331 331 331 330 330 329 328 329 330 332 332 331 332 332 331 330 328 319 318 319 312 314 315 314 322 329 333 333 331 331 334 335 335
324 327 327 329 328 326 327 327 327 329 329 329 330 329 328 329 325 327 324 325 325 328 325 327 325 323 321 318 317 313 308 308 308 311 315 328 330 330 330 328 328 332 334
323 324 325 326 327 322 325 326 326 326 328 328 328 326 323 322 318 318 320 321 320 320 321 321 321 320 318 319 317 313 308 306 307 309 311 325 328 329 328 327 326 329 331
323 325 324 324 323 322 321 322 322 324 327 327 326 325 321 320 317 317 316 315 314 313 314 313 316 315 312 313 313 310 308 306 307 308 308 320 326 327 327 325 324 325 326
325 324 326 327 326 324 323 322 322 321 320 323 323 321 321 318 317 316 314 315 314 314 314 312 311 311 311 312 312 311 309 306 305 306 308 309 322 325 326 325 324 324 324
326 326 328 328 326 324 322 323 321 315 316 316 315 315 315 316 316 315 312 311 313 314 313 313 312 312 311 312 311 312 312 310 306 306 307 308 311 321 322 324 326 326 324
325 326 328 327 328 322 320 318 316 316 314 312 314 313 314 314 313 311 310 309 311 311 310 310 310 310 308 308 308 309 310 310 309 308 307 307 308 310 316 320 323 324 325
326 326 326 326 324 322 318 317 314 313 312 311 310 309 312 313 313 309 308 308 310 308 307 307 306 307 305 304 305 304 306 307 308 311 308 307 306 309 308 313 319 320 322
320 320 320 322 322 317 309 311 309 310 311 309 307 309 310 308 308 307 307 307 307 305 304 303 302 303 303 302 305 303 303 305 306 306 307 309 309 308 308 306 306 313 318
311 311 312 313 314 309 308 307 309 306 306 306 306 308 308 309 308 306 305 306 305 303 302 301 301 301 301 301 299 301 300 301 302 302 304 304 305 304 304 305 307 306 309
308 309 310 308 308 308 309 309 308 305 305 306 309 309 307 307 306 305 303 302 302 301 300 299 300 299 299 300 297 297 294 298 297 300 301 301 300 302 303 304 305 306 305
304 305 305 305 305 307 308 305 305 306 306 305 304 303 305 303 303 302 301 301 300 300 298 298 299 298 297 298 298 296 292 290 293 297 297 295 296 296 298 302 303 303 306
303 303 304 304 304 305 305 303 304 303 301 302 302 300 299 300 301 301 300 300 299 299 297 298 300 297 297 295 296 299 295 294 292 290 292 295 295 295 295 297 297 300 307
303 303 303 304 304 304 304 303 302 300 299 299 299 297 297 298 299 299 299 298 298 298 297 296 297 296 296 295 294 294 293 292 295 290 287 289 292 293 294 294 294 298 301
303 302 301 302 303 303 302 302 302 299 297 297 295 294 295 296 297 297 298 296 295 295 294 294 293 293 292 292 292 292 292 290 289 288 289 288 288 290 291 292 293 295 297

GFSSE_sfc_thetae_003.txt.gz
Theta_e
342 345 347 349 350 350 349 348 347 347 347 346 345 343 343 343 343 343 345 345 345 343 343 343 342 342 342 342 342 342 343 344 344 343 343 343 341 339 342 343 340 338 342
344 346 347 349 349 349 349 348 347 347 347 345 344 344 343 342 341 342 342 342 341 339 338 339 339 340 339 340 340 340 341 342 341 342 341 340 340 341 339 342 341 338 341
343 345 347 348 349 349 349 349 348 348 346 345 344 343 342 341 340 340 340 339 337 336 336 336 336 336 335 336 337 339 339 340 340 341 341 332 332 340 339 341 340 341 341
343 344 346 348 349 349 348 348 348 347 346 345 344 343 341 340 339 338 338 338 336 335 334 334 334 334 334 335 336 337 337 337 338 339 332 332 333 340 337 335 340 339 341
342 344 347 347 348 349 349 348 348 348 347 345 344 342 340 339 337 335 334 334 333 332 332 332 331 331 331 332 332 333 333 334 335 331 327 329 331 334 338 336 338 340 342
341 343 344 344 347 348 348 348 347 346 345 343 343 340 339 337 335 334 333 332 331 331 330 329 328 328 328 329 330 330 330 331 332 324 325 330 333 335 340 340 340 338 340
342 344 345 343 345 347 347 347 346 344 342 342 342 339 338 336 334 332 331 330 329 328 328 327 327 327 327 327 328 328 329 330 325 320 322 327 329 337 339 338 338 338 338
343 346 345 346 345 344 345 344 343 342 342 342 341 339 337 335 334 332 330 328 328 327 327 327 328 327 327 327 327 329 328 329 325 318 320 328 333 338 340 336 338 339 339
342 343 345 345 345 342 340 339 339 340 340 340 339 338 337 336 335 333 330 328 328 327 328 328 329 328 328 327 328 328 328 329 320 317 320 326 335 338 339 338 338 338 338
340 340 338 336 336 334 335 337 337 338 338 338 338 337 335 334 335 334 333 331 330 329 330 330 330 330 329 328 328 328 327 325 317 316 319 323 335 337 335 336 337 338 339
332 330 330 331 331 330 331 334 336 337 336 336 336 335 331 328 326 327 331 331 332 331 331 331 331 330 329 327 327 327 324 313 314 315 316 327 334 336 335 334 335 336 336
325 327 327 327 327 329 334 330 329 331 330 329 330 329 328 327 326 329 329 332 333 332 332 332 332 331 330 320 318 321 311 308 310 310 313 326 331 332 333 331 333 331 334
325 327 326 326 326 326 327 327 326 327 327 327 328 327 327 328 326 325 324 323 323 327 324 326 324 323 321 319 318 316 313 308 306 309 313 322 328 331 331 329 329 328 330
323 325 326 325 325 324 325 325 325 326 326 327 328 328 324 322 320 319 319 319 316 316 315 319 319 319 318 318 317 316 314 308 306 307 310 321 326 329 328 327 327 326 330
323 324 325 326 324 323 323 323 323 324 327 328 327 325 322 320 315 315 314 313 313 313 312 311 312 312 310 310 312 311 310 308 307 306 308 317 322 327 327 327 327 326 327
323 323 322 325 323 321 319 321 322 322 325 326 325 322 319 317 315 315 313 312 312 312 312 312 311 310 310 310 310 311 311 309 307 306 306 307 317 322 327 327 327 327 327
322 323 323 323 324 320 320 320 319 320 319 320 316 315 315 316 314 312 310 308 309 310 309 308 308 308 307 307 306 308 309 309 309 308 306 306 308 315 321 325 328 329 330
319 322 326 329 325 324 322 320 317 315 312 313 313 312 313 312 311 309 306 306 307 308 307 305 305 303 303 303 303 303 304 306 307 310 307 306 306 308 311 316 320 323 327
320 325 326 328 328 325 320 316 314 311 309 308 308 309 308 308 308 305 305 305 306 305 303 303 302 302 301 301 301 301 300 302 303 308 306 306 305 305 305 309 312 314 318
314 318 320 319 320 315 312 310 309 310 309 309 307 306 306 306 307 305 304 304 304 302 300 300 299 300 300 300 302 300 298 299 300 302 302 304 302 302 302 303 304 305 311
310 311 313 313 312 312 310 309 308 306 306 306 306 306 305 304 304 302 301 301 301 299 298 299 299 298 297 298 296 298 296 296 298 300 301 301 301 301 301 302 302 301 302
307 308 309 309 307 308 308 307 309 307 306 308 307 304 303 302 301 301 300 299 299 298 297 297 297 296 297 297 295 294 291 294 296 298 297 298 296 299 299 300 299 297 296
302 303 304 304 305 306 309 308 304 303 303 301 300 300 299 301 300 299 299 298 298 297 296 296 296 295 294 296 296 294 290 288 290 294 295 294 293 294 295 297 298 296 296
300 301 301 302 302 303 303 302 302 301 300 299 298 296 296 299 298 298 298 297 296 295 294 296 296 294 294 292 294 296 293 291 287 286 290 293 293 293 293 293 294 295 296
301 300 301 302 303 302 302 302 301 299 296 297 295 294 295 296 297 297 296 296 295 294 293 292 292 291 291 290 290 290 290 290 290 288 285 287 290 291 293 292 293 293 295
300 299 299 300 301 302 301 300 299 296 295 293 293 293 293 295 296 296 297 295 294 293 292 291 290 290 289 289 289 291 290 290 288 288 287 286 286 289 290 292 291 292 293

GFSSE_sfc_thetae_006.txt.gz
Theta_e
339 343 347 350 350 349 347 346 346 346 346 346 345 344 343 343 343 343 343 345 344 341 341 340 340 340 340 340 340 341 342 342 342 342 344 342 341 341 342 343 342 337 342
342 344 346 349 349 349 348 347 346 347 347 345 344 343 342 341 341 342 341 340 339 337 337 337 337 337 337 338 339 339 340 340 341 340 341 341 340 341 341 342 340 339 342
343 346 346 347 348 349 348 347 348 347 345 344 344 343 341 340 340 339 338 338 337 336 335 335 335 335 335 335 336 337 337 337 337 338 338 331 332 339 341 341 341 341 341
344 344 345 346 347 348 347 347 347 346 345 344 344 342 340 339 337 336 336 337 335 334 333 332 332 331 331 332 332 332 332 332 333 334 329 330 331 337 341 341 339 339 339
342 343 345 346 347 347 347 347 347 346 346 345 343 341 339 337 335 334 334 333 332 332 331 330 330 329 328 329 330 329 329 330 331 326 324 327 333 335 340 340 339 339 340
340 341 341 344 346 347 347 347 347 346 344 343 342 340 338 336 335 333 332 330 330 329 328 328 328 327 327 328 328 328 328 329 327 319 320 324 330 337 340 340 341 338 339
340 341 342 342 345 347 347 347 346 344 342 342 341 339 337 335 333 332 330 329 328 328 328 329 328 327 327 327 327 328 328 329 323 317 318 324 329 339 340 339 339 337 338
341 343 343 344 344 344 345 344 343 342 341 341 340 338 336 334 333 330 329 328 328 328 328 329 329 328 328 328 328 329 328 329 322 317 318 322 331 338 337 336 340 336 336
342 343 342 341 342 341 340 340 339 340 340 340 339 337 337 335 334 331 330 330 329 328 330 330 331 331 330 329 329 329 327 326 315 317 319 321 332 336 337 335 337 338 337
338 339 338 340 342 337 336 337 337 337 338 338 337 336 334 334 334 333 332 330 331 331 331 332 331 331 330 330 329 328 327 318 311 313 315 318 331 334 335 334 334 334 334
337 337 338 337 337 332 331 334 337 338 337 336 335 334 331 326 325 325 330 332 332 331 331 332 332 331 330 328 327 327 324 310 308 310 311 319 327 329 331 334 335 333 333
331 332 332 330 328 328 334 330 328 330 329 329 329 328 327 325 325 328 329 331 332 332 332 332 332 332 329 321 319 321 315 312 308 307 309 320 325 327 329 331 334 332 332
330 328 327 326 326 326 328 326 325 326 325 326 326 325 325 327 324 324 322 321 320 325 321 322 322 321 320 319 318 317 316 314 309 307 309 319 323 327 328 328 331 332 331
323 325 326 324 324 324 323 324 323 324 324 324 326 326 323 322 320 318 317 314 313 313 312 314 315 316 316 314 313 313 314 313 310 308 308 317 320 324 327 328 329 331 331
321 322 323 323 323 323 322 322 321 323 325 325 325 324 321 318 314 314 312 312 312 312 311 311 310 310 310 311 310 310 310 310 309 308 307 314 318 319 323 325 326 327 331
321 322 323 323 322 320 320 321 321 322 323 324 323 320 319 316 314 313 311 310 309 310 309 309 309 308 308 307 306 308 307 307 307 308 307 307 314 315 318 320 323 325 327
320 321 321 322 321 321 321 321 322 321 322 321 318 314 316 315 312 309 306 305 306 307 306 305 305 304 303 303 303 304 304 305 305 308 307 307 307 311 313 315 317 319 320
318 321 325 327 326 323 321 320 319 317 316 315 314 314 311 308 307 305 304 304 305 304 303 303 303 300 301 300 299 300 300 302 303 306 305 305 304 304 305 310 310 312 314
321 324 324 325 324 322 319 317 315 312 309 308 308 307 306 307 306 304 303 303 302 301 300 300 299 299 299 299 300 300 298 299 301 306 304 302 302 302 302 304 306 306 307
318 320 320 319 317 316 315 314 313 309 308 309 308 307 305 305 306 306 303 301 300 299 298 298 298 298 298 298 300 298 297 297 300 301 300 301 300 300 300 300 299 299 302
312 312 314 314 314 312 309 308 307 306 308 310 304 303 303 303 301 300 299 299 298 297 296 297 296 296 296 297 295 295 295 296 298 299 299 298 298 300 299 299 299 298 297
309 311 311 310 308 309 307 306 309 309 306 302 301 299 300 299 299 300 298 297 297 296 296 295 295 295 295 296 294 293 290 293 295 296 296 296 294 296 296 297 297 298 297
303 303 304 304 304 305 307 306 302 302 302 299 298 296 297 298 298 297 297 297 295 295 295 294 294 294 292 293 293 292 288 286 289 293 293 293 292 293 294 295 296 297 297
298 299 300 302 302 302 302 301 300 299 297 297 295 294 295 297 297 297 296 295 294 294 294 294 294 292 292 289 292 293 291 290 287 286 291 291 291 292 292 293 294 295 296
300 299 299 301 301 301 300 300 299 295 296 295 293 294 294 295 296 296 295 294 294 293 292 291 290 289 290 288 288 288 289 289 289 287 283 286 289 290 292 292 292 293 295
299 298 298 299 298 299 298 297 296 295 294 293 293 294 294 294 294 295 295 293 292 291 291 290 289 288 288 287 288 288 287 286 285 285 283 283 284 287 287 291 291 292 293

GFSSE_sfc_thetae_009.txt.gz
Theta_e
342 346 347 347 348 348 347 346 346 346 347 347 347 345 344 343 343 343 343 344 342 339 338 338 338 339 339 340 340 340 340 340 340 340 341 342 341 341 342 341 341 335 342
345 347 345 347 347 348 347 346 346 347 347 346 345 344 343 342 342 341 339 340 340 336 336 336 336 337 337 336 337 337 336 337 337 338 338 337 337 340 341 341 343 338 342
345 348 347 345 347 347 347 348 348 347 346 345 344 342 341 340 339 338 337 339 337 335 334 333 333 332 332 332 331 331 331 331 333 334 335 336 336 339 341 343 342 342 340
346 347 346 345 346 347 347 347 347 347 345 345 343 341 340 338 337 336 336 337 335 333 331 330 329 329 329 329 329 329 329 331 330 328 330 333 336 339 341 341 340 339 339
346 347 345 345 346 347 347 347 347 346 346 345 343 340 339 337 335 334 334 335 331 330 329 329 328 327 328 328 329 329 329 330 328 328 328 334 338 337 340 339 339 339 339
345 345 343 342 345 347 347 347 346 346 345 344 342 340 338 336 334 332 332 331 329 329 330 329 329 328 328 329 330 329 328 329 327 326 329 332 337 340 339 340 339 338 339
343 345 345 341 343 346 347 347 346 344 343 343 342 340 337 335 333 330 330 329 329 330 330 330 329 328 328 329 329 329 328 329 325 326 328 330 334 338 337 337 338 338 337
342 345 346 343 343 344 345 345 343 342 341 341 340 338 336 335 332 330 330 329 329 329 330 331 330 329 329 329 329 329 328 327 321 322 324 326 333 336 337 336 338 338 337
344 343 345 346 345 341 340 340 339 339 340 339 338 338 336 334 333 332 331 331 330 331 332 333 332 332 331 331 330 329 328 322 320 320 319 321 330 333 334 335 336 335 334
343 343 344 345 345 344 344 338 338 338 338 338 337 336 333 333 332 332 331 331 332 332 332 333 333 333 332 331 329 328 327 321 321 320 320 320 327 329 330 332 334 332 331
338 340 341 339 340 343 343 341 338 338 337 336 336 334 332 333 333 332 332 332 333 332 333 333 333 332 332 330 328 328 326 326 324 322 320 319 324 328 329 331 334 334 331
335 336 338 338 338 339 339 339 338 337 336 336 335 335 335 335 335 333 333 330 330 330 332 331 330 330 330 330 329 327 326 327 325 324 322 320 323 326 328 331 333 333 333
334 334 335 336 337 339 337 337 335 335 334 334 335 334 335 335 336 337 335 333 333 328 327 326 327 328 328 327 325 324 324 323 322 321 320 319 321 325 326 327 331 333 333
333 335 337 338 336 334 334 333 332 331 331 332 334 335 335 334 334 331 329 326 325 325 324 323 323 324 323 321 320 320 319 317 315 316 318 317 319 322 325 327 328 328 331
329 332 333 332 332 331 330 330 329 329 330 332 334 334 334 331 330 327 325 323 322 321 320 320 320 320 319 318 318 316 314 313 314 314 317 315 317 320 323 324 325 325 326
328 330 330 329 329 328 328 329 329 329 327 327 328 324 325 326 326 324 319 317 317 318 318 317 318 316 315 314 313 313 311 311 313 314 315 315 312 313 314 316 318 320 322
326 328 328 327 328 328 327 328 326 324 322 320 321 322 319 319 319 316 316 316 315 316 315 315 314 314 312 310 309 309 309 310 310 313 313 312 311 309 309 310 311 312 313
326 328 329 329 328 328 328 325 323 318 319 317 317 317 315 315 316 316 314 314 313 312 312 312 311 310 309 308 307 307 308 308 310 313 310 310 309 308 308 306 307 307 308
328 328 329 330 328 326 321 316 314 315 313 312 315 313 313 311 312 313 311 310 310 309 309 308 308 307 306 305 303 305 305 304 312 310 308 308 307 307 306 305 304 304 305
326 327 326 326 325 322 318 316 316 315 314 315 312 308 310 310 310 310 309 309 309 307 307 307 306 305 305 303 300 301 302 305 311 310 307 306 305 305 305 304 303 303 303
323 323 322 321 321 320 316 315 315 315 314 309 309 309 309 309 308 309 307 307 307 306 306 306 305 302 301 304 300 299 300 306 307 306 306 305 302 302 303 302 301 301 302
321 320 320 319 317 316 317 317 318 317 312 307 307 307 306 307 306 306 307 307 307 306 306 305 303 300 302 303 297 296 294 297 301 303 302 302 301 301 300 300 300 300 301
315 315 315 315 315 314 315 314 312 311 310 308 305 305 305 306 306 306 307 307 306 306 304 303 302 301 298 300 301 296 291 290 294 298 299 299 299 298 298 298 297 298 299
307 309 310 310 310 309 310 310 310 309 307 306 304 305 306 306 306 304 305 305 305 304 303 302 300 299 298 294 296 298 297 296 289 288 294 295 296 294 295 296 295 297 297
307 308 308 308 307 307 308 309 307 306 305 304 305 304 304 305 304 303 303 303 303 302 301 300 298 297 296 294 293 293 293 292 292 288 284 287 290 292 293 292 294 294 295
306 307 306 305 304 305 306 306 306 305 303 303 303 303 303 304 305 304 302 302 301 300 299 298 297 295 295 294 294 292 289 287 286 287 285 286 286 288 290 291 292 292 293

GFSSE_sfc_thetae_012.txt.gz
Theta_e
344 346 347 348 349 348 347 347 347 347 348 348 347 345 344 344 343 342 342 342 341 338 338 338 338 338 338 338 337 337 337 337 338 338 338 338 339 342 341 340 342 338 341
347 346 345 347 348 348 347 347 347 347 348 346 345 344 343 342 340 339 340 340 339 336 336 335 333 333 332 332 331 331 331 333 333 335 336 337 341 341 341 341 343 338 340
346 346 345 346 347 347 347 348 348 348 346 345 344 342 341 339 338 338 338 339 336 334 333 331 330 330 329 329 330 330 331 331 330 330 334 334 338 341 341 341 342 340 339
346 346 346 345 346 347 347 348 348 347 346 345 342 340 339 338 337 337 335 337 334 331 329 328 328 328 328 329 330 330 330 330 329 332 327 331 334 340 338 338 338 338 338
346 346 347 344 344 346 346 346 347 347 346 344 342 339 338 336 335 334 334 334 330 329 329 328 328 328 328 330 330 329 329 330 330 329 328 333 334 339 339 337 338 338 337
345 346 343 342 343 344 345 346 347 346 345 344 343 339 337 335 333 332 331 330 330 331 330 330 328 328 329 330 330 327 328 329 329 326 328 331 334 338 338 337 336 336 336
345 346 344 340 342 344 346 347 346 345 344 343 342 339 336 333 331 330 330 330 331 331 331 330 329 329 329 330 330 328 327 329 322 321 322 325 330 335 337 336 336 335 335
343 345 345 342 342 342 345 345 343 342 342 342 340 337 335 333 331 330 330 330 330 331 331 330 330 330 331 331 330 329 327 325 323 322 321 322 331 333 334 335 335 334 333
345 346 345 345 343 340 341 341 340 340 340 340 338 337 334 333 332 331 332 332 331 331 331 332 331 332 332 331 330 329 328 321 325 323 321 321 328 330 330 331 334 332 331
344 344 344 345 345 345 345 339 339 338 338 338 336 335 334 333 331 331 330 332 332 332 332 332 332 333 333 332 330 329 329 328 325 324 323 323 326 328 330 331 331 331 330
341 342 343 343 343 343 343 342 338 338 337 337 336 334 331 336 335 332 330 331 332 333 333 333 333 333 332 332 330 329 328 324 325 323 324 324 325 327 328 329 332 333 330
336 338 340 341 340 342 338 339 338 334 335 336 337 337 338 338 337 334 333 331 330 330 331 328 328 329 329 327 326 327 323 325 323 323 324 322 324 327 328 327 331 333 334
336 336 338 339 339 341 337 335 333 333 335 337 338 338 338 338 338 336 334 333 334 328 330 328 328 326 327 326 324 324 323 322 321 321 320 320 323 326 328 328 328 329 330
334 336 336 337 339 339 335 332 332 333 335 337 338 339 341 337 336 333 331 331 333 330 327 326 325 325 325 323 323 322 321 319 318 318 320 319 322 324 326 327 327 327 326
330 334 337 338 337 336 334 333 333 335 336 337 338 337 335 333 332 332 331 329 327 325 324 323 322 321 320 319 320 318 317 317 317 317 318 315 316 318 320 321 320 320 320
329 334 336 335 335 333 332 334 334 332 330 330 332 329 327 326 327 330 326 324 323 323 322 320 319 317 317 317 316 316 315 315 314 316 315 317 312 312 313 314 315 315 316
330 334 335 335 334 334 332 329 328 325 324 326 330 329 324 323 324 322 321 321 321 319 318 318 317 317 315 314 314 314 314 314 313 314 315 314 313 310 309 309 310 311 311
329 333 335 334 334 333 328 324 325 324 325 322 321 320 319 318 319 319 319 320 317 317 316 315 314 313 313 312 311 311 311 312 311 314 314 313 312 311 311 307 307 307 307
330 334 334 334 334 332 327 322 320 324 319 319 319 318 317 317 317 319 317 316 316 315 314 313 312 311 309 309 307 307 309 309 309 310 312 311 312 311 310 310 308 307 305
332 334 335 331 331 332 330 324 320 319 320 320 319 317 316 316 315 317 315 314 313 312 311 310 310 310 308 308 306 306 308 307 308 310 310 309 309 308 307 307 306 305 306
332 332 333 331 331 330 327 323 319 319 320 318 316 315 314 314 313 313 312 312 312 310 310 310 308 307 306 307 304 303 303 305 307 307 307 306 306 306 305 304 303 303 302
331 331 331 330 330 328 325 323 323 322 320 315 315 313 312 311 311 310 311 310 310 308 309 309 307 304 304 305 302 300 296 299 302 305 305 304 304 304 302 301 301 301 301
327 327 325 324 323 322 322 321 320 319 316 314 313 313 311 311 311 310 310 310 309 308 306 307 306 304 301 303 302 299 295 293 296 299 301 300 302 300 300 299 299 298 299
320 322 321 320 318 317 316 317 316 315 314 312 313 312 311 311 311 310 309 309 308 307 306 306 304 303 301 298 299 299 299 297 292 290 297 298 297 296 297 296 297 296 297
316 316 316 315 314 315 316 316 314 312 311 311 311 309 310 311 311 309 308 308 307 306 306 305 303 301 300 299 297 296 296 295 294 290 287 291 293 294 295 294 295 296 296
314 315 315 313 312 313 313 312 312 309 308 308 307 305 304 303 303 303 303 306 307 306 305 303 302 301 299 297 296 294 293 291 290 289 288 289 289 291 293 294 294 294 295

GFSSE_sfc_thetae_015.txt.gz
Theta_e
342 344 348 349 349 348 347 347 347 347 348 348 347 345 344 343 341 342 342 342 341 338 337 336 335 334 333 332 332 332 333 333 334 336 337 338 341 342 342 341 343 336 340
344 344 346 348 348 347 347 347 348 348 348 346 345 343 342 340 340 340 340 340 338 335 334 333 332 330 330 330 331 331 331 330 330 333 336 340 342 342 341 340 342 338 339
345 344 344 346 347 347 347 348 349 348 346 345 343 341 339 338 338 338 338 338 335 332 331 330 329 329 331 331 331 331 331 330 331 333 334 334 339 340 339 341 340 339 339
345 342 341 345 346 347 347 347 347 347 345 343 341 339 338 337 336 336 335 336 333 331 329 328 328 330 330 329 329 329 330 331 333 335 329 328 336 339 339 338 338 337 337
345 344 343 344 344 345 345 345 347 346 346 343 342 338 337 335 334 334 333 332 332 332 331 330 329 330 330 331 329 328 329 331 333 329 328 330 333 338 339 336 337 338 336
344 346 341 342 344 344 344 345 345 346 344 343 342 337 335 333 331 331 331 332 332 331 331 330 330 330 331 332 331 328 329 331 329 321 323 330 330 337 338 336 335 334 336
341 343 342 340 341 342 343 345 345 344 343 342 339 337 334 331 330 330 331 332 332 331 331 331 331 331 331 331 331 330 329 329 326 322 322 325 330 334 336 336 335 333 332
342 343 342 340 341 339 343 343 343 342 342 341 338 336 332 331 331 331 331 331 331 331 331 331 331 332 332 332 331 330 330 329 326 323 322 323 332 332 331 333 334 332 331
339 342 343 342 340 340 340 340 340 340 340 339 337 335 332 332 332 332 332 332 331 331 332 332 332 333 333 332 331 331 331 331 327 324 322 322 328 330 331 330 331 331 330
340 343 344 343 343 344 343 339 338 338 338 338 335 333 333 333 331 331 331 332 332 332 333 334 334 334 333 334 332 330 329 330 324 323 324 326 328 329 329 330 330 330 330
341 342 342 342 341 342 341 340 338 338 337 336 335 333 330 333 332 331 331 332 332 332 332 332 331 331 332 332 333 329 329 322 323 321 324 326 328 329 330 328 329 331 331
337 338 341 341 340 339 334 337 335 331 332 333 335 334 333 335 335 329 331 331 331 331 332 331 330 330 329 326 325 331 322 322 320 320 322 325 327 329 330 329 330 330 331
337 337 339 342 342 336 334 332 330 331 333 336 337 336 336 335 336 334 331 332 333 328 329 328 327 326 327 326 324 324 322 321 318 318 321 325 325 327 328 328 328 328 327
333 337 337 338 340 336 332 330 330 332 334 334 336 337 337 334 335 333 330 331 332 329 328 327 326 327 325 323 322 321 320 318 317 317 321 322 322 322 324 324 323 322 322
329 333 335 337 336 334 332 332 335 335 335 336 336 334 334 334 333 331 331 330 328 327 326 325 324 322 320 320 320 318 318 317 317 316 317 319 318 318 318 319 319 319 319
329 332 334 333 334 333 333 336 333 331 330 329 330 331 333 333 331 327 326 326 324 325 322 321 319 318 317 318 317 317 316 316 316 316 315 317 316 315 314 314 314 315 316
330 334 334 335 334 333 335 331 328 325 327 326 327 331 330 330 327 325 323 322 320 322 321 320 319 317 315 315 315 314 314 314 314 314 313 316 314 313 312 311 310 310 311
331 335 335 333 334 335 333 329 326 327 327 324 322 322 321 321 322 321 319 320 319 317 317 316 315 313 312 312 311 311 311 310 311 312 311 314 313 313 309 309 308 308 307
330 335 335 335 335 333 332 330 331 329 327 325 323 322 321 319 319 320 318 318 318 316 315 314 313 312 310 310 309 309 310 309 310 309 309 311 313 311 309 312 311 310 305
331 335 336 335 334 331 330 331 330 328 325 324 323 320 319 318 317 318 317 316 315 314 313 313 312 312 310 308 305 306 308 307 307 308 308 310 310 309 308 307 306 305 308
334 334 332 331 331 331 330 328 324 321 322 322 320 318 317 316 315 315 315 315 314 312 312 312 310 308 305 306 303 304 304 306 308 306 307 308 307 307 307 305 304 302 302
332 333 330 331 331 331 328 325 324 323 322 319 317 317 315 315 314 313 314 313 312 310 310 309 308 305 304 304 301 300 296 298 302 303 304 304 306 304 303 302 301 300 300
330 331 331 330 329 327 325 324 324 322 318 316 315 314 314 314 313 313 312 312 311 309 306 307 306 305 301 302 303 299 293 292 295 299 300 301 304 301 300 299 299 298 298
328 329 327 325 323 323 322 319 318 318 314 314 314 314 314 313 313 311 310 309 309 307 306 305 305 304 302 299 300 300 300 298 292 291 295 296 298 297 299 298 297 297 297
323 322 322 320 317 318 319 319 317 315 314 313 313 310 311 309 307 304 304 304 305 306 306 306 305 303 302 300 298 297 296 295 295 291 288 290 294 295 295 296 296 295 296
319 319 318 316 316 317 317 316 314 312 309 308 305 302 302 301 302 302 302 303 303 304 305 305 304 303 301 300 298 296 294 291 290 290 288 289 290 292 294 295 296 296 297

GFSSE_sfc_thetae_018.txt.gz
Theta_e
337 343 347 348 349 348 347 347 347 347 348 348 347 346 344 342 343 343 342 341 340 336 335 334 332 331 331 331 332 332 331 331 332 335 338 341 342 342 340 341 342 335 342
340 342 346 347 347 347 347 347 348 348 348 347 345 344 343 342 342 342 341 340 338 334 332 331 331 332 332 332 332 332 332 333 335 335 336 340 341 341 340 342 342 338 342
338 341 343 346 347 347 347 349 348 348 347 345 342 342 340 338 338 339 339 338 337 332 330 329 331 330 330 329 330 330 331 335 336 337 336 334 335 340 339 342 340 340 341
339 339 342 346 346 347 347 348 347 347 345 343 341 339 339 337 335 336 337 336 336 332 331 331 331 331 330 330 330 330 332 334 334 335 326 331 334 340 337 337 338 337 339
338 340 343 344 343 345 346 345 345 345 343 342 340 337 335 334 333 333 337 337 335 332 332 332 332 332 332 334 334 333 333 333 333 330 324 326 328 338 337 336 333 335 337
342 341 341 341 341 343 344 346 345 344 342 341 340 338 334 332 332 334 337 336 334 333 332 332 332 332 334 334 334 333 333 333 331 318 321 329 330 337 337 337 336 335 336
338 339 340 338 341 343 345 345 344 343 341 340 339 336 335 331 332 334 336 335 333 332 332 332 332 334 334 334 334 333 332 332 325 316 320 325 328 334 332 335 334 333 334
338 340 338 338 341 342 343 342 341 340 340 339 338 335 335 334 335 335 335 335 335 335 335 334 334 334 335 334 333 332 331 331 324 321 320 324 334 333 331 332 335 334 334
338 338 337 339 341 340 338 339 338 338 338 338 336 335 335 335 335 335 336 335 335 335 335 336 335 335 335 335 333 331 330 330 323 320 323 323 333 332 330 331 333 334 334
334 337 336 337 341 339 337 337 336 336 336 336 334 333 333 333 333 334 334 335 335 334 334 334 335 334 334 334 333 331 330 329 317 319 321 324 332 331 331 329 330 334 334
327 335 338 339 339 339 337 336 336 337 335 334 332 332 329 330 330 331 332 333 333 332 332 333 331 331 331 331 332 332 332 317 316 317 319 329 331 331 331 331 331 331 332
326 334 336 338 338 338 334 334 331 330 329 332 331 329 332 332 329 327 332 332 333 332 331 332 331 331 330 322 322 328 318 318 316 316 319 328 329 330 330 330 330 329 329
333 335 336 338 337 333 331 332 328 331 333 334 334 334 334 334 334 331 332 329 330 331 329 327 326 325 322 321 319 319 318 315 313 314 321 326 326 326 326 325 325 324 323
333 334 336 336 338 332 331 330 331 332 334 335 336 334 335 334 333 331 330 328 327 325 325 324 322 322 318 318 318 317 316 314 312 312 318 323 324 321 321 321 321 321 320
331 333 334 337 334 333 331 334 333 331 330 332 331 332 332 331 329 327 325 325 326 322 320 318 317 316 315 315 317 315 313 312 313 311 313 320 321 318 318 318 318 318 318
330 330 332 332 332 333 334 332 329 328 327 327 328 330 331 330 328 324 324 321 320 320 317 316 315 314 313 313 312 314 313 311 311 312 309 313 318 317 315 315 315 314 314
329 331 332 332 332 333 333 330 326 326 326 325 326 327 327 327 324 322 319 318 316 317 316 315 313 312 310 310 308 309 309 308 307 309 309 307 313 315 313 311 310 310 310
329 330 331 331 332 334 330 328 328 327 326 324 322 322 321 321 320 318 316 318 316 315 314 312 310 309 308 307 306 306 306 306 305 306 307 306 309 309 312 312 310 309 307
331 332 331 333 333 331 329 328 329 328 326 323 323 321 320 318 318 317 315 315 313 313 312 311 309 308 306 305 304 302 303 302 304 305 303 304 307 306 306 311 312 310 307
332 334 332 333 332 330 329 329 329 328 325 323 322 318 318 316 316 315 315 312 312 311 309 309 308 307 305 302 303 301 301 302 301 302 303 305 306 307 305 303 302 301 307
333 333 332 329 329 329 327 326 325 321 321 320 317 317 316 314 314 312 312 312 311 308 308 307 304 302 301 302 298 298 298 299 299 298 299 299 300 302 304 303 300 298 297
332 333 331 329 328 330 330 326 322 321 321 317 316 315 314 314 312 311 311 309 309 307 306 305 302 301 300 300 296 295 291 293 296 297 296 297 296 300 299 297 297 297 295
328 330 328 329 330 331 325 323 322 319 316 313 313 312 312 312 311 310 310 308 307 305 303 302 301 300 297 297 298 293 290 287 291 294 294 295 294 294 295 296 295 295 294
327 330 330 330 327 323 323 321 319 314 311 313 312 312 311 312 309 305 304 303 303 304 302 302 302 299 298 294 295 298 294 292 286 286 290 290 291 292 292 293 292 293 293
328 327 325 322 321 320 319 319 316 313 312 311 309 307 305 303 303 302 301 301 300 300 301 302 301 299 297 296 294 293 291 290 290 285 283 285 289 290 291 292 292 291 292
322 321 320 316 316 317 316 314 312 308 306 302 301 299 300 300 300 301 301 300 301 300 300 301 300 299 297 296 295 293 290 288 286 285 283 284 284 287 289 290 290 290 291

GFSSE_sfc_thetae_021.txt.gz
Theta_e
339 346 348 350 349 348 347 347 347 347 348 347 345 344 343 342 342 342 341 339 338 336 333 334 333 333 332 332 332 333 333 334 335 337 341 341 341 341 340 340 341 338 341
341 345 346 348 348 348 348 348 347 347 346 345 344 343 343 342 340 340 339 338 337 333 333 333 331 330 330 330 331 331 333 336 337 336 338 340 340 340 340 339 341 340 342
341 344 345 345 347 347 349 348 347 347 345 343 342 342 340 338 336 338 338 337 336 333 333 332 332 331 331 331 331 332 334 335 336 336 335 334 333 338 338 340 340 338 338
340 342 343 345 346 347 347 347 345 344 343 342 341 339 339 336 335 336 338 337 336 334 333 334 333 333 332 332 334 335 336 335 337 335 328 329 333 338 337 334 334 336 337
338 341 344 344 344 346 346 345 344 343 341 340 339 338 336 334 335 336 338 337 336 334 334 334 333 333 332 334 335 335 335 334 332 326 323 327 329 335 337 335 332 332 334
338 341 340 340 341 344 345 344 343 341 340 338 337 337 334 335 335 336 337 336 334 334 334 333 333 333 334 334 335 335 334 334 327 316 323 330 328 334 334 334 332 332 334
338 338 338 339 340 342 345 343 342 340 339 337 336 336 336 335 334 335 337 336 333 333 333 333 333 335 334 334 335 334 332 331 318 316 321 324 327 333 332 332 332 331 331
335 336 338 340 339 341 342 341 339 338 338 336 336 336 336 336 336 337 337 336 335 335 335 335 335 334 334 334 334 333 331 331 320 317 321 323 334 333 332 332 335 335 333
329 331 336 337 339 339 337 337 336 337 337 335 335 335 335 335 335 337 337 336 336 335 334 335 335 333 333 333 332 332 331 331 316 318 323 323 334 332 331 331 332 335 335
328 328 330 337 336 336 334 335 335 334 333 333 333 333 332 333 335 335 335 335 334 333 333 334 332 332 332 331 331 331 330 326 313 316 320 325 334 332 333 332 332 332 333
327 326 328 335 334 333 332 334 334 335 333 332 332 331 329 326 327 330 331 333 332 331 331 332 331 330 330 328 331 330 329 313 313 314 319 330 333 332 332 331 330 330 329
322 326 331 333 335 333 331 330 329 331 329 326 325 326 324 326 325 329 330 331 331 331 330 330 330 331 329 318 317 324 314 312 311 315 319 329 329 329 329 328 326 325 324
326 330 332 333 335 331 328 327 326 325 327 329 328 328 328 329 327 328 327 327 327 328 323 325 322 319 314 314 315 313 313 310 309 314 320 325 326 324 325 324 323 322 321
328 331 333 335 333 328 330 325 325 329 330 331 329 329 329 327 324 323 322 321 320 319 316 316 315 313 312 313 313 312 311 309 310 312 316 322 323 320 321 320 320 319 318
330 331 331 332 326 326 327 330 329 327 327 326 326 327 326 324 322 321 320 319 316 316 312 311 312 311 310 309 309 309 309 308 308 308 311 320 321 320 319 319 318 316 315
329 328 329 329 325 329 327 325 324 322 322 323 324 325 326 324 320 318 316 313 313 312 312 310 308 308 306 306 306 307 306 306 304 304 308 311 319 319 317 315 314 313 312
328 329 327 324 327 328 324 323 322 322 321 320 320 322 322 320 317 316 312 312 311 310 308 307 307 306 306 307 305 305 304 304 303 302 303 306 313 316 315 312 310 310 309
326 325 326 328 328 325 323 322 321 323 319 317 316 315 316 317 315 312 312 309 308 309 308 307 306 305 304 303 300 300 302 301 302 301 301 301 307 308 313 313 310 309 308
326 326 324 325 326 324 323 322 323 322 318 316 316 314 313 313 313 311 310 308 308 307 307 306 304 304 301 300 299 297 297 298 298 301 299 300 303 304 304 313 312 307 305
326 326 326 327 325 324 323 322 323 320 317 317 315 312 311 310 310 310 309 308 307 305 304 303 301 300 300 298 301 298 296 297 297 296 296 298 299 301 303 299 296 299 305
326 326 328 325 324 324 320 320 319 315 315 310 309 310 309 309 309 307 306 306 305 303 302 302 299 298 297 297 294 294 294 295 295 294 294 295 295 297 299 299 296 294 296
326 326 326 326 325 324 323 324 319 314 312 309 309 308 308 308 307 307 305 304 303 302 300 299 298 296 297 295 292 291 288 290 292 294 292 294 291 293 296 297 295 295 294
325 325 325 324 325 324 324 316 313 310 308 307 306 305 307 308 307 304 301 299 299 300 298 297 297 296 293 294 294 291 287 284 287 290 290 290 289 289 289 291 292 292 292
323 323 325 325 325 326 320 314 310 307 305 306 306 306 302 300 299 299 299 298 296 296 295 297 299 296 294 291 293 295 290 289 283 282 286 287 288 289 288 289 289 290 291
325 324 323 323 319 315 314 313 309 306 304 302 299 297 296 297 298 297 298 296 295 296 296 296 296 295 294 293 291 290 288 287 286 283 280 283 286 287 288 288 288 289 290
320 318 315 311 310 309 308 306 304 302 297 296 294 294 294 295 296 296 296 295 295 296 296 296 295 294 294 293 292 290 288 286 285 283 281 281 282 284 286 287 287 287 288

GFSSE_sfc_thetae_024.txt.gz
Theta_e
342 347 348 349 348 348 347 347 347 346 345 345 344 343 342 340 340 340 339 338 337 335 333 332 331 331 331 332 333 333 333 334 337 340 342 341 341 340 339 340 341 337 341
343 346 347 347 348 348 348 347 346 345 344 344 342 342 341 339 339 339 338 337 338 334 333 333 333 333 333 333 333 334 334 334 336 339 341 339 338 338 338 338 341 336 339
342 345 345 345 347 347 348 347 345 344 343 341 340 340 339 337 337 338 337 337 337 335 334 334 333 333 333 333 335 337 338 337 336 337 339 330 330 337 335 334 337 337 338
343 343 343 345 346 348 347 345 343 342 341 341 339 337 337 336 336 338 338 337 338 335 334 333 333 333 333 334 336 336 337 336 336 336 327 329 331 336 335 333 332 332 336
340 341 342 345 345 346 345 343 342 342 341 340 338 336 336 336 336 336 337 337 337 334 333 333 333 333 334 335 336 334 335 333 331 327 325 327 327 332 333 331 330 331 331
337 340 341 343 344 344 344 342 341 340 338 338 337 338 337 336 336 337 337 338 335 334 333 333 333 333 334 335 335 334 332 330 326 320 322 328 326 334 332 331 331 330 331
337 338 339 339 341 343 343 342 340 339 337 336 337 338 338 337 336 337 337 336 335 333 333 332 333 335 334 335 335 333 332 328 318 319 322 324 327 333 332 332 332 332 331
335 337 338 340 339 339 340 340 338 337 336 336 337 337 337 337 337 337 337 337 336 335 335 334 333 333 333 334 334 333 330 326 319 317 320 322 334 333 332 332 333 334 333
333 334 333 334 336 336 336 337 336 335 335 335 336 335 336 335 336 336 337 336 335 334 333 332 332 332 332 332 332 331 327 326 316 318 324 323 335 333 333 333 332 333 333
327 328 329 333 334 334 333 335 335 333 333 334 334 334 333 334 335 335 334 335 334 332 332 331 331 330 330 331 331 330 323 323 313 317 320 324 334 331 332 332 331 330 330
324 325 331 333 333 332 331 332 333 333 332 332 332 332 329 326 327 329 330 332 331 330 331 330 330 330 330 326 330 328 320 311 313 315 319 330 330 329 330 329 327 326 325
321 323 327 332 332 330 330 328 326 327 326 325 324 325 323 322 323 328 330 330 331 329 330 330 330 325 320 314 314 318 311 309 313 315 318 328 327 326 326 325 324 323 322
322 323 326 331 331 328 326 325 325 324 324 324 323 323 325 326 325 325 324 323 323 323 318 318 314 312 311 311 311 311 309 308 307 312 319 325 326 324 323 323 322 321 319
323 324 327 331 331 326 325 323 322 324 328 328 328 328 326 324 320 319 319 318 316 313 311 312 310 310 308 308 308 307 306 306 306 309 312 323 324 320 321 321 320 319 317
325 328 330 332 331 326 325 324 326 328 326 325 325 325 323 321 318 318 315 313 313 311 309 309 308 307 306 305 305 305 304 304 302 305 309 318 321 321 319 319 318 316 315
328 328 330 331 324 325 326 323 321 321 322 323 323 323 323 319 316 314 312 311 310 310 308 306 305 304 304 304 303 302 303 301 301 300 303 306 318 320 319 316 314 313 312
328 330 328 323 326 325 321 320 320 320 320 319 320 321 320 317 315 311 311 309 307 307 306 305 305 304 303 303 301 300 302 300 301 299 299 303 312 317 317 313 311 310 309
327 327 326 328 324 322 320 319 320 318 316 315 315 316 316 316 313 311 307 306 306 306 305 304 303 302 301 299 297 296 297 299 298 298 297 301 305 307 312 313 311 309 308
326 326 322 326 322 321 320 320 319 317 315 314 314 312 312 311 312 309 306 305 305 304 303 303 301 300 299 297 298 296 295 296 296 298 296 297 301 303 302 308 309 307 305
325 326 323 325 322 321 320 320 318 316 315 314 312 310 309 308 310 307 305 304 304 302 301 300 297 297 297 296 299 296 294 294 294 293 293 295 295 296 296 296 296 300 305
323 323 324 322 322 321 320 319 316 313 313 311 307 308 307 307 306 305 304 303 302 301 299 299 297 295 295 295 292 292 292 292 292 292 292 291 292 293 293 294 294 292 293
323 323 324 323 322 321 320 319 317 313 309 307 306 306 306 306 305 305 303 302 301 299 298 297 296 294 294 293 291 289 286 289 290 291 290 290 288 290 291 292 292 292 292
322 323 323 323 322 321 320 318 311 308 306 304 303 303 304 306 302 300 298 297 296 296 295 295 295 294 292 292 291 290 285 283 285 288 287 287 287 287 287 289 290 290 289
322 322 323 324 323 322 319 315 313 309 306 303 303 303 300 298 298 298 297 295 295 294 294 294 297 294 292 290 291 293 289 288 282 281 285 285 287 287 286 287 287 289 289
322 323 323 322 322 322 315 313 310 304 303 303 300 295 295 295 296 296 295 294 294 295 294 295 294 293 293 291 290 289 287 286 284 282 279 282 284 286 286 286 286 286 288
322 322 319 318 313 314 312 308 306 301 298 297 294 293 294 295 294 294 295 293 293 294 295 294 293 293 292 291 291 289 287 285 284 282 280 280 281 283 285 285 285 286 287

GFSSE_sfc_thetae_027.txt.gz
Theta_e
340 346 347 348 347 348 347 345 344 344 343 343 342 340 340 338 338 339 339 338 337 335 333 334 334 334 334 335 335 334 334 338 341 342 341 338 338 338 339 339 338 335 340
343 346 345 346 347 348 347 345 344 343 343 341 341 340 340 338 338 339 339 338 338 335 335 334 334 334 335 336 337 336 334 336 341 340 337 337 336 335 335 335 338 335 339
343 345 344 345 347 347 347 345 344 343 340 338 338 339 338 338 337 339 338 338 338 336 335 334 334 334 335 336 340 340 337 337 339 339 336 328 327 334 333 331 332 335 338
344 343 342 345 346 346 345 344 342 341 339 338 337 337 337 337 336 339 339 338 338 337 334 335 334 334 334 335 336 337 337 337 336 333 328 328 326 331 331 330 330 331 333
342 341 342 344 344 345 343 342 341 341 340 339 338 336 336 337 336 337 339 338 338 335 335 335 334 334 335 334 334 334 334 334 333 329 324 324 324 329 331 331 330 330 330
340 341 342 343 343 343 343 342 341 340 338 337 338 339 338 337 336 337 338 338 336 334 334 334 334 335 335 334 334 333 332 329 325 320 321 326 325 332 332 332 332 331 331
338 339 341 341 342 342 342 341 340 339 337 338 339 339 339 338 337 338 338 337 337 334 333 332 334 335 335 333 332 332 330 328 319 319 320 323 327 333 333 333 333 334 333
335 337 339 341 340 340 340 339 338 337 337 338 338 338 339 338 337 337 337 337 336 336 335 334 333 333 334 334 330 330 328 325 319 318 321 322 334 332 333 333 333 332 332
332 332 335 335 338 338 336 336 335 336 336 337 337 337 337 336 336 337 336 336 335 334 333 332 332 332 334 333 329 327 326 325 316 320 324 323 334 331 332 332 331 330 330
328 328 327 329 330 332 332 334 334 334 334 335 336 335 334 334 335 335 335 335 333 332 332 332 332 332 330 332 327 325 325 321 314 317 320 325 332 330 331 330 329 328 327
324 324 327 328 331 331 330 332 333 334 333 333 333 332 329 327 325 325 331 331 330 329 330 332 330 328 324 327 327 323 318 312 312 315 318 329 329 329 327 326 325 325 324
322 323 327 328 329 329 329 328 325 326 326 325 325 324 322 322 325 327 329 329 329 330 328 327 324 322 316 311 312 314 307 309 311 313 316 328 326 325 325 324 323 322 321
321 320 325 330 330 326 325 324 323 321 321 321 322 321 321 322 324 323 322 323 317 320 313 313 311 309 308 307 307 306 305 306 305 310 314 324 325 323 322 322 322 320 319
320 320 323 327 328 326 323 322 321 323 325 325 323 325 322 320 318 317 316 314 312 310 309 309 308 306 305 306 304 303 304 302 301 306 310 320 322 319 320 321 320 318 317
319 321 323 327 328 325 322 321 323 326 325 324 324 324 321 318 316 315 312 311 310 308 307 306 305 304 304 303 302 302 302 300 300 301 302 314 319 320 317 320 318 316 315
322 322 325 328 328 323 322 322 323 322 321 322 322 322 321 317 313 311 309 309 308 306 305 304 303 303 302 301 300 301 299 299 298 298 299 301 316 320 319 317 315 313 312
324 327 327 327 324 323 321 321 321 320 320 319 320 319 318 315 312 310 307 306 306 305 304 303 303 302 301 300 298 298 298 298 297 296 297 300 308 315 317 313 312 310 310
327 327 327 328 323 320 319 319 319 317 317 316 317 316 315 313 311 307 305 305 304 304 303 302 301 300 298 297 295 294 296 296 296 295 295 301 304 304 307 312 310 309 308
327 326 323 324 321 319 317 318 317 315 313 313 313 312 311 312 309 305 304 304 303 302 301 301 298 298 296 295 297 294 293 293 293 295 294 295 296 299 299 305 307 306 303
325 325 323 322 319 318 318 317 315 313 312 313 310 309 308 309 307 305 303 303 302 300 299 297 296 295 295 294 297 294 292 292 291 291 290 293 292 292 293 294 293 293 302
322 322 323 319 318 319 318 316 312 311 311 309 308 307 307 306 305 303 302 301 301 299 297 297 295 294 294 292 291 291 290 290 290 289 289 288 290 290 291 291 291 290 291
321 322 322 320 319 319 319 317 315 312 309 306 305 305 305 304 303 303 301 299 298 297 296 295 295 293 293 292 290 288 286 288 289 289 287 288 286 288 289 290 289 289 289
319 320 322 321 320 319 319 317 310 307 305 303 302 302 303 304 301 298 297 295 295 294 293 293 294 293 291 291 290 289 284 283 284 287 286 286 285 286 286 288 288 289 288
319 321 322 322 321 320 319 317 313 310 305 302 302 301 296 297 296 296 295 295 295 294 293 293 296 293 291 289 290 292 288 287 283 281 284 285 286 287 285 286 286 287 288
320 321 321 322 321 321 318 316 312 307 303 303 300 294 294 295 296 295 295 294 294 294 294 294 293 292 292 291 290 289 287 285 283 281 279 282 284 285 285 285 285 286 286
320 320 320 320 320 320 318 314 310 303 301 299 293 293 293 293 293 294 294 294 296 297 294 293 292 292 291 290 290 288 286 285 283 281 279 280 280 283 284 285 285 285 285

GFSSE_sfc_thetae_030.txt.gz
Theta_e
340 345 346 347 347 346 345 344 344 344 344 343 342 341 340 339 339 340 338 338 338 339 336 336 336 337 338 337 336 338 340 341 341 340 339 336 336 336 338 338 338 336 340
342 344 345 346 347 345 345 343 343 343 342 342 341 340 339 339 340 339 339 339 339 339 336 337 338 339 340 339 337 337 340 341 339 338 336 335 334 333 332 334 337 336 339
342 343 343 345 346 345 344 344 343 343 342 340 339 339 339 339 340 340 339 339 340 339 337 336 339 339 340 340 339 339 339 340 338 337 334 326 324 331 331 331 332 333 335
343 342 342 345 345 344 344 343 342 341 341 340 339 339 339 339 339 340 339 338 339 339 335 335 335 335 335 338 340 340 339 336 335 332 326 325 325 332 332 331 331 331 331
342 341 341 344 344 344 343 342 341 340 340 339 339 338 337 338 338 339 339 338 340 339 335 335 334 334 334 335 335 337 335 333 331 326 324 324 325 330 333 332 331 332 331
340 339 341 341 343 342 342 341 341 339 338 338 338 339 339 339 337 339 338 338 339 338 335 334 334 334 335 334 334 333 331 329 326 322 323 328 326 332 334 334 333 333 332
338 340 340 339 341 342 342 342 340 338 338 339 339 339 339 339 339 339 338 338 338 337 337 335 336 334 333 334 333 332 331 327 319 319 321 325 328 332 333 333 333 333 333
333 336 338 340 340 340 340 339 338 338 339 339 339 339 339 339 338 338 338 337 336 335 335 336 336 335 332 333 331 329 327 325 320 320 323 324 333 332 332 331 331 331 331
328 332 332 336 337 337 336 336 336 337 338 338 338 338 338 337 337 337 337 336 335 334 334 334 335 335 332 331 331 328 327 325 318 322 325 325 332 331 330 329 329 329 328
324 327 326 326 329 330 331 334 334 335 336 336 336 335 334 335 336 335 334 334 334 334 334 333 333 334 331 329 328 327 323 320 316 319 322 326 330 329 328 327 326 326 326
322 323 324 324 327 329 329 331 333 335 335 334 334 333 328 326 326 324 330 331 331 330 332 330 328 326 325 325 323 320 317 312 313 316 319 329 328 328 326 325 324 324 323
320 321 323 323 324 327 330 325 324 328 326 325 325 323 324 323 322 325 328 330 330 328 327 325 322 320 314 309 308 311 307 308 311 313 315 327 326 325 325 323 322 321 321
320 321 323 323 323 326 325 323 322 321 321 322 322 320 320 322 321 321 320 317 314 317 310 310 308 307 306 305 304 304 303 302 304 309 313 323 325 322 323 322 321 320 319
318 319 322 324 326 326 324 321 320 319 320 320 319 321 321 320 318 317 315 311 310 309 308 306 305 305 304 303 303 302 301 300 300 302 305 318 321 321 320 321 320 318 317
317 320 323 324 326 325 321 319 319 322 322 321 321 322 319 317 315 312 310 309 307 307 305 304 303 303 302 301 301 300 300 299 299 299 300 310 318 320 318 320 318 317 316
318 318 320 324 327 324 319 319 322 322 322 321 321 320 318 316 312 309 308 307 306 305 304 303 302 301 299 299 299 299 298 297 297 298 300 302 317 320 319 318 316 314 313
318 319 321 325 327 322 320 321 321 320 320 320 320 319 316 313 310 307 306 305 304 304 303 302 302 300 298 299 296 297 297 296 296 296 301 306 307 314 316 314 313 311 311
321 322 325 328 324 320 319 319 319 318 317 318 317 316 315 312 309 306 305 304 303 303 302 301 299 298 297 296 294 294 294 295 295 295 296 301 303 302 306 312 310 309 306
323 324 325 324 321 319 318 318 317 315 315 315 314 313 311 310 307 305 304 303 302 301 300 299 297 297 295 295 295 293 293 292 292 294 293 294 296 296 296 303 304 305 305
323 324 323 322 319 317 317 315 313 311 312 311 309 309 310 307 306 304 302 301 300 299 297 296 295 295 295 294 296 293 291 291 291 290 290 292 291 292 293 294 293 296 301
322 321 321 318 317 317 316 313 310 310 310 308 307 307 308 305 304 302 301 300 299 297 296 296 295 294 293 292 292 291 291 290 289 289 289 289 290 291 292 292 291 291 291
322 322 321 320 318 318 318 314 313 311 309 306 305 305 305 304 302 302 300 298 297 296 295 295 294 293 292 291 290 288 286 289 289 289 288 288 288 289 290 291 291 291 290
321 321 321 320 318 319 318 314 308 308 304 302 301 301 302 302 301 298 296 294 294 293 293 293 294 293 291 290 290 289 286 284 285 288 287 287 287 287 288 289 290 291 290
320 321 322 320 319 318 319 315 311 310 306 303 301 300 296 297 296 295 295 295 294 294 293 295 295 294 291 290 291 291 288 288 285 284 286 286 287 287 288 288 288 289 289
317 319 320 320 319 318 319 317 312 309 307 304 300 294 294 294 294 295 295 295 294 295 296 296 294 292 292 291 290 289 287 286 284 283 281 283 285 286 287 287 287 287 288
316 317 319 321 320 319 317 314 311 306 305 302 297 293 295 292 293 293 294 293 295 297 295 294 293 292 291 290 291 289 288 286 284 282 281 281 281 284 285 286 286 286 287

GFSSE_sfc_thetae_033.txt.gz
Theta_e
340 343 346 347 347 346 346 345 345 345 344 344 343 342 341 341 341 340 339 339 340 341 338 339 339 339 338 343 341 338 339 339 340 340 338 334 334 335 338 339 340 338 340
343 343 345 346 346 346 345 345 344 344 344 343 342 341 342 341 340 340 341 340 341 341 340 341 341 340 339 341 341 340 338 339 338 336 335 333 333 333 333 334 337 337 338
342 343 345 344 345 345 345 344 344 343 343 342 342 342 341 341 341 341 340 340 341 342 341 342 342 341 339 340 342 340 337 337 336 335 334 327 329 332 332 332 332 333 334
342 342 342 344 344 344 344 343 343 343 342 341 341 341 341 342 342 341 340 340 340 341 339 340 342 342 340 341 341 339 336 334 333 333 328 327 328 333 333 332 332 331 330
342 342 342 343 343 343 343 342 341 341 341 340 340 341 341 342 342 341 340 339 340 340 336 337 337 338 338 338 338 337 333 333 332 330 329 330 330 333 334 333 332 333 332
343 343 342 342 343 343 342 341 340 339 339 338 339 340 341 341 341 341 340 340 340 339 335 334 335 334 336 336 335 334 332 331 331 329 330 332 331 333 334 334 333 333 333
340 343 343 340 341 342 343 341 340 339 338 338 339 339 340 341 341 340 339 339 339 338 336 334 335 335 335 334 334 332 329 329 327 327 328 330 331 332 332 332 332 332 332
336 338 341 341 340 340 341 339 338 338 339 339 339 339 340 340 339 339 338 337 337 337 337 336 334 335 334 334 333 330 328 328 326 326 327 328 333 331 330 330 330 330 329
330 333 335 335 335 336 336 336 337 338 339 338 338 339 339 338 337 337 337 336 336 335 336 336 334 333 334 332 330 328 327 327 327 326 325 326 331 329 328 326 326 327 327
326 328 327 327 329 329 331 335 336 337 337 337 338 336 335 335 336 336 335 335 335 335 335 336 333 331 330 329 324 322 322 324 327 327 327 326 329 327 326 324 325 325 325
322 321 323 322 325 329 331 334 336 337 336 335 334 333 330 330 331 329 331 332 333 332 331 330 327 326 325 323 321 320 322 321 323 325 326 329 328 326 325 324 323 323 322
317 319 321 323 323 329 327 328 331 331 330 330 330 330 329 331 329 329 330 331 329 326 325 323 321 319 318 315 314 315 314 317 318 321 325 326 326 326 324 323 322 321 321
317 318 321 320 321 325 327 325 326 326 327 328 328 328 328 329 330 329 327 322 321 320 316 316 314 313 314 314 313 312 312 312 314 319 319 321 324 324 324 323 321 320 319
319 320 321 322 320 325 328 324 324 325 325 327 326 328 330 328 327 326 320 319 318 316 315 315 314 313 313 312 312 311 311 310 311 311 311 318 320 321 323 323 320 319 317
318 320 321 323 323 327 326 324 323 325 325 326 327 330 330 327 325 321 318 317 316 316 315 314 313 312 311 310 309 309 308 309 310 311 311 317 319 320 318 322 320 318 315
319 319 322 323 328 328 325 325 325 327 327 327 328 329 327 325 321 318 317 316 315 316 315 314 312 310 309 309 308 307 306 307 309 311 311 316 317 321 319 320 318 316 314
319 321 323 326 331 329 325 325 327 329 329 328 328 327 325 322 321 319 316 314 314 314 314 312 310 310 308 306 306 306 305 305 307 310 313 315 315 315 318 316 313 312 312
320 321 324 327 330 330 326 327 328 328 329 329 328 326 323 320 319 318 315 314 314 313 312 310 309 307 307 307 306 304 304 304 304 307 311 312 311 311 312 311 311 309 306
321 323 324 328 330 329 327 327 329 328 327 327 327 325 322 318 316 316 314 313 313 311 310 308 307 307 306 306 304 304 303 302 302 302 306 307 306 306 306 304 305 305 305
324 325 326 328 330 329 327 326 325 324 323 324 324 323 320 316 315 314 312 312 310 308 307 307 307 306 306 306 302 302 301 301 301 301 300 300 301 302 303 302 303 302 301
325 325 327 328 329 326 324 323 323 320 320 319 319 319 317 315 313 312 310 310 309 309 307 307 305 304 304 305 303 302 300 300 300 300 301 300 299 299 301 301 302 301 300
324 326 328 328 327 327 326 325 323 320 320 317 315 317 314 314 312 311 310 309 308 306 306 306 305 303 304 304 301 300 297 297 299 298 299 298 299 299 299 298 299 299 299
324 327 328 329 327 327 326 323 318 316 315 313 312 312 312 312 311 310 309 307 305 304 303 304 305 303 300 301 301 300 295 294 297 298 297 298 298 298 299 298 298 298 298
325 328 329 328 327 327 325 323 319 318 315 315 312 312 310 310 308 307 305 304 304 304 303 303 303 301 302 299 301 300 301 299 294 292 297 298 297 296 297 298 297 297 297
326 327 329 328 326 326 323 323 321 320 318 313 310 308 305 305 305 303 304 304 304 303 304 304 303 301 302 301 300 300 300 298 297 293 290 293 296 297 297 297 297 296 296
327 327 327 325 325 324 323 323 320 318 313 309 304 303 302 302 302 303 302 303 304 304 303 302 299 300 301 301 300 300 298 296 294 293 291 291 291 294 295 296 296 295 296

GFSSE_sfc_thetae_036.txt.gz
Theta_e
341 343 346 348 349 349 348 348 347 346 346 345 344 344 343 343 342 341 341 342 343 343 340 340 342 345 339 338 339 339 339 339 339 338 337 334 335 335 337 338 340 338 340
343 342 345 347 348 348 348 346 346 345 345 344 343 343 342 342 341 342 342 343 343 342 342 341 341 343 338 337 337 338 336 337 336 337 337 334 334 334 334 334 337 337 339
341 342 345 345 346 346 346 345 345 345 344 343 343 342 342 342 342 342 342 343 344 344 342 342 341 341 338 338 339 337 335 335 335 334 337 328 331 334 334 332 334 333 335
342 341 340 344 345 345 344 344 344 344 343 343 342 342 342 343 342 342 342 343 344 346 344 342 342 341 339 339 339 337 334 333 335 336 328 329 329 334 334 333 333 332 332
342 341 342 343 343 344 343 343 342 342 341 342 342 343 343 343 342 342 341 341 342 344 342 342 342 341 339 338 337 336 334 333 334 331 329 330 330 332 334 334 334 333 332
341 341 342 341 342 343 343 342 341 340 340 340 341 342 343 343 342 342 341 341 341 340 338 339 339 338 337 336 336 333 333 332 333 328 329 331 330 332 332 333 333 332 332
342 344 343 340 341 342 342 342 340 339 339 339 340 341 341 342 342 341 340 340 339 338 337 336 336 336 336 335 334 331 330 330 326 325 328 329 330 330 330 330 331 331 331
340 343 342 341 341 341 340 339 338 338 339 339 340 340 341 341 340 340 339 339 339 337 336 337 336 335 335 332 330 329 329 330 326 325 326 328 331 328 328 327 328 328 328
339 338 336 336 336 337 336 337 337 338 339 339 339 339 339 338 337 337 337 337 338 337 335 335 335 335 332 329 328 328 328 329 326 326 325 326 328 326 325 325 326 326 326
331 333 330 328 328 330 333 336 337 337 338 338 338 337 335 336 336 336 335 336 337 337 335 334 334 332 328 326 324 324 325 326 325 325 326 327 328 325 325 324 325 325 324
325 326 326 324 325 326 329 335 337 338 337 335 335 333 329 328 328 330 332 335 334 334 332 330 328 327 326 323 322 323 323 322 322 323 325 329 326 325 324 324 323 323 322
319 321 323 321 321 323 324 330 335 334 332 331 329 329 328 331 331 329 332 330 329 328 327 324 323 322 324 322 319 320 319 320 320 320 324 325 326 325 324 323 322 322 321
317 318 320 322 324 324 323 329 331 331 331 331 331 330 330 330 331 330 330 326 325 325 321 321 321 322 322 321 319 319 318 317 317 317 319 322 324 326 324 322 321 321 319
316 316 318 320 320 323 325 326 327 326 327 327 328 329 330 329 331 330 328 327 325 325 324 323 321 321 319 319 318 317 316 315 315 314 315 320 321 322 325 322 321 319 317
311 314 317 319 321 323 325 322 325 325 325 326 327 328 328 328 331 330 327 326 325 324 323 322 320 319 318 317 316 314 313 312 312 312 313 319 320 321 320 323 321 318 316
313 315 318 319 321 321 322 325 325 326 327 327 329 331 333 331 330 327 326 324 323 323 323 321 320 318 317 316 314 311 310 310 311 312 313 316 318 321 319 321 320 317 315
319 320 320 322 325 325 326 328 325 326 327 328 332 335 334 332 330 328 325 324 323 322 321 319 318 318 316 313 310 310 310 310 310 310 312 313 315 315 319 317 315 313 312
322 321 323 325 327 330 330 328 326 329 329 330 332 334 333 330 329 327 324 323 322 321 319 318 317 315 314 312 311 310 311 310 309 310 313 313 313 313 312 311 311 309 307
322 323 323 327 330 332 333 329 328 331 331 333 334 333 330 328 326 326 324 322 322 319 318 316 314 314 311 311 309 311 310 310 308 308 310 311 312 312 313 305 306 306 305
324 325 325 328 330 333 333 329 327 331 334 335 334 332 330 327 325 325 323 321 319 317 315 314 312 311 310 310 305 306 308 307 307 307 306 306 308 309 308 307 306 304 301
325 326 327 328 331 333 330 326 326 328 331 332 333 332 330 327 324 323 320 319 318 316 315 314 311 307 308 310 307 307 306 306 305 305 306 306 304 304 306 304 304 303 303
325 326 328 329 331 332 331 327 329 330 331 330 329 328 327 325 323 321 319 317 317 315 314 312 309 308 310 309 305 304 302 303 304 304 304 303 304 303 302 302 302 302 302
325 326 327 330 332 334 333 329 329 330 328 324 323 323 323 322 320 319 319 317 316 314 311 310 308 308 307 307 307 302 299 299 302 303 302 302 302 302 302 301 301 301 301
327 329 329 330 332 334 334 329 326 324 324 325 323 322 319 318 319 317 317 315 314 312 310 308 309 310 308 305 306 304 304 302 296 296 301 302 302 301 302 301 301 301 301
329 329 331 332 332 334 334 332 328 326 328 327 323 320 318 318 317 316 314 311 310 310 309 310 309 307 308 302 303 304 303 302 301 297 294 297 300 300 301 300 301 301 300
330 330 331 331 331 333 331 328 327 326 326 323 320 318 315 315 314 311 308 309 311 309 309 310 307 308 304 305 304 303 300 299 298 297 295 296 296 298 299 299 300 300 300

GFSSE_sfc_thetae_039.txt.gz
Theta_e
341 345 349 351 350 350 349 349 348 347 347 346 345 344 344 344 343 343 344 345 345 346 346 345 341 339 339 339 339 337 338 339 338 338 338 335 335 336 338 339 340 338 341
343 345 347 349 350 350 349 348 347 346 345 345 344 344 344 343 342 343 344 344 344 345 344 343 338 337 337 336 336 336 335 336 338 337 337 335 335 334 334 334 337 335 338
341 343 348 347 349 349 348 347 346 346 345 344 344 343 342 343 343 344 344 344 345 345 343 341 338 338 337 336 337 336 334 335 334 336 339 328 331 335 335 336 335 333 334
341 343 348 346 347 347 346 345 345 344 344 344 343 342 343 344 344 344 345 345 345 346 343 340 338 337 337 336 337 335 334 335 333 336 329 328 329 335 336 334 333 334 333
338 342 346 344 344 345 344 343 343 343 343 342 342 343 344 344 344 344 344 345 346 346 343 340 338 337 336 338 337 335 334 334 334 330 328 328 328 332 334 334 334 333 333
336 339 342 342 343 343 343 343 342 341 340 341 342 343 344 344 343 343 342 343 345 345 342 340 336 335 337 336 335 333 332 333 334 328 328 329 328 331 331 332 332 333 332
335 339 342 340 342 343 343 342 341 341 340 341 342 342 342 343 343 342 340 340 341 342 340 337 335 335 336 335 331 331 332 333 325 327 326 326 328 329 329 329 329 329 329
340 340 340 341 341 341 341 340 339 339 340 341 341 342 342 342 341 341 340 339 339 339 338 337 337 335 333 331 329 329 331 332 325 326 327 325 329 327 327 327 327 327 327
337 337 337 337 338 338 337 337 337 339 340 340 340 340 340 338 338 339 338 338 337 337 337 336 335 334 330 329 329 328 328 330 326 326 325 325 327 326 326 326 326 326 325
335 334 335 335 339 338 337 336 337 338 338 339 338 337 335 336 336 337 337 338 336 336 336 335 333 330 327 326 326 326 326 329 324 324 325 325 327 325 324 325 325 324 324
328 329 328 327 329 332 333 336 337 338 337 336 335 333 330 328 329 331 334 336 335 333 334 333 330 329 327 325 324 323 324 321 321 321 325 329 326 325 324 324 323 323 323
321 322 323 323 324 324 330 334 334 335 333 331 330 329 327 332 332 330 331 332 331 329 329 328 327 327 326 322 320 323 319 319 318 319 324 327 326 325 324 323 322 322 321
320 319 321 322 321 322 322 328 329 331 332 332 331 333 333 332 331 331 327 327 327 327 322 321 320 324 324 322 321 320 319 318 316 315 320 323 325 325 324 323 322 321 320
317 318 319 321 320 322 321 323 327 327 330 330 330 332 334 331 333 330 329 329 328 326 325 326 324 324 322 320 319 318 317 315 313 313 317 321 321 323 325 323 322 320 319
314 315 316 318 317 319 320 323 326 327 326 328 329 330 330 330 333 330 330 328 328 327 326 324 323 321 320 319 318 315 312 312 312 312 315 320 320 320 321 323 322 319 317
313 315 317 318 321 321 319 320 322 324 325 327 327 328 329 329 335 329 329 327 327 327 326 325 322 320 318 318 315 312 311 311 312 313 313 316 320 321 320 323 322 319 316
313 315 316 317 319 319 319 321 322 323 324 324 325 334 331 331 334 332 329 328 327 327 326 323 321 319 316 314 311 311 311 311 311 311 312 313 316 317 318 318 319 315 314
314 315 315 317 318 322 323 326 324 326 327 326 329 333 333 332 333 332 328 327 327 326 324 322 318 316 315 313 312 311 311 310 310 310 312 312 311 313 313 312 312 310 309
318 320 317 322 322 327 327 328 325 326 326 325 330 334 334 333 332 332 328 327 326 324 322 320 317 316 312 311 310 311 312 310 309 308 310 311 311 310 312 309 308 307 305
322 321 321 325 326 329 328 328 325 325 327 330 334 333 333 331 330 330 328 327 325 322 320 318 316 314 312 312 309 308 311 310 309 308 307 307 308 309 308 309 308 306 304
323 322 323 324 327 329 326 324 323 321 326 331 335 333 333 332 330 330 328 325 324 321 319 318 315 312 310 313 310 312 310 309 308 307 307 306 305 305 305 305 305 304 303
323 323 323 324 326 329 329 326 324 325 326 329 332 333 333 332 329 329 327 324 322 319 318 316 314 311 313 313 309 309 306 306 307 307 307 305 306 305 304 304 304 303 303
324 325 326 327 328 331 331 328 326 327 329 328 329 329 331 331 328 326 325 323 321 320 316 316 313 313 311 312 311 307 303 301 304 307 305 305 305 304 304 304 303 303 302
325 329 328 329 329 331 333 329 326 324 325 327 329 328 328 327 325 323 321 322 321 319 316 315 312 314 312 309 311 309 308 305 299 298 304 305 305 303 304 303 303 302 302
327 329 330 329 330 332 333 334 329 326 327 330 328 327 327 323 322 321 321 321 319 316 317 315 313 313 310 309 308 307 306 305 304 299 297 300 303 303 302 302 302 302 302
328 331 332 329 328 330 334 333 331 329 328 329 327 324 323 322 321 321 319 319 316 313 314 312 313 311 311 309 306 306 304 301 301 301 298 298 298 300 302 302 301 301 301

GFSSE_sfc_thetae_042.txt.gz
Theta_e
340 347 350 350 350 349 349 348 347 347 347 346 346 345 345 345 345 346 346 346 347 346 341 340 339 338 337 337 336 337 339 339 338 338 338 335 335 336 337 339 339 336 340
341 348 347 349 349 350 349 348 347 346 346 346 345 345 344 344 345 346 345 345 346 346 340 339 337 336 334 335 335 337 338 338 338 337 337 335 335 336 336 334 337 333 337
340 348 348 347 349 349 348 348 347 346 345 345 344 343 343 345 345 344 344 344 346 344 339 338 337 336 334 334 337 336 336 336 338 338 336 328 330 335 335 335 335 333 334
342 346 348 347 347 348 347 346 345 345 345 345 343 343 344 345 345 346 345 344 345 344 339 338 337 335 334 335 336 336 337 337 338 337 325 325 328 336 335 334 335 334 333
341 346 346 345 345 346 345 345 343 343 343 342 342 344 345 345 347 347 346 345 345 344 339 338 336 335 335 336 335 334 334 335 334 327 323 324 325 330 333 334 333 334 333
338 345 342 342 344 344 344 343 343 342 341 341 342 344 345 345 346 346 345 345 345 344 338 336 335 334 336 334 333 334 334 334 333 323 322 326 324 330 331 331 331 331 332
339 342 342 340 342 343 343 343 342 341 341 342 342 343 343 343 343 343 343 344 344 342 338 335 334 335 334 333 332 333 332 330 323 321 321 322 322 328 329 329 328 328 329
337 340 341 342 342 341 341 341 340 340 341 341 342 342 343 342 341 341 341 341 341 339 338 337 336 334 333 331 330 329 330 332 325 322 321 321 328 327 327 327 327 327 327
336 338 337 337 339 338 337 338 338 339 340 341 341 341 340 339 338 338 339 339 339 337 337 336 334 333 331 329 327 327 328 330 323 321 321 320 329 326 326 326 325 325 325
332 332 332 333 333 335 336 336 337 338 338 338 337 336 336 336 337 336 336 337 337 336 336 335 332 331 328 326 325 323 326 326 318 320 321 323 328 325 325 325 324 324 323
330 330 332 332 330 333 335 337 338 339 337 336 335 333 330 328 326 332 334 335 335 334 334 333 331 328 326 324 324 325 325 316 315 321 323 330 327 326 325 324 323 323 323
322 324 326 329 330 331 333 334 335 335 333 331 329 328 327 329 330 331 332 332 332 332 332 330 329 327 325 316 315 323 314 314 316 321 322 329 327 326 324 323 323 322 322
319 321 323 323 324 325 326 329 329 329 329 329 328 330 328 328 328 327 326 325 324 325 319 321 321 319 321 318 317 315 313 311 310 315 322 326 327 326 325 323 322 321 321
316 318 319 321 321 322 324 325 327 327 327 326 329 330 328 328 326 324 324 325 324 323 318 320 321 320 317 316 315 313 311 308 307 312 317 322 323 325 325 324 323 321 321
315 315 315 317 317 317 318 320 322 324 325 327 328 329 329 328 329 326 325 325 323 325 323 321 319 318 315 315 313 309 308 308 307 309 310 320 321 321 324 324 323 321 319
314 314 315 316 316 317 316 316 318 321 323 325 326 327 328 329 329 328 328 327 325 324 323 321 319 316 314 313 309 307 306 307 307 307 310 313 320 323 322 324 323 321 319
313 315 315 316 316 315 316 318 320 319 320 319 322 328 328 327 330 329 326 325 325 324 323 320 317 314 312 310 307 306 307 306 307 306 307 311 315 318 320 324 322 319 317
313 314 316 319 317 316 317 315 316 319 318 318 321 328 329 329 331 328 327 325 324 322 320 318 316 313 311 308 306 305 305 305 304 305 307 307 310 311 314 317 316 314 312
314 315 316 315 314 314 314 315 316 319 325 323 324 327 331 330 330 329 327 326 324 322 320 318 314 312 308 306 307 305 305 304 304 305 305 306 305 307 309 313 313 312 310
315 315 315 315 314 314 314 317 321 324 323 323 323 328 329 329 331 329 328 325 322 320 318 316 311 309 308 307 308 305 306 305 303 302 303 305 303 304 304 306 305 305 309
318 315 315 314 316 318 320 321 322 319 322 323 328 329 331 330 329 327 326 324 322 319 317 316 312 307 305 307 305 307 305 305 303 302 303 302 301 302 300 300 300 300 301
318 317 319 318 321 324 324 322 322 321 321 324 329 331 330 329 328 327 325 322 321 318 317 313 311 307 308 308 304 303 300 300 302 303 302 302 299 301 301 301 300 299 298
317 318 319 322 323 325 326 325 323 323 322 323 325 328 329 329 328 326 326 322 320 319 314 313 311 308 305 306 306 302 297 295 297 301 301 300 300 299 299 300 300 299 299
320 321 321 322 323 325 327 327 321 319 318 323 325 326 327 329 327 324 323 321 320 318 314 313 313 310 308 305 306 308 305 300 294 292 298 299 300 300 299 298 298 299 299
322 323 323 324 325 326 327 328 325 321 324 327 326 326 325 325 324 324 320 318 318 317 317 312 310 310 310 304 306 305 303 300 299 295 291 295 298 298 299 299 298 298 299
323 324 326 325 326 327 329 328 327 322 324 325 324 322 322 320 320 320 319 318 318 317 313 311 310 310 306 304 303 302 302 299 296 295 293 294 293 295 298 298 297 296 296

GFSSE_sfc_thetae_048.txt.gz
Theta_e
337 346 348 350 349 348 347 346 346 345 345 346 347 348 349 347 345 345 344 344 343 342 339 339 341 339 338 338 337 338 339 339 338 339 338 336 337 338 338 337 338 335 339
337 346 347 349 349 348 347 347 345 345 345 346 347 348 348 346 345 344 343 343 341 340 338 339 339 339 339 338 340 339 339 338 337 337 336 336 335 335 335 334 336 335 339
339 344 341 344 347 348 347 346 346 345 345 347 347 347 348 346 344 343 342 341 339 340 339 338 338 338 337 337 338 337 337 336 336 336 334 326 328 335 335 333 333 333 334
330 339 343 343 343 347 346 345 345 345 345 347 346 347 347 346 344 343 342 340 339 339 338 338 338 336 335 336 336 337 336 334 333 330 324 325 328 334 333 333 333 331 332
329 333 336 334 339 345 345 345 344 342 344 345 345 346 347 346 344 343 341 340 339 339 337 337 335 333 333 335 335 335 334 333 331 324 319 321 323 328 331 333 332 332 330
333 331 334 334 339 344 345 344 342 342 342 343 344 345 346 346 344 342 340 340 339 338 334 333 332 332 333 335 335 334 332 330 325 318 319 324 322 329 331 331 330 329 328
334 334 333 337 338 342 344 343 342 342 342 342 343 344 345 345 343 342 340 339 338 337 333 331 331 333 332 334 334 331 330 328 319 316 317 318 321 328 329 328 326 326 324
333 336 339 340 340 341 341 340 340 341 342 343 343 344 344 344 343 341 340 339 338 337 335 333 333 332 332 332 332 329 328 326 320 318 318 319 327 327 328 326 325 324 324
336 336 337 335 338 334 332 335 339 340 341 342 342 343 342 342 341 340 340 339 337 336 334 333 331 330 331 329 330 330 327 325 316 317 319 318 327 327 327 325 325 324 323
331 333 331 333 335 330 326 330 336 339 338 338 339 339 339 340 340 339 338 337 336 335 333 331 330 330 329 327 329 328 326 324 315 316 317 322 327 326 325 325 324 323 322
328 328 330 331 330 329 328 330 333 337 337 336 335 334 333 334 334 332 334 335 335 332 331 330 328 326 323 325 325 326 323 316 316 317 318 328 327 326 325 324 323 322 321
324 325 327 326 326 325 326 326 332 334 331 330 326 324 327 328 330 331 332 333 332 331 330 328 326 324 319 310 310 320 316 318 319 319 320 329 327 326 324 323 323 322 321
324 325 325 326 325 323 322 324 329 329 327 324 323 325 326 327 327 327 326 326 326 328 323 322 317 316 315 310 308 308 312 315 316 319 324 328 327 325 324 324 323 322 320
320 324 325 325 325 323 321 323 329 327 324 324 323 325 323 321 321 321 320 321 319 318 316 314 314 313 311 309 306 304 308 311 313 316 322 327 328 325 325 323 323 322 320
315 321 324 325 325 326 323 326 326 325 324 325 324 323 322 320 319 318 316 316 316 315 313 315 313 311 308 306 304 304 304 308 309 311 313 324 326 327 325 325 324 323 321
314 316 319 322 324 324 323 323 324 324 325 325 324 323 321 320 319 319 317 316 317 316 314 315 312 310 308 304 303 303 303 305 306 306 307 311 320 324 326 324 324 324 322
313 315 315 317 318 319 319 319 319 320 318 323 323 323 322 321 320 321 319 318 317 318 316 314 313 310 308 305 302 302 302 302 304 305 306 310 313 319 321 326 324 322 322
313 314 317 317 316 317 317 318 317 316 315 313 315 320 321 323 324 321 320 320 320 317 317 314 311 307 305 302 300 299 301 301 301 303 307 309 309 311 320 324 324 322 321
313 314 315 316 315 316 316 315 315 315 314 314 313 314 322 322 325 323 321 320 319 317 314 313 310 308 304 302 301 300 300 300 300 303 305 307 307 307 310 319 320 320 320
313 314 315 315 314 315 315 314 313 314 314 314 313 315 317 320 323 322 321 321 317 315 313 311 309 306 303 302 304 302 298 299 299 300 302 304 305 306 306 307 308 309 315
311 313 313 314 313 313 312 311 311 311 313 313 313 315 318 321 324 322 321 320 317 315 314 312 307 303 301 302 301 300 301 300 298 298 299 299 302 305 304 304 303 302 307
310 311 311 311 311 312 312 312 312 312 312 312 313 315 320 319 321 324 322 320 317 314 312 310 306 302 301 302 299 299 297 298 299 298 297 298 297 300 302 303 301 301 300
309 310 310 310 309 310 311 310 309 309 310 311 312 315 319 319 319 323 322 320 317 316 313 311 306 304 303 305 304 301 296 296 294 296 297 297 296 295 296 298 299 298 298
309 310 310 310 310 311 312 310 309 309 308 312 313 317 319 321 322 323 322 319 318 316 313 312 309 305 305 304 304 305 302 299 295 292 296 296 296 295 295 295 296 296 297
309 309 310 310 310 311 311 312 312 314 316 314 314 315 320 320 322 322 321 318 317 319 315 310 308 308 308 307 305 304 302 300 299 295 292 293 295 296 295 295 295 295 295
310 309 309 309 310 311 311 313 315 316 315 312 313 315 317 321 322 321 320 320 319 318 315 311 310 308 308 305 305 304 303 301 298 295 293 294 294 294 296 295 295 295 295

GFSSE_sfc_thetae_051.txt.gz
Theta_e
342 346 348 349 348 347 346 346 346 346 347 348 348 347 347 346 345 344 343 341 342 343 340 339 338 337 337 338 338 337 338 339 338 337 338 338 338 337 338 339 338 334 339
343 345 346 347 347 347 346 346 345 345 347 348 347 346 346 345 345 343 342 342 343 343 340 340 339 339 338 337 337 336 335 337 337 337 336 335 335 335 336 336 337 335 338
342 345 345 346 347 346 346 346 346 346 348 348 347 346 345 345 344 342 341 341 343 343 340 340 340 340 339 338 337 337 336 335 336 335 334 328 327 333 333 333 333 331 332
341 340 341 345 346 346 345 345 345 347 347 348 346 345 345 344 343 340 339 341 342 342 339 338 337 336 336 337 337 336 333 332 331 329 323 326 327 335 334 332 330 330 330
331 339 338 342 343 342 344 344 344 345 345 346 345 345 344 343 342 340 338 340 341 341 338 336 334 334 336 336 335 334 332 331 329 323 319 320 324 330 333 331 330 328 327
329 334 339 340 343 342 342 343 343 344 343 345 345 344 344 343 342 340 338 340 342 339 335 333 334 334 336 335 334 332 330 328 325 317 318 323 322 330 330 329 327 325 325
329 329 335 336 340 341 340 340 341 343 342 343 343 342 342 342 341 339 338 338 338 336 333 332 335 337 336 333 332 330 328 326 317 315 316 318 322 328 328 326 325 325 324
334 331 332 336 336 339 339 338 339 342 342 341 342 341 342 341 340 339 338 338 336 335 333 333 334 335 334 332 331 329 328 326 319 316 317 319 327 327 327 326 324 324 324
333 336 333 334 332 333 335 333 333 340 340 339 341 341 340 339 338 338 337 336 334 333 332 331 331 332 333 331 330 328 326 324 315 316 318 318 327 327 327 325 324 323 322
333 334 333 329 326 328 327 327 332 337 339 339 340 340 339 338 338 336 335 334 333 333 332 330 330 331 332 331 328 327 326 323 314 315 317 321 327 326 326 324 323 322 321
328 331 332 325 323 322 324 326 328 338 338 337 339 338 335 334 332 329 332 333 332 330 330 329 327 327 330 329 328 326 321 315 315 316 317 328 327 326 325 323 322 321 320
323 328 329 326 323 320 322 321 319 323 332 333 334 331 331 329 327 329 330 331 330 329 328 328 326 322 316 314 322 322 315 316 316 317 319 328 326 325 324 324 323 322 319
323 324 326 325 325 323 319 316 319 324 327 324 325 328 328 328 328 325 325 325 324 324 318 315 315 312 309 311 312 314 317 317 317 318 323 328 326 325 325 324 323 322 320
323 323 323 323 321 321 321 321 322 323 325 323 325 326 326 324 321 320 321 321 318 317 313 312 311 309 307 306 309 311 314 314 315 317 321 326 327 325 326 325 324 322 320
319 323 324 322 321 318 319 320 323 325 323 322 324 323 322 320 319 318 318 316 314 312 312 312 309 307 305 303 303 307 309 312 313 314 315 325 326 326 325 326 325 323 321
316 321 323 324 322 319 318 320 326 323 323 323 322 320 318 318 317 317 315 313 313 311 313 312 308 305 303 302 301 303 306 306 307 308 311 313 322 325 326 325 325 324 321
314 316 321 324 325 322 322 324 324 323 324 323 321 320 318 318 316 316 313 313 314 312 313 311 309 307 302 301 300 301 303 304 304 304 306 308 312 319 322 326 325 324 322
314 315 317 322 321 320 320 319 320 318 323 323 322 321 320 319 319 317 315 315 316 315 313 311 309 306 303 300 298 299 300 301 303 304 305 308 308 311 318 321 326 324 323
314 316 315 318 319 318 317 316 315 314 316 318 321 321 321 322 323 319 319 318 317 315 313 312 307 305 302 300 299 298 299 298 298 304 305 306 306 308 311 321 322 322 323
314 315 315 316 317 317 315 314 315 314 313 313 313 318 322 322 324 321 319 318 316 314 312 310 307 305 303 302 302 300 297 298 297 299 303 307 306 306 309 311 312 313 319
313 313 315 314 315 315 314 314 313 313 313 313 313 316 317 318 322 321 319 318 315 314 312 311 306 304 301 300 300 299 299 299 298 297 299 301 303 304 305 306 305 304 308
312 312 314 314 314 315 316 316 315 314 313 313 313 314 316 318 318 320 319 318 316 313 312 310 306 302 301 301 299 298 297 299 298 298 296 298 298 302 303 304 303 302 302
309 308 312 312 312 312 313 314 312 312 311 309 311 311 313 317 317 319 320 318 316 314 312 310 307 304 301 303 302 301 296 295 297 298 298 298 297 296 300 301 302 301 300
307 309 310 310 310 309 311 310 308 309 308 310 309 310 311 315 317 317 319 319 317 315 313 312 311 307 306 300 301 303 302 300 296 294 297 299 297 295 295 297 299 299 298
308 308 309 310 310 309 309 308 306 306 307 308 309 309 311 315 317 320 319 318 318 316 315 313 310 308 308 306 304 301 302 299 300 297 295 297 297 296 297 298 296 295 296
307 307 308 309 309 309 309 309 308 308 309 309 310 311 313 315 317 318 319 318 317 317 316 314 313 310 308 307 306 305 303 301 296 297 295 295 295 297 298 298 296 297 295

GFSSE_sfc_thetae_054.txt.gz
Theta_e
337 335 345 347 348 346 346 345 346 347 348 349 348 348 348 348 346 344 343 343 343 344 341 340 339 339 339 339 337 337 337 338 338 340 339 339 340 341 340 338 338 335 340
343 345 346 346 347 347 347 346 346 347 348 348 348 348 347 346 344 343 343 343 343 342 339 338 337 337 337 337 337 337 338 337 337 337 337 335 338 337 336 336 336 334 337
342 344 344 345 346 346 346 347 347 348 347 348 347 346 346 345 343 343 343 343 343 343 340 339 339 339 338 336 337 337 335 336 336 335 333 326 327 333 332 332 333 333 333
342 343 342 345 345 345 346 346 346 348 347 347 347 346 345 344 343 343 342 342 342 343 340 340 340 338 337 336 337 335 334 332 331 328 325 327 328 332 332 331 331 330 328
340 338 340 343 344 345 345 345 346 347 345 345 345 345 344 343 343 343 341 341 342 341 339 339 339 338 336 336 335 334 332 331 329 324 321 325 326 329 330 328 328 328 328
331 336 338 341 343 345 345 345 346 346 343 343 343 344 343 342 343 342 340 341 341 338 337 338 338 336 335 334 333 332 331 328 324 318 320 327 325 329 328 327 326 326 326
330 334 337 340 341 343 344 345 344 344 343 342 342 342 341 341 341 341 340 340 338 337 335 336 336 336 334 332 331 330 328 326 317 316 318 320 322 327 328 326 325 325 324
329 330 335 340 340 339 340 340 340 342 342 341 341 341 340 340 339 340 338 337 336 336 338 338 336 334 333 331 330 329 328 325 319 317 319 321 327 327 327 326 324 323 323
331 329 330 332 334 336 334 333 336 338 340 340 340 340 339 338 337 337 336 335 335 335 337 336 334 332 332 330 329 328 326 324 316 317 319 320 327 327 327 325 324 323 322
333 332 330 329 330 327 328 332 332 337 338 339 339 339 338 337 337 334 333 333 333 333 334 335 333 332 331 330 328 327 326 323 315 317 318 323 326 326 326 324 323 322 321
329 324 325 324 324 324 324 326 330 333 334 337 339 337 334 332 329 327 330 331 331 329 331 333 333 331 329 329 328 326 321 316 316 317 319 328 327 327 325 324 322 322 321
325 323 324 322 321 321 323 325 324 323 331 334 336 334 332 328 325 327 329 329 328 328 328 330 331 330 325 322 323 321 316 316 317 318 320 327 327 326 324 323 322 320 319
324 324 323 321 320 320 320 320 321 319 326 331 332 331 328 326 327 324 323 323 321 323 316 317 314 314 315 315 315 315 316 317 317 319 324 327 326 326 325 325 323 320 319
322 323 323 321 320 320 318 319 319 320 322 322 328 329 327 325 322 321 319 318 315 313 312 311 309 308 310 312 314 315 315 316 316 318 323 326 327 326 326 326 324 322 319
321 322 323 322 321 318 316 317 318 320 320 323 324 327 326 321 320 319 318 315 314 313 311 308 306 306 306 308 311 313 314 315 316 317 319 325 326 326 326 326 325 323 321
319 322 322 321 321 318 316 316 317 319 319 322 324 323 321 319 318 318 316 314 312 312 311 308 306 303 302 303 306 308 310 312 312 314 315 319 323 325 326 326 325 324 323
317 319 322 321 319 319 319 318 319 320 319 321 323 321 319 317 316 316 314 313 312 311 311 308 306 302 300 301 302 305 306 305 306 307 310 312 315 320 324 327 326 325 323
315 317 319 323 319 318 318 320 323 323 322 322 321 319 318 318 317 315 313 313 313 312 312 309 307 304 300 300 299 300 302 303 304 304 306 308 310 311 318 323 326 326 324
315 316 317 321 320 320 319 319 320 320 322 321 319 318 318 318 318 316 315 314 315 313 312 310 307 306 301 299 299 299 300 300 301 305 304 307 307 310 311 318 323 323 325
314 316 316 318 320 319 318 316 316 315 314 317 319 319 319 320 320 318 317 316 315 314 311 309 306 305 304 301 301 299 298 299 299 300 304 307 306 308 310 314 318 318 321
313 315 315 316 317 316 316 316 315 314 313 313 316 319 321 322 323 320 319 318 316 313 313 310 307 304 302 302 300 300 300 299 299 298 300 304 305 306 307 310 311 311 314
312 314 315 315 316 317 316 317 318 316 315 314 313 315 318 319 321 321 319 317 315 313 311 309 306 303 303 301 299 298 297 299 300 300 298 300 301 303 305 306 307 307 307
311 311 314 314 315 316 317 316 314 315 313 312 312 311 314 317 317 319 319 317 315 313 311 309 307 304 302 301 302 302 296 296 297 298 298 297 298 299 302 304 304 304 304
310 310 312 313 313 314 316 314 314 313 311 313 312 311 312 316 317 317 318 318 316 314 312 311 310 306 305 303 304 304 302 300 297 296 297 300 299 299 298 301 303 304 303
307 308 307 311 312 312 312 313 314 314 314 313 310 310 311 312 316 317 315 315 316 315 314 313 311 308 308 307 305 303 302 300 298 298 297 297 297 299 298 298 300 300 300
306 308 307 308 309 309 308 309 309 310 308 308 308 308 308 310 311 314 315 315 315 315 313 312 311 310 309 309 308 307 303 301 299 298 297 297 296 298 299 299 298 298 298

GFSSE_sfc_thetae_057.txt.gz
Theta_e
341 346 346 347 349 349 349 349 349 349 349 349 348 349 349 349 349 348 348 346 346 346 343 342 342 341 340 342 341 340 342 342 342 342 342 341 341 341 340 341 340 338 341
343 345 344 347 348 349 349 349 348 349 349 349 348 348 348 347 347 346 345 345 344 344 341 341 340 339 338 338 338 339 339 338 337 340 340 339 338 338 338 337 339 336 338
341 339 344 346 346 348 348 349 349 349 349 348 348 348 347 346 345 344 343 342 343 342 339 339 338 338 338 336 338 338 337 336 335 335 337 332 331 334 334 333 335 334 334
341 341 345 345 346 347 347 348 348 349 348 348 348 346 345 345 345 344 342 342 342 342 338 338 337 337 337 337 337 336 334 335 334 334 329 328 331 334 333 331 331 331 330
343 343 344 344 344 346 346 346 346 346 346 346 346 345 345 345 345 344 342 342 342 342 341 338 337 336 336 336 335 334 333 333 332 330 330 330 327 329 330 331 329 329 329
339 343 343 342 343 345 346 347 345 345 344 344 344 344 345 345 344 343 342 342 343 343 340 337 336 335 336 334 334 333 332 331 330 328 328 327 327 329 329 328 327 327 326
333 341 344 340 342 344 345 346 344 344 343 343 342 342 343 344 343 342 341 341 341 342 341 337 334 334 334 333 332 330 329 329 328 326 325 326 327 329 329 327 326 326 325
331 333 339 341 342 341 342 344 342 342 342 341 341 341 342 342 341 340 340 338 338 339 339 337 335 334 333 331 330 329 328 328 326 325 326 326 328 328 327 326 325 324 324
333 331 334 335 339 337 336 338 339 340 340 340 339 339 339 339 339 339 338 337 338 338 338 335 334 333 332 331 330 328 327 328 326 325 325 325 327 327 326 325 324 323 322
335 334 334 333 331 329 335 333 335 337 338 338 338 337 337 337 337 336 335 337 339 338 337 334 333 332 331 330 328 327 326 327 325 325 325 326 327 327 326 325 324 322 322
330 331 329 330 326 328 330 328 333 337 336 337 337 336 334 337 334 331 331 335 337 335 333 333 332 331 329 328 328 326 325 324 325 325 325 327 327 327 326 324 323 322 321
324 326 326 326 327 326 328 327 328 330 332 335 337 338 334 334 331 328 330 331 332 333 333 332 331 330 327 325 325 324 323 325 325 325 325 328 327 326 325 323 322 321 320
321 323 325 324 324 325 325 326 325 324 328 332 337 334 333 330 331 329 327 327 329 331 331 330 328 326 326 324 323 323 324 324 324 325 325 327 327 326 325 323 322 320 319
321 323 323 322 323 325 323 322 321 324 327 328 335 332 329 328 327 327 324 324 323 324 326 328 324 324 325 324 323 323 324 324 324 325 325 326 327 326 327 324 323 320 319
322 322 321 322 322 322 321 322 321 323 325 326 332 330 326 324 324 324 323 321 320 321 322 321 322 323 322 323 323 323 323 324 325 324 325 325 326 327 327 327 325 322 320
322 322 321 322 321 321 319 322 322 322 323 326 329 328 326 324 325 322 321 320 320 318 318 319 320 321 321 321 322 322 322 323 325 325 325 325 324 327 327 326 326 325 323
322 322 321 322 321 318 319 319 322 321 322 323 328 328 326 326 325 324 320 319 320 319 318 315 316 317 317 318 319 319 320 321 322 324 324 324 324 323 325 328 327 325 324
318 321 322 322 320 319 318 319 321 320 320 322 325 327 325 325 325 324 320 320 321 319 317 314 312 311 311 312 313 314 316 316 317 318 320 322 323 323 321 324 326 327 324
319 318 321 320 319 321 321 319 323 323 320 320 323 323 324 322 323 323 322 322 321 320 318 316 313 312 309 309 310 312 312 312 312 311 313 314 317 319 321 321 323 324 325
318 319 318 321 319 320 320 321 323 323 322 322 322 323 324 323 323 324 323 322 321 320 318 317 315 314 311 309 305 306 308 309 309 310 312 312 314 316 316 318 323 323 322
317 318 317 318 318 319 318 318 318 318 319 322 323 324 324 324 323 323 323 322 321 320 320 319 317 314 311 310 307 307 307 308 309 309 310 312 313 314 315 316 318 321 322
315 316 317 318 319 319 319 319 321 318 316 322 324 324 324 324 323 324 323 323 322 321 321 320 318 315 314 310 309 309 307 308 309 309 309 308 312 311 311 314 317 319 320
314 316 316 317 318 319 321 320 319 318 315 315 317 320 322 324 325 325 325 325 323 323 322 321 319 317 313 311 312 313 307 307 309 310 309 307 306 308 309 310 313 312 316
315 317 318 318 317 318 319 319 316 316 312 317 316 315 317 320 321 324 323 323 322 322 321 321 320 318 317 314 310 310 312 311 307 306 303 309 308 304 310 309 311 312 311
315 314 317 317 316 317 318 320 317 314 316 317 315 313 316 318 320 319 320 321 323 323 324 322 320 317 318 316 314 312 310 305 306 308 306 304 305 303 309 309 308 309 310
314 314 315 317 314 315 316 317 317 315 314 312 313 312 312 313 316 317 317 317 322 324 324 324 323 321 319 318 317 312 307 304 304 304 305 307 307 307 309 309 308 306 303

GFSSE_sfc_thetae_060.txt.gz
Theta_e
345 349 347 349 351 351 350 349 349 350 349 349 349 349 350 350 350 348 348 347 347 347 346 345 344 344 344 344 343 342 343 343 343 343 343 343 342 342 341 342 341 340 342
347 348 346 349 350 351 350 349 349 349 349 349 349 350 349 350 349 348 348 346 345 346 344 343 342 343 342 340 341 341 342 341 340 341 342 341 340 340 339 339 340 338 339
344 348 346 346 349 351 350 350 350 350 350 349 349 349 349 349 348 347 345 345 345 345 342 340 339 340 340 339 339 338 338 338 339 339 339 336 333 336 336 335 337 336 335
345 347 345 346 348 350 350 349 349 350 349 349 349 348 348 347 347 345 343 343 343 343 340 339 338 338 338 338 338 337 337 336 336 337 332 333 332 334 334 333 333 333 332
345 344 344 344 345 348 349 348 348 348 347 347 347 347 347 346 345 344 342 341 342 341 337 337 338 338 337 337 336 336 335 335 335 332 329 330 329 332 332 331 331 331 331
339 342 343 343 344 347 348 348 347 346 345 345 345 346 346 345 344 343 341 341 343 342 337 337 337 336 336 335 335 334 333 334 333 329 327 330 329 331 330 328 328 328 327
338 347 344 340 341 344 347 347 346 345 344 343 344 344 345 345 344 342 341 341 341 340 338 336 336 335 335 334 333 332 332 332 329 327 328 328 329 329 329 328 327 326 326
341 340 343 341 341 343 344 345 344 343 343 342 342 343 344 343 342 342 342 341 341 339 337 337 336 334 333 333 331 330 330 330 327 327 327 328 329 328 328 327 326 325 325
341 337 339 338 337 337 338 340 339 341 341 341 341 341 341 340 340 340 340 341 340 338 336 336 335 333 332 331 329 329 330 331 328 327 326 327 327 327 327 326 325 324 323
338 335 337 335 336 334 333 335 337 338 339 339 340 339 338 338 339 338 338 339 339 337 336 335 334 333 331 330 329 328 328 329 327 327 327 327 328 327 326 325 324 323 323
336 336 338 334 335 333 332 334 338 339 337 337 339 337 335 338 336 335 335 337 337 334 333 333 332 331 330 329 328 327 327 327 327 327 326 328 327 327 326 324 323 322 322
329 329 333 331 332 330 330 329 333 335 336 337 337 339 337 338 336 330 336 336 335 333 332 332 331 329 327 325 326 326 326 327 327 327 326 328 327 327 326 324 323 322 321
330 328 330 331 330 331 330 330 329 331 330 331 332 336 337 336 332 332 336 336 335 331 329 329 327 327 326 324 324 325 327 327 327 326 326 328 327 326 325 324 323 322 320
326 330 327 332 329 330 330 327 328 327 328 328 328 332 333 330 330 332 333 333 332 330 329 329 328 329 327 324 324 325 326 326 326 326 326 327 328 326 325 324 323 321 320
324 324 326 327 327 327 324 324 324 325 327 327 327 330 331 330 328 327 329 331 331 331 331 329 329 328 326 324 324 324 325 326 327 326 326 326 327 327 326 325 323 322 321
325 325 324 324 326 326 324 324 323 325 326 326 327 330 330 327 327 325 326 325 327 329 330 328 326 325 324 324 323 324 324 325 326 327 325 326 326 327 328 327 325 324 323
326 327 324 323 325 326 324 323 324 324 325 325 325 330 328 327 328 327 324 324 324 326 326 326 325 325 323 322 322 323 323 324 325 326 326 326 325 324 326 328 327 325 324
324 323 326 323 323 326 325 323 324 323 324 325 326 328 326 325 325 325 323 323 323 323 323 323 323 322 321 320 320 320 321 322 323 324 324 324 324 323 323 326 327 327 325
322 324 323 323 321 320 319 322 323 322 322 324 327 326 326 324 325 324 323 325 325 322 322 321 320 319 317 317 317 318 319 318 320 318 319 322 323 323 323 323 325 325 326
325 321 323 322 321 321 320 321 323 321 321 323 323 327 325 324 326 325 323 325 325 323 322 322 320 319 317 316 312 314 316 316 317 316 316 316 318 320 321 322 324 323 323
323 323 319 320 320 320 318 318 319 319 319 321 321 324 326 325 326 326 325 326 326 324 324 324 322 320 317 317 312 312 312 315 315 314 316 316 317 318 319 319 319 321 324
322 322 320 319 319 319 321 319 320 322 322 321 321 322 325 327 326 326 325 325 325 325 325 325 323 320 319 317 315 316 311 312 313 314 315 315 317 317 317 318 317 318 320
320 318 322 322 319 319 320 321 320 321 318 319 320 319 322 327 328 325 325 326 326 325 324 325 324 322 319 319 320 318 314 312 317 317 315 315 315 316 317 317 315 318 319
321 321 322 322 322 321 322 319 319 315 316 317 320 322 323 326 327 326 324 327 327 327 325 326 326 324 324 320 319 319 321 319 314 312 315 314 315 309 314 313 315 317 317
322 321 320 321 322 320 321 321 318 317 316 317 319 322 324 324 325 325 325 328 328 328 328 327 326 324 324 323 321 320 318 318 315 311 308 312 311 312 313 314 315 316 317
321 322 319 319 320 320 320 320 319 318 316 316 317 317 318 321 324 325 325 328 328 326 323 320 324 326 326 324 324 323 320 316 314 312 306 307 309 312 311 315 317 317 316

GFSSE_sfc_thetae_063.txt.gz
Theta_e
341 350 348 350 353 351 350 349 349 350 350 349 349 349 350 349 349 348 348 348 348 348 347 347 346 345 345 345 344 345 344 344 343 344 344 344 343 343 343 343 342 339 343
348 351 347 350 352 352 351 349 349 350 349 350 349 349 349 349 348 348 348 348 348 348 346 346 345 344 344 343 343 344 343 342 342 342 343 342 341 341 341 340 340 338 339
346 349 347 347 350 351 351 350 350 350 350 349 349 349 350 349 348 348 346 346 347 347 344 344 343 343 341 340 342 342 341 341 341 340 340 334 335 339 339 337 337 336 336
346 346 347 346 349 349 350 349 350 350 350 349 349 350 349 349 348 347 345 345 345 345 342 342 342 340 338 339 338 338 339 339 340 340 333 333 334 336 337 336 335 334 334
346 346 345 345 346 348 348 349 348 348 348 348 348 349 349 348 347 345 344 344 344 343 339 340 340 338 337 337 336 336 335 335 335 334 329 331 333 332 333 333 332 331 332
345 347 342 343 344 347 347 348 346 347 346 346 347 348 348 347 346 344 342 342 343 342 340 337 338 336 336 335 335 335 334 335 334 329 328 331 329 331 331 330 329 329 328
344 349 344 341 343 346 347 345 345 345 345 345 346 345 345 345 344 342 340 340 341 340 340 337 336 335 335 334 334 334 333 333 327 327 327 327 328 330 330 329 328 327 327
342 345 347 342 341 341 342 342 341 343 344 343 344 343 344 342 341 341 341 340 339 338 338 337 336 335 335 334 332 330 330 332 328 327 326 326 330 329 329 328 326 326 325
341 342 344 346 337 334 333 335 338 341 342 342 342 342 341 340 340 340 340 339 338 337 337 336 335 334 333 332 331 329 328 331 327 326 325 326 328 328 328 327 325 325 324
339 338 340 340 336 336 334 333 334 337 339 340 341 340 339 339 340 340 338 338 338 337 336 335 334 333 331 330 329 328 327 328 326 326 325 326 328 328 327 326 325 324 323
337 338 340 336 335 333 334 332 333 335 338 338 340 338 337 338 339 339 336 336 335 334 334 333 332 331 330 329 328 328 329 326 327 325 325 328 328 327 326 325 324 323 323
330 337 337 336 336 335 334 334 333 333 336 339 342 340 336 339 339 335 336 334 333 332 332 332 331 329 327 324 325 326 327 328 327 326 325 328 328 327 326 324 323 323 322
331 332 335 335 337 335 331 332 334 330 335 340 338 338 336 339 338 336 338 334 332 331 328 327 326 324 323 322 325 327 328 328 326 325 325 328 327 326 325 324 323 322 321
329 327 333 334 333 332 333 328 329 328 329 333 334 333 332 334 333 334 334 332 329 328 327 325 325 328 325 324 326 327 328 327 326 325 326 327 327 326 326 325 323 321 320
327 327 329 332 331 332 331 331 330 328 327 327 329 330 330 330 333 333 334 333 329 330 329 327 327 325 324 325 326 327 326 327 327 325 326 326 327 327 325 325 324 323 321
327 328 330 328 331 330 329 329 330 328 328 327 325 327 328 330 330 331 332 332 330 331 330 328 327 325 323 324 324 325 326 327 327 327 325 326 326 327 327 325 325 324 323
328 328 326 327 327 327 325 324 325 326 326 325 325 327 326 328 330 331 331 332 331 331 331 329 327 326 322 322 323 324 325 326 326 327 325 325 325 325 327 327 326 325 324
328 326 326 326 325 327 326 325 324 324 325 325 325 326 323 327 328 329 327 328 328 330 328 325 324 323 322 321 322 322 323 324 326 326 326 325 324 324 325 326 327 327 326
327 329 326 325 324 325 326 325 325 323 322 322 324 325 325 327 327 327 326 327 329 327 327 325 325 324 321 320 320 321 322 322 323 323 324 325 326 324 324 324 325 325 326
328 328 326 325 324 323 323 323 324 322 322 322 323 325 326 324 325 325 325 327 324 323 322 324 324 323 321 319 317 317 320 320 321 320 320 321 323 323 324 326 325 324 323
327 326 324 323 321 318 320 321 320 319 320 321 323 323 326 322 324 325 325 326 326 322 322 326 322 321 318 319 314 315 316 318 318 318 318 318 318 319 321 321 324 322 324
325 324 322 321 320 318 319 321 321 320 319 320 322 323 325 325 326 327 326 325 325 325 327 325 325 320 319 319 313 312 310 313 316 317 317 317 321 318 318 321 321 322 323
325 323 323 322 320 320 318 320 321 321 320 317 319 320 322 324 325 327 328 327 327 328 326 327 327 325 319 320 321 317 312 310 315 317 318 318 320 319 318 319 320 319 321
324 325 326 324 321 321 321 319 318 319 317 319 318 321 321 321 326 326 324 325 328 327 327 328 327 327 325 320 320 319 323 321 315 312 317 319 319 314 315 314 316 318 319
325 324 324 324 323 322 322 320 319 317 320 320 319 319 319 319 323 322 325 323 324 328 328 329 328 327 327 323 323 321 320 320 322 317 313 313 315 315 315 311 311 316 319
324 325 325 321 321 323 322 320 319 317 319 317 319 318 318 320 321 325 325 324 323 324 325 327 327 328 326 325 325 325 322 318 317 316 313 317 316 316 316 315 312 314 319

GFSSE_sfc_thetae_066.txt.gz
Theta_e
346 347 350 352 352 351 350 350 349 350 349 349 351 351 350 349 349 347 347 347 347 348 348 347 348 345 346 346 345 346 345 344 344 345 344 346 344 344 344 344 342 339 344
349 346 349 351 352 351 351 350 350 350 349 349 350 350 350 349 348 348 348 347 348 349 347 346 346 344 345 344 345 344 344 343 342 343 344 343 342 342 342 342 341 338 341
349 347 347 350 352 351 351 350 350 350 350 349 350 349 349 349 348 348 348 347 348 348 347 346 344 344 344 344 343 343 342 343 341 340 341 335 336 340 339 338 338 337 337
345 347 347 348 350 351 350 349 350 350 350 349 350 350 349 348 349 348 347 346 347 347 345 345 344 342 342 341 341 341 342 340 339 339 331 333 334 338 338 337 336 336 335
344 347 347 346 347 349 349 348 349 348 348 348 348 350 348 349 348 347 345 345 346 346 344 343 341 340 339 338 338 338 337 337 338 332 329 329 330 335 335 335 333 332 331
343 347 342 344 346 349 348 348 347 347 346 347 347 348 349 348 347 346 344 344 344 345 342 340 338 337 336 335 335 335 334 334 334 325 326 330 329 333 332 331 330 330 329
345 349 343 341 344 346 346 347 344 343 345 345 347 347 347 346 346 344 343 342 341 341 341 338 336 336 335 335 335 333 331 333 324 323 323 324 325 331 331 330 329 328 327
344 348 347 342 343 342 341 339 338 340 343 343 346 345 345 344 342 342 341 340 340 339 338 337 336 335 335 334 331 329 329 331 325 322 323 324 330 330 330 328 327 326 325
345 344 345 346 342 335 335 333 330 331 336 342 343 343 342 340 339 340 340 340 339 338 337 336 335 334 334 332 330 328 328 332 322 322 324 323 330 329 329 327 326 325 325
341 342 340 342 338 336 334 331 330 327 328 337 341 340 338 338 340 339 338 338 338 337 336 334 334 334 332 330 328 328 327 330 321 321 322 324 329 328 328 327 326 325 324
338 339 339 338 337 337 334 333 330 330 329 332 340 338 335 337 337 336 335 336 336 334 334 334 333 331 330 328 328 328 328 322 322 321 322 328 328 328 327 326 325 324 324
332 336 338 337 335 333 332 331 331 329 328 324 337 336 335 336 336 335 334 334 334 332 332 332 331 329 326 321 321 325 321 323 321 321 322 328 328 327 326 324 324 323 322
332 335 336 335 335 333 332 333 331 327 329 333 336 335 336 335 334 333 331 330 330 330 327 327 325 321 318 319 320 321 324 323 321 321 324 328 327 327 326 324 323 323 321
330 331 333 334 333 333 332 331 330 328 329 332 334 334 334 332 331 331 326 326 324 324 322 322 320 320 317 319 322 324 323 323 321 321 323 326 327 326 326 325 323 322 321
327 328 331 332 331 330 330 329 328 327 328 329 332 331 332 330 330 329 325 324 323 324 322 319 320 320 320 319 322 322 324 323 321 321 321 326 326 326 325 325 324 323 321
327 327 330 330 330 330 330 329 328 326 327 327 328 328 329 328 330 329 327 322 323 323 324 320 323 320 319 320 321 322 324 323 321 321 321 322 325 326 325 324 324 323 322
326 328 327 329 329 328 328 329 328 327 327 325 325 327 327 327 328 329 328 325 325 324 324 323 324 321 319 319 320 321 322 322 322 321 321 321 322 325 325 326 325 324 323
327 327 326 326 326 326 326 325 326 327 326 325 325 326 326 326 326 328 327 326 326 325 325 323 321 319 318 317 317 318 319 320 322 321 321 321 322 322 324 326 326 326 325
326 327 325 326 325 325 324 324 324 324 325 323 324 325 324 324 325 326 325 326 327 325 325 323 320 319 317 316 317 317 318 318 319 321 322 320 321 321 322 324 324 325 325
327 326 325 325 324 324 324 323 323 322 324 323 323 323 322 323 324 325 324 325 323 324 322 321 319 320 318 316 317 316 316 317 317 317 318 320 320 320 322 322 322 322 323
326 325 325 323 322 321 321 320 318 317 319 320 320 320 321 323 323 322 322 323 321 319 319 320 319 316 316 317 314 312 312 314 315 314 315 315 316 318 318 321 322 322 321
325 324 323 322 319 320 320 320 320 319 318 318 321 320 322 322 321 321 322 321 322 321 319 319 316 314 315 315 310 309 305 307 311 313 312 313 313 314 316 317 320 320 319
324 324 323 322 319 319 321 321 320 319 318 317 319 320 320 320 320 319 322 321 321 322 320 319 320 317 314 314 314 310 305 303 307 310 311 311 311 313 313 314 314 315 316
324 324 323 321 319 318 320 319 317 316 314 315 318 320 320 321 320 320 322 322 321 322 322 322 323 320 319 313 312 315 316 316 310 306 309 311 313 312 313 313 313 316 316
324 324 323 322 320 319 319 319 318 317 317 317 317 318 319 319 321 322 323 323 324 322 323 322 321 321 321 318 316 316 314 315 315 311 305 307 310 311 311 312 311 310 313
323 323 323 322 320 321 319 319 318 317 317 316 315 316 317 317 318 320 322 322 321 322 322 322 322 321 322 320 319 318 317 314 312 311 308 309 307 309 311 311 309 309 310

GFSSE_sfc_thetae_069.txt.gz
Theta_e
343 348 349 350 350 351 350 350 349 348 350 351 351 350 350 350 349 348 347 347 347 348 348 348 348 347 348 348 347 347 347 346 345 346 346 347 345 345 343 344 343 340 345
344 348 349 350 350 351 351 350 349 348 350 351 351 350 349 349 348 348 348 347 348 349 347 346 346 345 345 345 346 345 345 344 343 344 344 344 343 343 342 341 342 340 342
342 346 350 350 350 350 351 350 350 349 350 351 351 349 349 348 348 347 347 348 349 349 347 343 344 344 345 346 344 343 343 342 341 341 341 336 337 341 341 340 339 339 339
343 344 347 350 350 349 350 350 350 350 350 350 350 349 348 349 349 349 348 347 348 347 346 345 344 343 344 343 343 342 341 340 338 338 335 335 336 340 339 338 337 336 336
340 343 345 347 349 349 349 349 349 349 348 349 349 349 349 349 350 348 346 345 346 347 345 344 343 342 342 341 341 340 340 338 335 332 330 331 333 337 337 336 334 334 333
337 344 342 344 348 349 349 349 348 348 346 347 347 348 349 349 349 346 345 345 346 346 343 342 341 341 338 337 338 337 335 334 330 325 329 331 330 334 333 332 330 330 330
336 341 341 341 346 348 347 348 346 346 346 346 346 347 347 348 347 345 343 344 344 344 343 341 340 338 336 336 335 333 333 330 323 322 323 327 328 332 331 330 329 328 328
339 340 340 341 343 344 345 344 343 342 343 343 344 345 343 345 344 343 342 342 342 340 339 339 337 336 336 334 332 330 331 328 324 322 322 324 330 330 330 329 328 327 327
337 337 338 338 337 336 336 335 334 336 334 336 340 341 341 341 341 342 341 341 340 339 338 337 336 335 334 332 329 328 329 328 321 322 323 322 329 329 329 328 326 326 326
335 334 334 334 332 330 331 332 333 335 335 330 332 338 339 340 340 340 339 339 338 337 336 336 335 333 332 329 327 329 328 327 321 320 320 323 329 328 328 327 327 326 325
332 332 332 332 331 330 329 330 332 334 334 331 332 327 335 336 336 336 336 336 336 335 335 334 333 331 329 328 328 328 326 320 320 320 320 328 328 328 328 326 326 325 324
327 329 331 331 328 328 330 327 326 328 329 327 327 328 335 334 333 334 334 334 334 333 333 332 331 329 325 319 318 323 320 320 320 320 321 328 328 328 327 326 325 324 323
327 329 330 329 328 326 326 326 325 325 323 322 322 323 335 333 333 332 331 331 330 331 327 326 325 321 318 317 317 317 319 320 320 321 324 328 328 327 327 325 324 324 322
324 326 328 329 329 328 329 327 325 324 325 322 322 323 333 331 330 329 327 327 327 325 322 320 318 317 316 317 318 319 319 319 319 320 323 326 327 327 326 325 324 323 322
323 324 326 329 329 327 325 324 325 325 326 326 330 332 332 330 328 325 324 323 322 321 318 316 316 317 314 315 318 320 319 319 319 320 318 325 326 327 326 325 324 323 321
323 323 325 328 328 326 324 324 326 325 325 329 330 330 330 330 326 322 321 320 320 320 317 315 316 314 314 316 318 321 319 319 318 318 318 321 324 326 326 325 324 323 322
322 324 323 326 327 326 326 323 322 325 327 327 327 328 329 329 326 321 320 319 320 319 316 316 316 317 316 318 317 320 320 319 318 318 318 319 321 323 324 325 325 324 323
321 324 325 326 324 323 323 324 323 325 326 326 326 327 327 329 328 325 321 320 321 320 318 318 318 317 315 315 314 317 320 319 318 318 319 319 319 320 322 325 326 325 324
322 323 323 323 323 323 320 324 322 323 324 325 326 326 325 326 328 327 323 322 323 321 320 319 319 316 315 314 315 314 315 319 318 319 318 318 318 319 319 323 324 324 325
323 322 321 323 323 322 322 323 323 324 322 323 324 325 325 324 325 326 325 324 324 322 320 320 319 315 315 316 317 315 314 315 318 317 318 319 319 319 320 319 321 321 323
322 321 322 322 322 321 320 319 319 318 322 321 323 324 323 323 323 324 323 323 321 323 319 319 317 316 313 314 311 310 311 313 313 314 317 317 318 319 319 320 320 320 321
320 321 322 321 321 321 320 320 319 319 321 322 322 322 322 323 322 321 323 322 319 322 319 317 314 312 313 313 309 308 304 306 310 311 311 313 315 317 319 319 320 320 320
319 320 320 319 320 320 320 320 319 318 318 318 318 319 320 321 320 320 322 321 320 320 318 316 314 312 310 311 312 308 303 302 304 306 308 308 310 310 312 316 320 320 320
319 320 320 319 319 319 321 319 317 315 313 316 316 318 318 319 319 318 320 319 319 320 317 316 317 314 314 309 310 313 313 312 305 303 306 307 307 309 309 309 313 318 319
320 319 319 318 318 319 320 319 317 315 316 316 317 316 317 318 317 318 318 319 317 318 318 318 318 317 317 314 310 311 311 312 311 307 302 305 306 309 310 311 312 312 314
319 318 318 317 317 318 319 319 317 315 314 312 314 316 317 317 317 319 317 320 320 318 319 318 318 318 318 317 315 314 312 310 309 308 305 304 304 306 308 309 309 310 310

GFSSE_sfc_thetae_075.txt.gz
Theta_e
341 345 348 350 350 350 349 349 349 350 351 353 353 353 353 352 351 350 349 350 350 351 351 350 352 351 349 349 348 348 348 346 346 346 346 346 346 345 345 345 344 341 346
342 346 347 349 350 349 349 349 349 350 351 352 352 352 352 351 351 350 350 350 351 351 349 349 352 350 349 348 348 347 347 345 345 345 345 346 345 344 344 344 344 342 344
343 345 346 348 349 350 349 349 350 350 351 352 351 351 351 350 350 349 349 349 349 350 349 348 349 349 347 347 346 345 345 344 343 343 342 337 338 343 343 342 343 343 342
344 345 345 347 348 349 349 349 350 351 351 351 350 350 349 349 349 349 348 348 348 350 349 349 348 347 346 345 344 343 343 342 341 340 335 336 337 342 342 341 341 340 341
343 345 345 347 347 349 349 348 349 349 349 349 349 349 349 349 348 348 347 347 348 348 348 348 347 345 344 341 341 341 340 339 338 335 332 334 335 338 340 339 337 336 336
340 345 344 344 346 348 348 348 348 348 347 347 347 348 348 348 348 347 346 346 347 346 347 347 345 343 341 339 338 338 337 336 334 331 332 335 334 338 337 334 333 333 333
336 340 343 342 345 347 349 348 347 347 346 346 346 346 346 348 348 347 345 345 345 345 346 345 342 341 339 338 337 335 334 333 327 327 328 330 332 335 334 333 332 331 331
335 336 340 344 345 346 347 346 343 343 345 345 345 346 346 346 345 345 345 344 343 342 342 341 340 339 337 336 334 332 331 330 325 326 328 329 332 334 333 331 328 328 328
334 335 336 339 345 344 342 342 340 340 340 341 340 338 338 339 341 342 342 342 342 342 340 339 338 335 336 335 333 330 329 328 320 322 326 327 331 331 331 328 328 327 327
331 331 332 332 331 333 335 336 336 337 336 336 335 330 329 336 338 338 339 341 340 340 339 338 335 334 335 333 331 329 328 326 318 318 324 325 330 329 329 327 327 326 326
328 329 329 328 327 328 333 336 337 338 334 334 335 334 331 333 335 335 337 338 338 337 336 335 333 332 332 331 330 328 326 319 318 317 322 330 329 330 328 327 326 325 325
324 325 329 329 326 326 332 334 334 334 332 331 332 331 330 332 333 334 334 335 335 335 334 333 331 331 328 325 325 325 319 319 318 316 321 328 327 328 328 326 326 325 325
324 324 328 329 328 328 327 328 330 332 331 329 329 329 329 327 331 333 332 332 331 333 329 327 325 324 323 322 318 318 318 318 317 316 323 326 328 328 328 326 326 325 324
324 324 327 326 328 328 327 327 325 327 327 325 325 328 323 323 327 330 331 328 328 327 324 323 318 319 319 319 318 317 317 318 317 318 321 325 327 327 327 327 326 325 324
323 323 327 328 324 323 323 323 323 324 325 325 325 325 323 324 327 330 329 327 326 325 322 319 316 316 317 317 317 317 317 318 317 319 319 326 327 327 327 327 326 324 324
323 322 327 328 327 324 325 323 323 322 323 323 323 325 324 327 330 329 327 325 324 323 320 317 314 314 317 317 316 317 317 317 317 316 318 321 325 326 327 326 325 325 323
323 321 323 327 326 323 324 322 325 323 325 321 323 323 326 328 330 328 326 323 321 318 317 314 312 312 314 317 316 317 317 317 316 315 316 317 320 323 325 326 325 324 324
320 320 321 326 322 320 318 321 323 324 325 326 324 323 324 328 329 327 324 320 318 315 314 314 312 311 313 316 315 316 316 317 316 315 316 316 316 318 322 324 325 325 323
320 320 320 320 319 319 319 321 324 324 325 327 327 325 325 326 326 323 321 319 315 314 314 313 311 312 312 314 314 314 313 315 315 317 315 315 315 315 316 322 323 323 324
321 321 320 320 320 322 323 322 322 322 323 326 327 326 324 323 322 320 318 316 316 313 311 312 311 310 312 314 316 313 312 312 315 315 315 316 315 315 315 317 318 319 322
320 319 319 318 318 320 321 321 318 319 321 323 325 327 324 322 321 318 318 316 316 311 312 313 312 310 309 311 309 309 309 311 312 313 314 315 315 316 315 316 317 317 319
319 319 319 318 318 320 320 320 320 320 321 322 324 324 326 324 321 318 319 316 315 313 313 314 313 311 311 312 310 309 305 308 311 313 313 315 314 317 316 316 316 317 317
317 317 318 317 318 319 319 319 318 319 320 319 320 322 323 325 323 319 320 318 317 315 316 316 314 314 310 310 312 309 303 304 307 308 311 314 314 314 316 316 316 317 317
317 318 319 320 317 318 319 317 317 316 316 318 320 321 322 324 324 321 320 321 320 318 317 317 315 314 313 311 307 310 309 308 306 302 307 312 314 313 314 315 316 317 317
319 319 320 319 319 318 317 317 317 315 316 318 319 319 320 320 321 322 322 319 319 320 318 318 314 312 312 313 308 307 308 310 308 305 302 304 306 311 314 314 315 316 317
319 318 317 316 316 318 316 315 315 315 315 313 317 317 318 319 318 319 321 320 319 319 318 317 317 315 312 313 313 310 309 308 308 307 303 304 304 305 309 311 312 314 316

GFSSE_sfc_thetae_081.txt.gz
Theta_e
343 348 347 347 348 350 351 351 351 352 353 353 353 354 354 354 354 353 353 352 352 353 354 351 353 352 350 350 351 351 350 348 348 348 349 349 348 348 347 347 347 345 347
347 349 346 346 348 350 351 351 352 352 353 354 353 353 353 354 353 352 352 352 352 353 352 352 353 353 351 350 350 349 348 346 346 346 347 348 347 346 346 346 346 344 346
347 348 349 346 347 350 350 351 352 354 354 354 353 353 353 353 352 351 351 351 352 353 353 352 353 351 349 349 347 347 346 346 345 345 346 344 344 346 345 345 345 346 345
347 347 349 346 347 349 349 351 352 354 354 354 353 353 353 352 351 351 350 350 351 352 353 350 351 349 348 347 346 345 345 344 343 343 342 343 342 345 345 344 344 344 343
345 346 347 346 346 348 349 349 350 349 352 352 352 353 352 352 351 351 349 349 351 352 353 351 349 349 346 344 343 343 342 341 340 340 339 342 342 343 344 342 342 342 342
345 346 345 344 345 346 348 348 349 349 348 349 350 351 352 351 351 348 347 349 350 352 352 350 348 346 344 342 341 341 340 339 339 339 341 342 340 340 340 338 340 340 340
345 347 348 343 345 346 347 348 348 348 347 346 349 349 348 350 348 347 345 348 349 349 348 347 346 344 342 341 340 339 337 337 340 340 340 339 339 339 338 336 336 336 335
342 344 344 345 345 344 345 346 345 345 345 347 347 348 348 346 344 343 343 343 343 344 344 344 343 342 340 339 338 335 334 335 337 338 338 338 338 337 336 334 333 333 333
346 344 341 344 347 343 341 342 342 342 343 342 343 344 341 337 339 340 339 341 342 343 341 342 341 340 339 337 335 333 332 334 336 336 335 336 338 336 334 333 332 331 331
343 345 343 343 344 349 349 340 340 341 340 339 339 337 336 335 334 335 337 338 339 342 341 341 339 338 337 335 333 331 331 332 335 334 334 335 336 334 332 330 328 328 329
338 341 343 340 343 346 345 344 340 340 338 337 338 335 334 336 335 335 335 336 337 338 338 338 337 335 333 332 332 330 329 332 332 332 332 334 334 332 329 330 328 328 328
331 334 338 337 339 340 338 341 344 342 341 335 335 334 335 335 335 333 332 334 335 336 336 336 335 332 333 333 331 327 330 330 330 330 329 331 331 331 331 330 328 327 326
333 331 336 335 335 336 337 338 337 337 337 333 332 331 334 334 333 331 333 335 334 335 336 336 334 334 334 333 330 330 329 329 328 328 327 330 332 331 330 327 327 326 326
333 334 333 334 334 335 336 333 334 334 334 331 330 331 333 333 332 333 334 334 332 331 332 336 334 333 332 330 329 328 328 327 327 326 326 328 330 329 327 329 328 328 327
331 333 331 332 333 333 333 332 333 333 332 332 331 329 333 332 332 333 333 334 330 328 329 333 331 330 329 328 328 327 326 326 325 325 325 326 328 330 330 330 330 328 325
330 331 330 330 332 333 332 331 331 332 332 331 330 331 330 330 333 333 333 333 331 326 328 331 330 328 327 327 326 326 325 325 325 325 324 327 326 328 330 330 329 327 325
329 331 328 330 333 331 329 331 330 328 328 328 329 331 329 330 330 331 331 331 331 325 323 328 328 327 326 326 325 325 325 324 323 324 326 326 325 324 327 328 327 325 325
329 329 329 331 331 330 329 328 327 326 325 325 327 328 328 329 331 331 330 329 329 324 322 324 325 324 324 323 323 323 323 323 324 325 325 326 325 322 324 325 326 326 326
329 329 328 329 329 327 327 327 328 327 327 325 325 326 326 327 329 329 329 329 328 322 322 323 323 323 321 322 321 322 323 322 324 324 324 325 326 325 325 323 323 324 325
328 329 327 327 329 326 325 325 325 326 327 327 325 326 327 328 327 329 327 324 325 322 321 321 321 323 322 322 319 320 321 323 324 323 324 324 324 325 325 325 324 323 322
327 326 324 325 324 322 321 321 322 321 324 326 327 328 327 326 327 325 325 322 323 321 320 321 321 321 320 323 319 317 319 321 321 322 324 322 322 324 325 324 324 323 322
324 325 322 323 323 322 323 322 322 323 324 325 328 327 327 325 326 326 321 322 321 320 322 320 320 320 320 321 318 317 311 314 318 320 321 322 322 322 322 323 323 323 323
324 323 322 322 323 322 324 325 322 322 323 322 323 322 321 324 325 323 321 320 319 321 319 319 320 321 317 320 322 318 311 311 315 319 319 321 322 321 322 321 322 322 323
324 325 322 322 322 322 326 324 320 318 318 321 323 323 321 321 320 320 319 318 317 320 319 318 318 320 321 317 319 318 322 320 314 312 317 319 321 320 322 321 322 322 323
325 323 321 320 321 322 325 324 321 319 320 322 322 322 322 320 321 319 318 315 316 318 319 318 317 318 321 320 318 317 317 318 320 316 311 313 318 320 321 321 322 322 322
324 321 319 318 319 320 322 322 320 321 319 318 320 320 320 321 320 320 318 317 316 317 317 319 318 318 318 320 318 318 316 315 313 314 313 315 315 317 318 321 321 321 321

GFSSE_sfc_thetae_084.txt.gz
Theta_e
346 349 348 349 351 351 352 352 352 353 354 353 354 354 354 354 354 354 354 354 354 355 354 353 353 351 351 350 350 352 351 350 349 350 349 350 349 349 347 348 347 347 348
349 352 346 348 350 351 352 352 353 353 354 354 354 354 354 354 354 354 354 354 354 355 354 352 352 352 351 351 351 349 349 348 348 348 349 349 348 347 347 347 347 346 347
350 354 351 346 349 351 352 352 353 354 354 354 354 354 354 354 354 353 352 352 353 354 354 352 352 352 351 350 348 348 348 347 346 346 346 346 346 347 346 346 346 346 345
350 353 353 345 348 350 351 352 353 354 355 354 354 354 354 353 353 352 351 351 352 353 354 353 352 351 350 348 347 347 346 345 345 345 346 343 344 346 345 345 345 345 345
349 351 352 346 347 349 350 351 352 353 353 352 353 354 354 353 352 351 350 350 352 353 354 352 351 350 348 345 345 344 344 343 343 343 344 343 343 345 345 345 344 343 343
348 350 347 344 346 348 349 350 350 350 350 350 352 353 353 350 349 351 349 351 352 352 351 351 349 348 345 343 342 342 341 341 341 344 343 343 343 343 344 342 342 342 342
348 351 352 342 344 346 349 350 349 348 348 349 351 348 348 347 350 348 347 346 349 349 348 347 346 345 343 342 341 340 339 339 341 343 342 341 341 341 341 340 338 339 338
349 352 352 346 344 345 346 347 346 347 346 346 347 347 348 348 345 344 343 344 345 345 344 344 344 343 342 341 339 338 337 338 340 340 341 340 339 339 339 337 336 336 335
351 352 350 350 349 342 341 343 343 344 345 344 346 344 343 342 341 342 341 342 341 342 342 343 343 341 341 339 337 335 335 337 339 338 337 337 339 337 335 334 334 334 334
351 351 347 347 349 348 347 341 342 342 342 340 343 338 338 340 340 340 339 339 337 340 341 341 340 339 337 336 334 333 333 335 337 338 336 336 337 336 334 332 332 332 332
347 350 351 346 347 349 350 348 343 343 341 340 340 337 337 343 343 337 337 337 338 338 340 340 338 337 334 333 333 332 332 336 336 334 335 335 336 334 331 330 329 330 330
341 346 349 346 347 347 346 349 348 350 349 347 346 342 343 344 341 339 336 336 336 337 338 337 335 334 334 338 336 332 335 335 334 333 333 333 335 332 331 329 329 329 328
339 342 345 344 345 349 345 345 346 345 345 346 345 341 341 341 338 335 335 335 341 336 335 335 335 340 338 337 335 335 334 336 333 332 330 331 333 332 332 330 329 328 327
337 340 342 342 343 346 342 342 342 339 339 341 343 343 338 337 338 337 332 334 336 334 333 333 339 339 337 336 335 334 334 332 331 330 330 330 332 331 331 329 328 327 327
336 339 340 342 342 339 338 338 337 336 337 338 340 340 338 335 336 334 333 336 337 334 333 333 338 336 335 334 334 333 332 331 330 328 329 328 329 331 328 328 329 329 328
333 338 341 340 341 342 343 337 335 337 336 337 338 338 336 333 335 333 334 336 334 331 332 332 335 334 334 333 333 332 331 330 328 328 327 327 326 328 330 329 330 329 326
331 337 340 339 340 340 340 340 338 335 337 336 335 336 334 335 336 335 336 336 333 333 330 331 334 335 332 331 331 331 329 328 326 326 327 326 326 325 327 330 330 328 326
332 335 339 336 339 338 338 337 337 334 335 335 334 335 333 331 332 332 332 334 333 331 331 329 334 330 330 329 328 328 327 326 326 326 326 327 326 325 326 327 328 327 327
333 335 337 337 337 338 336 334 335 332 331 331 332 332 332 332 331 331 334 335 332 329 331 326 330 330 328 328 327 327 326 325 326 325 325 326 327 324 327 324 324 324 326
333 336 337 336 338 335 329 330 331 331 330 328 327 328 329 329 330 332 331 331 329 328 325 326 327 329 329 326 324 324 326 325 325 324 323 325 326 327 327 327 324 323 322
332 335 336 333 336 331 328 328 327 328 328 328 329 329 330 329 328 328 328 328 326 324 323 324 328 327 325 327 322 321 322 323 324 323 325 325 325 326 326 326 325 324 323
330 334 334 332 332 332 331 330 328 327 328 329 330 332 333 331 331 328 326 325 325 323 321 322 326 324 325 326 321 320 313 318 321 323 324 324 326 325 324 324 325 325 325
329 333 331 331 333 330 332 329 329 328 327 326 328 330 329 328 327 326 326 324 324 322 319 320 326 326 322 325 326 320 313 312 317 321 323 323 324 324 324 325 325 325 325
328 333 331 331 332 329 330 328 327 324 321 325 326 326 328 326 326 325 325 324 323 322 320 321 325 326 325 322 324 323 324 321 315 314 322 323 324 323 325 324 324 324 324
328 332 330 328 329 329 327 330 326 325 324 327 326 325 323 322 322 322 322 322 321 322 321 321 325 327 327 325 322 323 323 323 323 317 314 318 323 324 325 325 325 325 325
328 331 327 325 325 327 328 329 327 325 325 324 324 321 321 321 321 319 318 319 320 319 320 321 327 326 325 325 324 324 321 320 319 318 316 318 318 322 324 325 326 326 326

GFSSE_sfc_thetae_087.txt.gz
Theta_e
343 350 349 352 352 353 353 353 353 352 353 354 354 355 355 355 355 355 354 354 355 356 357 354 353 352 351 351 350 353 352 351 350 351 351 351 350 349 348 349 348 346 348
347 350 347 350 351 352 353 353 353 353 354 354 355 355 355 355 355 355 354 354 355 357 355 354 352 351 351 350 352 351 350 349 348 349 350 350 349 348 347 348 347 346 348
348 351 350 348 350 352 352 352 354 354 355 354 354 355 354 354 352 354 353 354 355 356 354 352 351 351 351 350 349 349 349 348 347 347 348 345 346 348 348 346 347 347 346
346 351 351 347 349 351 352 353 354 355 355 354 354 354 354 354 354 352 352 352 354 355 354 352 352 352 351 348 348 347 347 346 346 346 345 342 344 346 346 346 346 346 346
342 348 352 346 348 351 351 352 353 353 353 353 353 354 354 354 354 352 349 351 353 354 355 353 351 350 348 346 346 346 345 344 344 344 344 343 343 346 346 345 344 344 344
343 346 345 344 347 350 351 351 352 352 351 351 352 353 354 351 350 348 347 349 352 352 353 352 351 348 345 344 344 344 343 343 342 341 341 343 343 344 344 344 344 344 343
345 348 352 343 346 348 350 351 350 349 350 350 351 352 350 350 348 349 347 349 350 349 348 347 346 345 344 342 343 342 341 341 340 342 341 343 342 343 344 342 341 342 342
346 350 353 345 345 346 347 348 348 347 348 349 348 348 349 347 347 346 345 344 343 341 343 343 343 344 342 342 340 338 338 338 340 340 342 342 342 342 341 339 339 340 338
350 351 353 351 348 343 343 344 344 346 346 346 344 345 344 343 343 344 343 343 342 341 341 342 342 342 342 338 337 336 337 334 339 340 340 338 341 340 340 338 337 336 336
350 352 352 353 351 350 349 342 343 345 345 344 345 341 340 341 342 341 341 341 340 339 340 341 340 340 337 336 335 334 332 333 338 337 338 337 338 338 337 336 335 335 334
347 349 351 349 351 351 348 347 343 343 343 341 342 339 337 344 345 341 339 338 338 337 339 340 339 337 335 333 333 334 333 337 336 334 338 336 338 336 334 333 332 332 332
342 347 350 348 347 349 346 350 348 346 347 347 345 346 344 345 344 341 338 336 336 336 337 338 337 335 334 340 338 333 337 337 334 333 334 335 336 334 332 331 330 330 330
340 343 347 349 348 349 346 349 347 346 348 348 348 346 346 346 344 341 337 337 338 337 336 337 336 338 339 340 340 339 336 335 333 331 332 334 335 333 331 330 330 329 329
337 340 345 348 345 348 345 344 345 347 348 346 345 346 346 344 342 340 337 336 337 341 338 335 335 338 339 338 338 336 334 334 333 333 331 331 333 333 332 330 330 329 327
334 338 344 345 346 346 345 343 344 345 344 343 345 344 346 343 340 339 336 337 338 340 334 330 331 336 338 337 336 335 330 332 330 330 330 329 331 333 331 330 328 327 328
329 337 344 344 345 345 344 342 340 342 341 341 341 342 343 343 340 339 337 337 339 339 336 330 331 332 337 336 333 332 330 330 329 329 329 329 327 329 330 329 329 330 329
324 332 342 344 345 344 343 343 339 341 337 337 338 342 341 340 338 339 337 338 335 336 337 330 330 331 334 332 329 330 329 329 327 326 327 328 327 325 327 330 331 330 327
323 326 339 342 343 343 343 342 341 337 337 337 339 340 339 337 337 337 336 336 337 334 334 328 329 327 328 328 328 326 327 327 326 326 326 326 326 324 326 327 329 329 328
322 328 336 343 341 342 342 341 340 338 335 337 339 337 336 336 336 336 335 334 334 333 332 330 328 327 327 326 326 326 326 324 324 324 325 326 327 326 326 325 325 325 327
324 330 336 342 340 341 341 338 336 333 334 334 334 334 336 334 333 332 331 331 330 331 331 330 326 326 327 326 324 323 325 325 325 324 324 325 326 326 326 327 326 323 323
327 332 336 340 339 340 335 331 331 328 331 331 332 333 333 333 332 331 330 330 329 330 328 328 326 324 323 325 322 322 323 325 325 324 325 323 325 324 326 327 325 323 323
328 333 336 338 338 338 334 334 333 332 330 333 333 331 331 329 330 329 329 328 327 327 326 325 325 322 323 326 321 318 314 317 322 324 325 324 326 324 323 326 326 324 325
327 332 335 337 338 337 336 334 333 331 330 329 328 329 334 333 334 332 331 328 325 327 324 324 324 323 319 324 326 320 313 311 317 321 324 323 325 323 324 324 324 324 325
327 332 335 336 337 336 336 333 330 327 324 327 328 330 331 332 331 332 331 328 326 324 323 323 325 324 323 322 323 323 323 321 315 314 321 322 324 323 326 324 324 324 325
326 330 335 335 335 335 334 333 330 328 327 328 328 328 328 328 327 328 326 326 324 324 323 323 322 323 324 325 321 323 322 322 322 317 313 318 321 324 324 326 325 325 325
322 331 335 333 333 332 333 332 331 328 326 325 327 326 325 326 323 321 321 324 323 322 321 322 322 322 324 325 324 324 322 319 319 318 316 318 318 321 324 326 326 326 326

GFSSE_sfc_thetae_090.txt.gz
Theta_e
345 349 351 352 353 354 354 352 352 353 354 354 355 355 355 355 355 355 355 354 355 357 358 356 355 353 352 351 351 351 351 351 350 351 351 352 351 349 350 348 348 345 349
347 349 349 351 352 354 354 354 352 352 354 354 355 355 355 355 355 355 355 354 355 357 356 354 353 352 352 351 351 351 350 349 348 349 350 351 350 348 348 348 347 346 348
346 349 349 349 352 352 353 353 354 354 354 355 355 354 355 355 355 354 354 354 355 354 355 353 352 352 351 351 349 349 348 348 347 347 348 342 344 348 348 347 348 348 347
346 347 348 348 350 352 352 352 354 355 355 354 354 355 354 354 354 353 352 353 354 353 355 353 352 352 351 349 348 347 347 347 346 346 343 342 344 347 347 347 347 347 346
346 347 348 347 349 351 351 352 353 353 354 353 353 354 354 353 353 352 349 351 353 353 353 352 352 351 348 346 345 345 346 344 342 342 341 341 341 345 347 346 346 345 344
344 348 343 345 347 350 351 351 352 352 351 352 352 353 354 353 352 350 348 351 350 350 351 352 350 348 345 344 344 344 343 342 342 339 338 342 340 345 345 345 345 344 344
347 350 345 344 346 349 350 351 351 351 350 350 351 352 352 351 350 349 348 349 348 346 346 346 345 344 344 343 343 342 341 339 339 336 338 340 340 344 345 344 344 344 343
348 352 347 345 346 347 348 348 348 348 348 349 350 351 351 349 347 347 346 346 344 342 340 341 340 343 343 343 342 340 339 338 339 337 338 339 342 343 344 342 342 341 341
351 353 349 347 346 344 343 345 345 346 346 348 348 348 347 346 345 345 344 343 343 340 338 339 341 340 340 337 339 337 333 335 337 337 339 337 341 343 342 341 339 339 339
353 354 351 349 347 346 345 342 344 345 345 345 346 343 341 342 343 343 342 342 341 340 339 340 341 341 339 337 336 334 333 335 335 337 338 337 340 341 340 339 338 337 336
349 350 352 350 349 349 348 345 343 345 344 343 343 340 338 344 343 340 339 339 340 339 339 340 340 338 336 336 335 333 332 333 335 335 334 337 339 339 338 337 336 336 335
343 347 349 349 349 349 345 345 344 345 344 345 345 342 344 343 342 340 338 336 335 336 337 337 337 336 336 335 333 332 332 332 332 333 333 336 338 336 335 334 334 333 333
342 344 347 346 347 346 344 346 344 345 344 344 344 344 341 341 341 339 337 335 334 336 335 336 334 335 336 336 334 333 333 331 331 331 333 334 337 335 334 332 331 331 331
338 341 346 346 344 345 345 344 345 344 344 345 344 343 341 340 338 338 336 335 332 333 333 333 333 334 334 336 334 333 331 331 329 331 331 333 334 334 332 331 331 330 329
332 339 343 346 344 346 345 343 343 344 345 344 343 343 341 338 336 337 336 335 333 334 333 332 332 331 331 334 334 331 330 329 331 329 328 330 331 334 332 331 331 330 328
323 335 343 344 344 345 344 343 342 343 343 343 342 341 340 338 337 336 335 333 333 334 332 331 329 328 329 332 332 331 329 328 329 327 327 327 329 331 332 331 329 329 328
319 328 342 342 345 343 343 341 339 340 339 339 339 340 338 338 336 335 334 333 333 334 332 329 328 328 328 331 330 329 330 326 326 325 325 325 325 326 328 329 330 330 328
318 322 342 342 342 343 341 341 338 337 339 338 337 338 338 337 336 334 332 332 333 333 331 327 327 327 328 329 327 327 325 324 322 323 324 324 323 322 325 327 329 330 329
316 322 341 341 341 342 341 342 339 337 336 336 336 336 336 336 335 334 332 332 332 331 330 327 326 325 325 325 325 322 322 322 321 321 323 322 322 321 323 325 326 326 327
315 321 341 341 341 341 341 340 338 335 334 335 333 334 335 335 334 333 332 331 331 329 328 327 326 326 325 325 326 321 320 319 319 318 322 323 321 322 323 324 322 322 324
316 320 340 339 339 339 338 334 332 330 330 330 331 333 333 334 332 332 330 330 330 328 327 327 326 323 323 325 321 317 319 320 318 317 320 321 322 322 322 323 322 321 320
318 324 338 339 338 338 338 334 333 331 330 329 329 329 331 333 331 330 329 328 328 327 327 326 324 321 322 324 318 316 311 315 319 319 319 319 322 320 319 323 321 320 319
322 331 336 338 337 337 337 333 332 330 329 328 328 328 329 330 330 330 328 328 327 327 326 326 324 321 319 322 322 315 310 308 313 318 318 318 319 322 318 322 322 321 319
323 331 334 338 335 337 335 332 329 326 323 326 326 327 329 331 329 329 328 328 327 326 325 325 326 323 321 318 320 320 317 316 310 310 317 318 319 320 319 320 318 320 320
323 329 332 336 335 335 333 333 330 326 326 326 327 327 328 328 329 328 329 328 327 325 324 325 324 323 322 320 319 318 316 317 316 313 309 314 317 318 318 319 319 319 320
322 328 331 334 333 335 333 333 329 327 325 324 324 325 325 324 323 322 324 325 325 325 323 324 325 324 322 321 321 319 317 314 314 314 311 313 313 316 319 319 318 320 319

GFSSE_sfc_thetae_093.txt.gz
Theta_e
344 347 350 353 353 352 352 351 351 352 353 354 355 355 355 355 355 355 355 356 356 358 358 356 356 355 353 353 353 352 351 350 349 350 351 352 351 351 351 349 348 346 350
346 348 348 352 353 353 352 352 351 352 354 355 355 355 355 355 355 355 354 355 356 358 356 354 355 353 353 352 351 350 350 349 348 348 349 350 352 350 349 349 348 347 349
345 348 349 349 352 353 353 352 352 353 354 355 355 355 355 355 354 354 353 354 356 357 355 353 353 351 351 351 349 348 348 347 347 347 348 342 344 350 349 348 348 348 348
345 346 348 349 350 351 352 352 352 354 354 354 355 355 354 354 354 354 353 353 354 355 354 353 353 352 350 348 347 347 347 346 346 345 342 342 344 349 348 347 347 347 348
342 345 347 347 348 350 351 351 352 352 353 353 353 355 354 354 354 353 351 352 354 354 352 351 351 351 348 346 346 346 346 344 343 342 338 340 342 346 348 346 346 347 345
341 345 344 345 347 349 350 350 351 351 350 350 351 354 354 354 354 352 350 352 352 350 349 349 350 348 345 344 344 345 344 342 338 337 338 342 341 346 347 346 345 345 344
342 342 343 343 346 348 350 350 350 350 349 350 350 351 352 352 351 350 349 349 347 347 348 348 347 345 342 342 342 342 339 338 336 337 336 338 340 345 345 345 345 344 343
342 342 343 346 346 347 347 348 348 348 349 347 349 350 351 349 348 348 348 347 345 344 344 344 343 343 342 341 340 337 336 338 337 337 337 338 343 344 345 344 343 342 342
345 341 340 342 345 344 343 344 345 346 345 345 348 348 348 346 345 346 346 344 344 342 341 341 341 340 341 341 338 334 333 337 335 336 338 339 342 344 344 342 341 340 340
345 341 340 340 340 339 339 342 343 344 343 344 347 345 344 343 344 344 343 343 342 341 341 341 340 339 340 339 336 333 334 335 334 335 335 338 341 343 343 342 339 338 338
344 342 341 340 339 338 338 341 343 345 343 343 343 341 338 341 340 340 339 341 340 338 339 339 339 339 338 337 336 333 333 333 334 334 335 338 341 342 341 339 337 337 337
338 342 343 341 340 340 343 339 337 342 342 339 340 338 338 338 337 338 338 338 338 337 337 338 338 336 336 336 334 334 331 332 332 331 334 336 341 341 340 337 337 336 336
340 343 342 342 341 340 338 338 338 338 338 338 338 336 336 338 336 334 334 335 334 336 335 335 335 335 335 333 333 331 330 330 331 331 333 335 339 339 339 337 336 336 335
338 341 343 341 340 339 337 339 338 339 337 337 336 337 334 335 335 334 332 331 329 331 331 332 333 332 334 334 334 331 330 329 330 331 332 333 335 337 335 335 335 334 332
334 339 342 340 339 340 337 338 338 338 338 338 338 337 335 334 334 334 331 332 330 330 329 330 330 331 331 333 333 332 329 328 328 329 330 331 332 334 333 334 333 332 331
314 338 342 340 339 341 339 335 334 339 338 336 336 336 334 334 333 332 332 332 331 330 330 329 330 329 328 331 331 330 328 329 327 328 328 328 329 331 332 332 331 330 329
310 328 340 340 340 340 339 335 334 334 336 334 334 335 334 333 332 331 330 330 331 331 329 328 328 327 327 330 329 329 328 328 327 326 328 327 327 327 329 331 331 329 328
309 312 339 342 339 339 337 335 333 332 332 332 332 332 332 333 332 330 328 328 331 329 327 326 326 325 325 325 325 328 328 327 325 324 325 324 324 324 325 327 328 329 330
308 308 337 340 337 337 336 334 333 331 332 332 331 330 331 332 332 329 328 328 330 328 326 325 325 325 324 325 326 327 325 325 323 324 323 323 321 320 320 324 325 326 328
310 308 336 337 337 337 336 334 332 331 329 329 330 329 330 332 330 329 328 328 329 328 327 325 324 325 324 325 327 326 323 322 322 322 321 322 320 320 321 323 325 322 324
311 309 335 335 336 336 334 333 330 329 329 327 329 331 331 330 328 327 327 326 328 327 325 325 325 323 323 325 321 318 319 317 319 320 321 319 319 320 320 321 322 320 321
310 312 334 335 336 336 335 334 331 328 324 325 328 330 330 328 327 327 327 328 327 325 324 326 325 322 322 325 319 316 311 314 317 315 318 319 318 320 321 321 321 319 317
309 318 334 335 335 335 333 329 327 325 324 321 322 324 329 331 328 327 328 328 328 327 326 325 325 322 319 322 322 316 309 308 312 315 315 318 317 318 319 321 320 319 318
310 330 334 335 334 333 332 330 325 324 321 321 322 324 327 329 329 328 328 327 327 326 325 326 325 322 321 318 321 322 317 315 309 307 313 315 317 319 316 320 320 319 319
316 333 334 333 333 333 330 328 325 322 320 322 321 322 324 325 327 327 327 324 326 326 326 326 324 322 322 319 319 319 316 315 315 310 307 312 315 317 317 318 320 319 319
316 328 333 331 332 331 329 328 325 322 320 321 319 320 322 325 326 325 327 326 325 325 325 325 326 323 321 321 321 319 316 313 313 311 309 311 311 314 316 315 316 317 317

GFSSE_sfc_thetae_096.txt.gz
Theta_e
342 348 350 351 352 352 351 351 351 351 352 353 354 354 355 355 355 355 355 355 354 356 358 355 355 355 353 353 354 352 351 349 349 348 351 351 351 350 350 350 349 348 351
344 348 348 351 352 352 352 351 351 352 353 354 354 354 354 354 354 355 355 356 356 357 355 353 354 353 352 351 351 350 350 348 348 349 349 351 351 350 349 349 348 348 349
344 347 350 349 351 352 352 352 352 353 354 354 354 353 354 354 354 354 354 355 356 356 354 353 353 352 351 351 348 349 348 348 348 348 349 344 345 349 348 348 348 349 349
345 346 348 349 351 351 351 351 352 354 354 354 354 354 354 354 353 353 353 353 355 356 354 352 351 351 350 348 348 347 347 346 345 345 341 342 345 348 348 347 347 347 347
344 346 347 348 349 351 350 350 351 352 352 352 353 354 354 354 353 353 352 353 355 354 354 352 351 349 348 346 345 346 346 345 343 341 338 339 342 346 348 347 346 346 345
342 345 344 345 347 349 350 350 350 350 350 350 352 353 354 354 353 352 350 349 354 352 352 352 350 348 345 344 344 344 343 342 340 336 337 342 341 347 347 345 345 345 344
340 342 343 343 346 348 350 350 349 349 348 349 351 351 352 353 352 350 349 350 350 350 350 351 349 346 344 343 343 343 340 339 336 336 337 337 340 346 346 345 344 345 344
339 340 342 345 346 346 347 347 347 347 347 348 349 350 351 350 350 349 348 347 347 346 346 347 345 344 343 343 342 339 337 338 337 333 337 337 343 345 345 344 343 343 342
339 339 340 342 345 343 343 343 344 345 346 346 347 347 348 346 345 347 347 346 345 344 344 344 344 343 343 342 339 336 335 337 334 335 336 337 344 344 345 343 342 341 340
338 338 338 339 339 338 340 341 342 343 342 343 345 344 344 344 344 344 344 344 343 342 342 342 341 340 341 339 337 334 334 335 333 332 335 337 343 344 344 342 341 340 338
337 337 337 338 338 336 337 341 343 343 341 342 343 343 340 342 341 341 340 341 340 338 340 340 339 337 338 337 336 335 335 334 332 332 334 339 342 343 343 341 340 338 337
336 336 337 337 336 335 340 338 338 341 341 339 340 341 340 338 337 338 338 338 336 335 337 338 337 336 336 335 334 335 333 334 332 331 334 338 341 342 342 340 338 337 337
338 338 338 337 337 337 338 337 339 340 339 338 337 336 335 336 334 334 335 336 334 335 333 335 335 334 334 334 333 331 332 333 331 331 334 336 340 342 341 339 337 337 336
337 339 340 339 338 338 338 336 337 337 337 337 337 335 334 334 332 332 333 331 332 332 330 331 330 330 332 334 333 331 330 332 330 331 332 333 338 341 340 339 338 337 335
335 340 340 340 340 339 338 336 336 336 336 336 335 335 334 334 332 331 330 330 329 330 330 327 327 328 330 333 333 331 330 330 330 331 332 331 333 337 338 338 338 337 335
334 339 340 340 341 340 337 337 336 337 336 335 335 335 333 334 333 332 331 330 329 329 330 329 328 328 327 331 331 331 329 329 329 329 330 330 330 333 334 336 336 335 334
310 337 339 339 339 339 338 337 336 337 336 335 335 333 332 333 333 332 332 331 329 330 328 327 326 326 325 330 329 329 329 328 327 327 328 327 327 327 329 333 333 332 331
305 327 339 340 337 338 337 336 336 337 336 335 334 333 332 332 332 330 330 330 331 330 329 327 326 326 324 325 325 326 327 328 327 326 327 326 325 325 326 328 330 331 330
305 317 337 339 337 337 336 336 335 335 335 334 332 331 330 331 331 330 328 328 331 330 329 327 326 325 323 323 324 325 326 326 325 327 325 324 322 321 322 325 326 325 327
306 307 334 338 337 337 335 334 333 333 332 332 331 330 329 330 330 329 326 327 329 327 326 326 325 324 324 324 325 325 325 325 324 324 323 323 321 320 320 321 322 322 324
304 305 332 336 336 335 333 330 329 329 329 329 329 329 328 330 329 327 326 326 327 326 325 324 323 322 322 324 321 322 320 321 321 322 322 321 319 320 319 320 320 320 322
305 306 325 334 335 335 335 334 331 330 329 329 328 329 328 328 329 329 326 326 326 326 325 325 323 322 322 324 318 316 311 313 317 320 320 320 317 319 319 320 321 319 319
304 307 325 333 334 335 336 333 329 324 322 322 325 328 329 329 328 327 326 325 325 325 323 324 323 322 320 322 320 315 310 308 312 315 317 317 316 317 318 320 320 320 318
309 307 322 332 334 335 334 330 327 327 324 323 325 322 327 330 328 325 324 325 326 326 325 324 325 322 322 319 319 321 318 316 310 309 314 315 316 316 317 318 319 319 318
313 315 329 333 334 334 331 331 328 325 322 322 321 321 321 326 328 327 326 326 325 325 325 325 324 322 323 321 320 318 317 315 315 311 308 311 313 317 317 318 319 319 318
309 314 326 332 333 332 331 328 327 322 321 321 320 320 321 320 324 325 323 326 325 325 322 325 325 322 321 321 321 319 317 314 313 311 309 311 312 313 316 317 318 318 318

GFSSE_sfc_thetae_102.txt.gz
Theta_e
337 346 350 352 352 351 350 350 351 351 353 355 356 356 355 355 354 354 355 355 356 357 357 355 355 355 355 354 355 353 352 351 350 351 352 352 351 350 350 350 349 347 351
340 347 348 351 352 352 351 350 351 352 353 355 355 356 355 355 354 354 354 355 356 357 356 354 354 354 352 353 351 350 350 348 348 350 351 352 350 350 350 350 348 348 349
342 346 348 348 351 351 351 351 351 353 353 354 355 355 355 355 355 354 354 354 356 356 354 353 353 353 352 350 349 349 348 348 348 348 350 345 346 350 349 349 349 348 348
344 345 347 349 350 351 350 350 351 353 353 353 353 354 354 355 354 354 353 354 355 356 354 353 352 352 351 348 347 348 348 348 347 347 343 344 344 349 348 347 348 348 348
343 345 346 348 349 350 350 350 351 351 351 352 352 353 354 354 354 354 352 353 354 355 355 353 352 352 348 346 346 346 347 346 345 343 341 341 344 346 347 348 347 347 347
343 345 344 346 347 349 350 350 350 350 349 349 351 352 353 354 354 353 351 353 355 355 355 354 352 349 345 344 345 345 344 343 340 339 340 342 343 347 347 346 346 346 345
341 343 344 343 346 348 350 350 349 348 347 348 350 351 352 353 353 351 350 351 351 353 353 352 349 346 344 344 344 343 341 340 338 338 338 339 340 347 347 346 345 346 345
340 341 344 346 346 347 347 347 346 346 347 347 348 349 351 350 350 349 349 350 350 350 349 349 346 344 344 344 343 341 339 339 338 337 337 337 343 345 346 345 344 344 344
337 339 342 343 345 344 343 343 343 344 345 345 346 346 348 346 346 348 348 348 347 347 346 346 344 343 343 343 340 338 337 338 336 337 337 337 343 346 345 345 344 344 344
334 338 340 342 341 339 342 341 341 342 343 343 344 344 343 344 345 345 345 346 346 345 346 344 343 343 342 341 338 336 336 337 335 336 336 337 342 345 345 344 343 343 343
331 331 338 338 340 341 336 340 342 343 343 342 344 342 339 341 342 343 342 342 343 341 342 343 342 340 339 339 337 336 336 334 334 335 334 337 341 345 344 343 343 342 341
327 328 335 336 337 336 339 340 342 343 343 342 341 340 340 338 337 339 340 339 340 338 340 340 338 337 337 334 334 336 333 333 333 333 335 337 342 345 344 342 342 341 340
327 329 332 334 335 336 338 339 339 339 338 336 336 336 336 337 336 335 334 337 335 337 334 335 334 334 334 333 332 333 332 332 333 334 334 336 341 345 344 342 341 339 338
331 331 330 331 332 334 337 337 338 338 339 335 336 338 338 339 336 332 334 332 330 330 329 329 329 329 330 330 330 331 331 332 332 332 334 334 338 343 343 343 341 339 338
332 334 332 331 332 333 334 336 336 337 337 338 337 338 340 339 337 334 332 334 329 327 327 326 326 328 329 331 330 330 331 331 331 331 332 332 334 339 343 342 341 340 338
321 331 335 333 333 332 334 334 334 336 336 335 336 336 338 338 336 333 333 334 328 328 326 326 326 326 328 331 330 329 330 330 330 330 330 330 327 333 337 341 341 340 338
306 323 333 335 334 332 333 332 333 334 334 334 334 336 337 337 335 333 332 331 331 329 326 324 324 325 326 329 329 329 329 329 329 328 330 330 329 328 331 336 338 338 338
299 307 327 337 335 333 333 333 332 333 333 333 334 334 334 335 332 330 332 331 329 329 329 327 326 326 324 326 326 327 328 328 328 328 329 329 328 331 329 331 334 335 335
298 300 308 331 335 335 334 334 332 331 332 332 333 333 333 333 331 331 333 331 329 329 329 327 327 327 323 324 324 326 327 327 328 329 328 327 327 327 328 327 328 330 332
297 298 302 315 334 336 337 335 333 332 333 333 333 332 332 332 331 331 332 330 330 328 327 327 326 326 325 324 326 325 325 327 327 327 327 327 326 325 326 326 327 326 327
296 297 299 305 328 335 336 333 332 331 332 333 333 332 331 332 331 331 330 329 329 328 328 328 327 325 324 324 322 322 323 325 325 326 327 326 325 324 323 323 323 324 325
307 306 301 305 321 334 335 335 335 333 334 334 333 332 331 331 331 330 329 328 328 328 327 327 325 323 324 324 319 317 312 315 321 324 325 325 324 323 322 321 321 320 321
304 304 307 309 316 332 334 335 328 331 328 330 331 331 331 331 331 330 328 328 328 328 325 325 325 323 321 323 321 318 310 310 313 317 322 323 322 321 321 321 320 319 319
303 304 305 308 311 328 333 332 330 328 326 328 330 331 332 332 330 330 328 328 328 327 325 324 325 324 323 320 321 321 318 315 310 308 316 318 320 320 319 319 319 319 319
301 303 304 305 309 318 332 332 330 327 328 327 330 329 329 329 329 329 327 326 327 326 325 325 324 323 324 322 321 319 316 315 314 309 309 312 315 317 318 318 319 319 319
298 299 302 304 306 313 331 331 329 327 326 325 327 326 327 327 326 325 325 325 325 326 324 324 324 323 322 322 321 320 319 314 311 311 309 312 313 313 316 317 317 319 319

GFSSE_sfc_thetae_105.txt.gz
Theta_e
341 351 350 352 352 351 351 350 352 353 355 356 355 354 354 355 354 354 355 356 357 358 358 355 354 357 354 355 356 355 353 352 352 351 350 353 352 350 350 351 349 348 351
345 352 348 351 351 352 351 351 351 353 356 356 355 354 354 354 354 354 355 355 356 357 357 354 354 355 356 355 353 352 351 350 349 349 351 353 351 350 350 349 348 348 350
347 351 352 350 351 351 352 352 352 354 356 356 356 354 354 354 354 354 354 355 356 357 356 354 354 354 353 352 350 350 349 349 349 349 351 346 347 350 350 349 349 349 350
348 351 352 349 350 350 350 351 352 354 355 355 356 355 354 354 354 354 353 354 355 356 356 354 354 354 352 349 348 348 348 349 348 348 349 348 346 350 349 348 348 348 348
347 350 351 348 349 350 350 350 351 352 352 353 354 355 355 354 354 354 353 353 355 356 356 354 354 354 349 346 346 347 347 347 345 346 348 348 347 348 349 348 348 348 347
347 350 348 346 348 349 350 350 350 350 349 350 352 354 355 355 354 353 352 353 355 355 355 355 354 350 346 345 345 346 346 344 343 348 347 346 347 348 347 347 347 347 345
347 350 351 344 347 349 350 350 349 348 348 349 350 351 353 354 353 352 351 352 353 354 353 353 351 347 345 344 345 344 343 342 347 347 347 346 346 348 348 347 347 346 346
347 349 351 347 347 347 347 348 346 346 346 347 349 350 351 351 351 350 350 350 350 351 350 349 347 345 344 344 344 342 340 341 345 347 347 346 346 347 347 347 345 345 345
347 349 350 351 349 344 343 343 343 344 345 346 346 347 348 348 347 349 349 349 348 349 346 347 345 344 344 343 342 339 337 339 347 347 346 346 345 346 346 346 345 345 344
343 347 346 347 347 350 352 341 341 342 342 343 345 344 344 344 346 346 345 347 348 347 345 345 343 343 343 341 339 337 336 338 347 346 346 346 343 347 346 345 344 344 344
339 339 342 344 345 347 349 348 344 343 343 342 344 343 342 350 351 350 346 344 344 342 343 343 342 340 340 339 337 336 337 344 345 345 345 340 342 346 345 345 344 343 343
337 337 339 341 342 343 343 349 350 348 349 350 350 349 349 350 350 348 345 340 341 339 341 340 340 338 339 345 343 337 344 345 344 344 345 337 342 345 344 343 343 343 342
336 338 338 337 339 339 340 344 344 345 345 344 349 350 349 348 349 348 347 348 349 341 346 344 343 345 345 345 343 343 343 342 343 343 341 335 340 344 344 343 342 341 341
337 337 339 336 336 337 340 341 342 340 341 342 347 350 348 345 345 346 345 348 348 346 345 346 345 345 344 344 344 342 338 340 341 342 338 331 335 342 343 342 342 341 339
333 340 338 338 335 335 337 340 340 340 341 343 346 347 348 342 342 343 346 346 345 345 344 343 343 342 342 342 342 341 338 339 338 339 338 330 331 337 341 342 341 341 339
312 328 342 339 337 339 337 339 339 340 340 342 345 345 346 346 342 340 340 341 343 343 342 342 341 341 340 340 339 339 339 338 336 333 333 333 328 330 338 341 341 341 340
310 312 330 340 340 340 340 340 340 340 341 338 339 340 339 340 340 339 338 339 339 340 341 340 339 338 338 336 335 338 338 338 336 332 331 332 330 327 328 337 339 340 339
307 309 313 330 341 341 340 340 340 340 340 338 337 337 338 339 340 337 336 336 336 335 337 337 334 334 334 334 332 335 336 335 331 331 331 331 330 331 329 331 334 336 337
307 307 309 315 332 339 340 341 340 339 338 339 337 336 336 337 338 335 336 336 335 332 333 333 332 333 332 331 332 333 334 332 328 329 331 329 329 329 330 330 329 329 333
316 314 308 309 316 337 340 340 339 337 338 336 335 335 336 335 336 336 336 336 334 332 331 331 329 330 330 330 328 329 330 332 331 328 329 329 329 328 328 328 331 333 327
313 314 315 315 311 320 334 336 333 330 333 333 334 337 336 335 334 335 336 335 333 332 330 330 329 327 326 328 326 326 327 330 330 327 331 330 330 328 327 327 331 334 333
309 311 312 314 316 316 327 335 336 334 334 335 335 335 336 336 335 335 335 333 331 330 330 330 328 326 326 326 322 320 314 318 324 328 328 329 329 330 326 326 327 332 333
306 307 308 311 313 317 321 334 338 334 334 332 333 332 333 337 336 335 334 333 330 330 329 330 330 328 322 325 326 320 312 312 316 323 325 327 328 328 329 325 325 329 330
303 304 305 307 310 314 319 327 332 328 327 331 333 333 333 334 334 335 334 333 331 331 331 330 331 329 326 321 324 324 321 321 316 314 319 323 327 325 326 324 323 327 328
301 301 303 303 306 311 314 321 331 331 332 335 335 336 334 333 334 334 333 333 333 332 331 330 329 328 327 324 323 322 320 318 318 316 313 316 319 322 323 322 322 324 327
299 299 298 299 302 306 311 316 327 331 332 331 333 333 332 330 331 332 332 332 332 330 331 332 328 328 326 325 325 324 321 316 316 315 315 317 316 317 320 320 320 322 325

GFSSE_sfc_thetae_108.txt.gz
Theta_e
344 356 351 352 352 353 353 353 354 354 354 354 354 354 355 355 355 355 355 356 356 357 357 357 358 358 355 354 356 355 354 354 352 353 352 353 352 350 351 351 350 348 350
347 357 349 351 352 353 353 353 354 355 355 356 354 355 355 355 354 355 356 356 357 358 358 355 355 356 355 357 356 354 353 351 351 351 353 352 351 351 350 350 350 349 351
349 356 354 350 351 352 353 353 355 356 357 356 355 354 355 355 354 355 355 355 357 357 357 354 355 355 356 355 352 351 351 349 349 351 352 350 349 351 350 350 350 350 350
350 354 354 349 350 351 351 352 354 357 357 357 355 355 355 355 354 354 354 354 356 357 357 354 355 354 354 350 350 350 350 349 348 349 348 346 347 350 349 349 349 349 350
350 352 354 348 349 350 350 351 352 354 355 355 355 355 355 355 355 354 353 354 356 357 357 354 355 355 350 347 347 348 348 347 347 347 346 347 348 349 349 349 348 349 347
349 352 349 346 347 349 350 350 351 351 351 352 353 354 355 355 355 354 352 354 356 356 357 356 356 352 347 346 346 347 347 345 344 348 347 348 347 349 348 349 347 347 346
350 354 355 344 346 348 350 350 350 349 349 351 352 353 354 354 354 352 352 353 355 355 355 355 353 348 345 345 346 346 344 344 348 346 345 347 348 350 348 347 346 345 346
350 354 356 348 347 347 348 348 347 346 347 348 350 351 353 353 352 351 351 351 351 351 352 351 349 346 345 345 345 343 342 342 345 345 345 344 348 348 348 347 346 344 346
354 355 357 356 351 345 344 344 343 345 346 346 347 348 350 349 348 350 350 350 351 349 348 348 347 345 345 344 343 340 339 341 346 345 343 345 346 347 347 346 345 346 345
353 355 356 355 353 356 354 343 342 343 343 344 345 345 345 346 347 348 347 348 348 348 347 346 345 344 344 342 341 339 338 340 347 344 346 345 345 346 347 346 345 345 344
348 350 352 349 350 351 355 351 344 344 343 343 345 344 343 351 353 352 347 345 345 344 344 344 343 342 341 340 339 338 338 345 345 345 345 341 344 345 346 345 344 344 343
344 346 347 347 348 348 347 354 353 353 351 351 350 351 350 351 352 349 346 343 343 341 341 341 341 339 340 346 345 339 345 343 343 344 346 340 342 345 346 344 344 343 342
342 345 347 346 347 347 346 350 349 350 351 352 353 353 351 350 352 350 350 350 351 343 348 345 345 346 345 345 346 344 344 343 348 345 344 336 340 344 345 344 343 343 342
340 343 346 347 348 347 345 349 349 348 349 346 349 353 351 350 350 349 347 349 349 349 347 347 345 346 345 345 344 344 345 346 347 344 341 333 333 338 342 344 343 343 342
319 332 343 345 346 346 343 347 347 346 346 346 350 351 351 347 348 348 347 347 347 346 346 346 345 345 344 344 345 344 343 344 343 343 340 332 333 335 338 342 344 343 341
315 317 330 343 345 345 344 345 344 345 345 346 347 347 351 349 347 345 347 346 347 346 346 345 344 343 342 343 342 343 343 342 339 342 342 338 329 332 334 338 341 340 340
314 315 317 331 346 345 344 344 344 343 344 343 345 348 349 349 348 345 344 344 345 346 347 345 345 344 342 340 340 341 341 341 340 340 339 334 334 327 329 333 335 337 340
315 315 317 317 323 336 343 344 344 343 343 343 343 345 348 347 347 344 341 341 343 346 345 343 341 339 340 339 339 339 339 341 340 340 337 333 334 335 329 329 327 332 338
321 322 322 321 318 326 337 342 344 346 344 343 344 343 344 345 343 341 339 341 342 340 341 341 340 339 337 336 337 338 338 337 337 336 333 330 333 334 334 328 326 329 334
321 322 324 324 324 319 326 337 339 342 343 344 343 342 342 341 341 340 340 341 339 337 339 339 337 337 336 335 332 333 336 336 336 335 334 331 329 333 331 331 330 331 326
319 319 320 322 324 325 317 326 332 335 338 339 343 343 342 341 340 339 339 339 336 335 336 337 337 333 333 334 328 327 331 334 333 334 334 331 333 331 332 329 331 331 330
315 316 316 318 320 322 323 320 330 334 335 337 340 342 341 339 339 338 338 336 336 336 335 335 333 329 331 334 325 323 318 322 329 333 332 331 332 333 332 331 329 330 331
312 312 313 314 316 318 322 324 324 332 335 334 335 337 338 340 339 338 338 337 336 337 334 334 332 330 326 328 332 323 315 314 319 327 330 330 332 332 332 333 331 330 330
309 311 311 312 313 314 318 320 323 324 328 332 334 335 335 337 340 338 338 338 338 337 335 336 333 334 332 325 328 330 324 324 318 318 325 329 332 331 330 333 332 333 330
308 308 309 309 310 311 312 313 316 322 330 333 333 334 334 334 337 338 339 338 337 336 335 335 333 334 335 331 327 325 325 322 320 320 319 322 325 329 331 330 330 331 331
305 305 305 305 305 307 307 309 311 315 324 331 333 333 332 333 333 335 337 338 338 335 333 334 337 337 334 334 332 330 327 320 319 317 319 320 323 325 326 327 327 328 326

GFSSE_sfc_thetae_114.txt.gz
Theta_e
348 350 351 353 354 355 355 355 353 353 354 355 355 355 355 356 356 355 356 355 357 359 360 359 358 356 354 352 353 353 352 352 352 353 353 353 352 353 353 352 351 347 351
353 351 349 352 354 355 355 355 353 353 355 355 355 355 356 355 355 356 356 356 357 358 358 358 356 356 355 355 355 354 352 350 351 352 353 352 352 352 351 351 351 348 350
353 352 350 350 352 354 355 355 355 354 355 356 355 355 355 355 355 355 355 355 357 359 359 356 356 355 356 355 354 353 351 350 350 351 352 345 346 351 349 349 349 349 350
354 351 351 350 351 353 354 354 355 355 355 356 355 355 355 355 355 355 354 354 355 358 358 356 356 357 356 355 351 351 350 349 349 349 348 347 345 351 350 350 349 350 351
351 355 352 349 350 352 353 353 354 354 354 354 354 356 356 355 355 356 354 354 356 358 358 355 355 356 353 350 348 349 349 347 347 348 344 342 343 349 350 350 349 349 348
352 355 345 347 348 351 352 353 354 353 352 352 353 355 356 355 355 355 353 354 356 357 357 356 356 353 348 347 347 347 347 346 345 344 344 341 343 350 350 349 348 347 347
355 354 349 345 347 350 352 353 353 352 351 351 352 353 354 354 355 353 352 353 355 356 356 355 354 350 346 346 346 346 345 344 344 341 341 333 344 350 350 350 347 347 346
355 357 350 347 348 348 349 350 349 349 350 350 351 352 353 353 352 352 351 352 352 353 353 352 351 349 346 345 345 344 343 342 344 342 333 337 343 350 349 348 347 346 346
358 358 354 350 348 347 345 345 345 347 348 349 349 350 351 349 349 350 350 351 351 351 351 349 348 347 345 344 344 342 341 341 341 341 340 338 345 349 349 348 346 346 346
357 360 357 353 350 349 348 344 344 345 346 347 348 348 347 348 349 348 348 349 350 349 349 349 347 346 344 343 342 341 340 341 340 341 341 340 345 349 349 348 347 346 345
353 356 358 353 351 351 350 347 344 345 345 345 347 346 343 350 349 348 347 346 348 346 346 346 346 343 342 342 341 340 339 341 339 337 340 340 344 348 349 348 346 345 344
347 351 354 354 352 352 349 348 347 346 346 347 348 348 350 350 350 348 347 344 344 344 344 344 343 341 340 341 341 339 339 340 338 336 338 340 342 340 348 347 345 343 341
327 348 351 349 348 349 351 350 347 347 345 346 347 348 347 348 349 347 346 345 346 343 345 342 342 343 341 340 340 340 340 339 338 339 337 340 342 345 348 346 344 343 341
320 344 349 348 348 347 348 350 350 348 347 346 346 348 346 345 345 346 344 345 345 345 344 343 342 342 341 341 341 341 339 338 337 337 335 337 339 345 347 345 344 342 341
324 335 344 346 347 347 347 348 350 347 348 348 348 349 348 345 345 345 343 344 345 345 344 342 342 342 341 342 342 339 339 339 339 337 339 333 334 339 345 344 343 342 341
319 320 335 342 344 348 347 347 347 349 349 347 347 349 349 347 343 344 343 343 344 344 344 342 340 339 339 339 339 339 338 338 338 338 338 333 333 334 338 343 342 339 339
315 320 323 322 329 336 344 344 345 346 346 347 346 347 347 348 344 343 343 341 340 344 342 341 341 341 340 339 337 338 338 338 337 338 337 335 330 329 331 335 338 339 336
320 323 326 326 326 327 327 343 344 343 344 342 344 345 345 347 344 345 342 342 343 340 343 342 340 336 336 337 335 336 336 336 336 336 336 334 332 330 327 330 333 335 335
320 322 324 326 327 328 328 326 329 340 343 342 341 343 343 343 346 343 343 342 342 342 339 341 339 337 335 334 334 335 334 334 334 337 334 334 332 330 330 327 327 328 331
321 323 323 324 326 327 327 329 325 323 337 342 342 341 343 343 343 343 342 342 341 339 338 338 336 337 335 334 335 333 333 334 334 335 332 334 332 330 330 329 326 325 325
320 319 319 321 323 322 322 322 323 321 324 334 339 342 343 343 343 342 341 342 340 338 337 337 337 334 333 335 330 328 330 332 332 331 332 331 331 330 330 328 328 327 326
315 316 315 315 317 317 317 318 320 321 323 325 325 331 340 342 343 343 341 340 340 337 335 336 336 332 333 334 326 324 320 323 328 330 330 330 329 329 329 328 329 327 328
313 313 312 313 313 314 316 315 316 319 321 323 323 324 335 338 343 341 340 340 339 337 334 334 336 332 329 332 332 322 315 313 319 326 328 328 328 328 329 327 328 328 329
311 312 311 311 310 311 311 310 311 311 311 316 319 323 326 332 334 340 339 340 338 338 334 333 335 334 331 327 331 330 325 322 315 314 323 327 328 327 328 328 328 327 328
309 308 309 308 308 307 307 308 307 307 308 310 312 315 318 324 330 337 338 339 338 338 336 333 333 333 332 329 328 328 326 325 323 318 314 318 325 328 327 328 329 328 328
306 306 306 305 304 304 304 304 303 303 303 305 307 309 313 318 325 333 336 337 336 335 336 335 334 333 332 331 328 327 326 323 321 318 315 317 319 321 326 327 327 329 329

GFSSE_sfc_thetae_117.txt.gz
Theta_e
345 349 351 354 355 354 353 352 352 353 354 354 355 355 356 355 355 355 355 356 357 359 359 357 358 356 355 353 354 351 351 351 351 352 353 353 353 352 353 352 350 348 352
347 349 349 352 354 355 353 352 352 353 354 355 355 355 355 355 354 355 354 355 357 359 358 357 356 354 353 354 352 350 350 350 350 351 351 353 352 352 351 351 349 349 350
347 349 350 350 352 354 354 353 352 354 355 355 355 355 355 355 355 354 354 354 356 358 357 355 355 354 355 354 352 350 349 349 349 349 351 346 348 352 349 348 350 349 350
348 347 349 350 351 353 353 353 352 354 355 355 355 355 354 354 354 354 353 354 356 358 358 354 354 355 355 353 351 350 348 348 346 348 348 346 346 351 350 351 350 350 351
347 347 349 348 349 351 352 353 352 353 353 353 354 355 354 354 355 354 352 352 354 358 358 356 355 355 352 350 347 347 347 346 346 346 342 340 342 350 350 351 350 350 348
347 349 346 346 348 350 352 352 352 352 350 351 352 354 355 355 355 353 351 352 355 357 357 356 355 353 349 346 346 346 346 345 344 339 340 339 341 348 349 349 348 348 346
348 346 346 344 347 350 352 352 351 350 349 350 351 352 353 354 354 352 350 351 354 355 355 354 353 349 345 344 344 344 344 343 343 337 336 337 337 341 348 348 348 347 346
348 347 346 347 347 348 350 350 349 349 348 348 350 351 352 351 351 351 350 350 352 352 351 352 350 348 345 344 344 343 342 342 343 336 335 334 333 340 348 347 347 346 345
350 346 345 346 347 346 345 346 345 347 347 347 348 349 350 349 348 349 349 350 351 350 349 350 348 348 345 343 343 341 340 341 339 335 339 335 336 341 347 348 347 346 345
348 348 344 344 343 342 343 343 344 345 345 346 347 346 346 347 348 348 347 348 349 349 348 348 346 345 344 342 341 340 339 339 338 338 338 336 338 344 349 348 347 346 345
345 349 347 344 343 342 341 343 344 345 345 345 346 345 343 347 347 347 346 345 347 345 345 346 345 343 341 341 340 340 339 338 338 336 336 339 344 347 348 347 346 345 345
340 344 347 345 344 344 346 342 341 343 343 344 346 346 346 345 345 347 344 343 344 343 343 343 343 341 340 339 338 339 337 338 337 336 337 339 344 347 348 347 345 344 343
336 344 346 347 347 345 344 342 342 340 339 341 343 344 345 346 345 344 344 343 342 342 342 342 341 340 339 338 337 336 337 337 335 336 337 338 341 345 344 347 346 345 343
312 344 345 345 345 346 348 343 342 342 340 340 341 343 343 340 341 343 342 341 341 342 340 340 340 339 338 338 337 337 337 336 333 336 334 334 337 343 348 346 347 346 343
308 341 343 343 342 343 343 345 346 342 342 341 341 342 343 339 339 339 340 341 342 341 340 338 339 339 338 337 338 337 337 336 335 336 332 332 335 340 346 347 345 344 342
310 320 319 336 343 342 339 341 340 342 343 343 343 343 343 342 339 340 339 339 341 341 341 339 338 338 338 337 337 338 336 336 336 335 334 330 330 334 340 346 346 345 343
316 319 319 320 322 323 334 338 340 340 342 342 341 343 344 344 340 338 338 337 340 342 340 340 336 334 334 336 335 335 335 335 335 335 333 330 329 329 331 338 342 343 343
314 317 319 322 322 322 322 324 335 339 339 339 342 343 342 345 342 339 338 338 336 341 340 339 337 334 333 333 332 332 333 333 333 334 333 331 329 329 328 330 334 338 338
314 315 316 318 318 319 320 322 323 324 325 336 339 342 342 340 343 341 338 337 337 336 339 338 336 333 330 331 331 331 331 331 331 334 332 331 329 327 326 327 328 330 333
313 313 314 316 315 316 317 318 320 320 319 325 335 336 339 341 339 341 340 339 336 335 335 336 336 332 331 331 333 331 329 330 330 329 330 331 329 328 327 326 324 324 326
310 310 310 310 311 312 311 311 312 313 316 319 322 325 328 339 339 338 338 337 337 336 335 333 331 332 328 331 327 324 326 327 327 328 329 329 329 328 327 327 325 324 324
307 307 308 308 308 309 308 309 310 311 314 316 320 321 323 325 333 337 338 337 338 335 332 333 330 325 329 332 323 320 319 319 324 327 327 328 328 328 327 327 325 324 325
304 304 305 305 305 306 306 306 307 308 309 310 312 314 316 319 323 331 337 337 337 336 333 332 331 329 328 327 328 321 315 311 315 321 325 327 326 325 326 326 325 325 325
301 303 303 304 303 304 303 302 301 301 302 304 306 307 309 312 315 320 325 334 336 336 334 332 334 333 331 327 324 325 319 317 311 310 318 324 325 326 324 325 325 326 326
300 299 299 300 300 299 299 299 298 298 300 302 303 303 305 308 310 313 318 323 332 333 333 332 330 332 331 328 327 327 324 319 317 314 311 317 321 323 326 325 325 325 326
298 297 297 297 296 296 296 296 295 294 295 296 297 298 300 304 307 310 314 319 326 332 333 331 330 330 333 332 328 326 326 323 320 315 312 313 319 319 325 325 325 326 326

GFSSE_sfc_thetae_120.txt.gz
Theta_e
345 349 351 353 353 352 352 351 351 352 353 353 354 355 355 356 355 356 356 357 358 359 359 358 357 356 354 351 351 351 350 350 351 352 354 353 353 352 352 352 350 348 350
346 350 350 352 353 353 353 352 352 352 353 354 354 354 354 355 355 355 356 357 358 359 357 356 355 353 353 352 350 349 349 349 349 350 353 354 353 351 351 350 349 349 350
346 349 351 350 352 352 352 352 353 354 354 354 354 353 353 354 354 354 354 355 357 358 357 356 355 354 354 352 350 348 349 349 348 349 350 346 346 352 350 350 350 350 351
347 348 349 350 351 352 351 351 352 354 354 354 354 353 353 353 353 353 353 353 355 357 356 355 354 354 354 351 349 348 348 347 346 348 344 344 344 349 349 349 350 350 350
346 348 348 349 349 351 352 350 351 353 352 353 353 354 353 354 354 354 352 352 356 358 356 354 356 355 351 348 347 347 346 346 345 344 340 339 341 342 347 347 350 349 347
344 347 346 346 348 351 351 351 351 351 350 350 352 353 353 354 354 353 351 352 355 358 358 356 355 352 348 346 345 345 345 344 343 338 338 342 339 345 345 346 348 348 347
343 346 345 343 347 350 351 352 350 349 349 349 350 351 352 353 353 351 350 351 353 356 355 354 352 349 345 344 344 344 344 343 338 336 335 336 339 341 345 348 347 346 347
344 344 345 346 347 347 349 349 347 347 347 348 349 350 351 351 350 349 349 349 351 351 350 350 349 346 344 344 343 342 341 341 339 336 334 332 337 345 347 349 346 345 346
345 343 344 345 347 345 344 344 344 345 346 346 347 347 348 347 347 348 348 349 350 349 348 348 347 346 344 343 342 340 339 339 337 334 335 334 340 345 345 349 347 346 346
343 343 342 342 344 344 344 343 343 344 343 344 345 345 345 345 346 346 346 347 348 348 348 348 346 345 343 341 340 339 338 339 336 334 334 334 339 343 345 349 348 346 345
345 341 341 341 341 342 342 345 344 345 344 343 345 344 342 346 346 346 344 344 346 344 345 345 344 342 341 340 339 338 338 337 337 336 335 337 339 342 345 349 346 346 345
340 343 341 340 340 340 343 342 342 345 344 345 346 344 347 343 344 346 344 341 343 342 342 342 342 340 339 338 337 338 336 337 336 335 335 337 341 345 348 348 345 345 344
337 341 345 341 340 339 340 339 338 340 340 342 344 345 344 344 343 343 343 343 342 342 342 341 341 340 338 336 335 335 335 336 334 334 336 336 342 348 349 348 346 346 344
304 322 344 343 343 341 341 338 339 338 338 339 342 343 343 343 341 341 342 341 340 341 339 340 340 339 338 337 336 335 335 335 333 334 333 334 337 345 345 348 348 346 345
314 327 337 340 339 342 342 340 339 338 339 338 338 342 343 342 341 342 341 340 340 340 340 338 338 338 338 337 336 335 335 335 333 334 333 332 333 336 344 346 347 346 345
313 317 325 325 328 338 338 339 340 340 338 339 339 340 343 341 341 340 340 340 340 340 340 339 338 337 337 337 336 335 336 335 334 333 332 332 330 334 340 346 346 346 345
315 318 320 321 321 321 328 330 333 337 340 339 341 341 341 342 339 340 339 338 340 340 339 338 337 337 336 336 334 334 334 334 334 333 332 331 329 328 332 338 340 344 344
313 315 317 319 317 317 318 321 323 326 331 331 335 339 342 342 341 338 338 338 338 340 339 338 336 334 334 334 333 331 332 332 332 333 332 330 328 329 327 330 334 338 341
311 311 311 311 311 312 313 315 317 318 319 322 326 334 339 334 338 338 337 337 335 338 338 338 337 335 332 331 332 331 330 331 331 332 330 329 328 326 326 327 329 331 335
307 308 308 308 309 309 309 310 311 312 313 317 320 326 329 334 333 338 339 339 334 334 336 337 336 335 332 331 331 330 328 329 330 330 330 330 328 326 325 325 325 327 328
306 305 306 305 306 305 305 305 306 305 308 311 315 318 319 323 327 328 336 337 336 334 334 334 335 329 328 329 325 322 323 326 326 327 329 328 327 326 324 324 323 323 324
303 303 303 303 302 302 303 303 303 303 307 308 310 308 313 311 314 319 321 327 335 335 334 331 332 328 331 329 325 318 317 320 323 325 325 328 327 327 326 325 324 323 323
299 300 300 300 299 299 300 300 300 301 302 303 302 304 305 307 310 313 316 321 325 333 333 333 332 330 327 327 327 321 312 313 315 320 324 326 326 325 327 326 325 324 324
297 297 298 298 297 297 297 296 295 295 295 297 299 301 301 303 304 308 311 313 317 321 329 331 332 330 330 325 327 328 321 317 312 311 319 325 325 324 323 325 325 325 324
295 294 295 295 294 294 294 294 293 292 293 295 296 296 297 300 302 304 307 310 312 315 321 329 328 329 328 325 324 326 320 319 315 312 309 318 323 325 324 324 325 324 324
293 293 292 292 291 292 291 291 291 290 291 291 292 293 295 297 298 301 303 305 309 312 317 325 329 328 325 324 325 326 325 319 316 313 310 312 316 322 324 324 323 324 325

GFSSE_sfc_thetae_123.txt.gz
Theta_e
344 348 351 352 353 352 351 351 350 351 353 355 355 356 357 357 356 356 356 357 357 359 359 357 355 354 352 349 350 351 350 350 350 353 352 353 352 352 351 351 351 347 350
346 350 349 352 352 353 352 351 351 351 353 354 355 355 355 355 355 356 356 357 357 359 358 356 355 354 351 349 349 348 349 349 349 349 351 350 352 351 350 350 349 348 350
345 349 350 350 352 352 352 352 352 353 354 354 354 354 354 355 355 355 355 356 357 358 356 355 354 354 352 351 347 347 348 347 348 348 350 344 344 350 350 349 349 350 350
346 348 350 349 350 351 351 351 352 354 354 353 353 353 354 354 354 355 354 354 356 357 356 354 354 353 352 350 347 346 347 347 346 347 343 343 345 349 347 347 348 349 349
345 348 348 349 349 350 350 351 351 352 352 352 352 353 353 354 354 354 353 353 356 357 355 354 352 354 350 347 346 346 346 345 345 343 340 339 339 345 345 349 350 349 349
344 346 345 346 348 350 350 350 350 350 349 350 351 352 353 353 353 352 351 353 356 356 355 355 356 351 347 345 345 345 344 344 341 337 337 340 337 342 346 349 348 348 347
341 344 345 344 347 349 351 350 349 349 348 349 350 350 351 353 352 351 350 352 354 355 355 354 352 349 346 345 344 344 343 342 338 335 335 337 336 344 346 349 346 347 347
341 343 345 346 347 347 349 348 347 346 347 347 348 349 350 350 350 349 349 350 352 352 351 350 348 346 345 344 343 342 340 341 338 334 333 333 338 344 345 348 346 346 347
342 341 342 344 347 345 344 344 344 344 345 346 346 347 348 347 346 348 348 348 350 349 348 348 347 344 343 342 342 339 338 340 335 334 333 331 336 344 347 349 347 346 346
340 340 340 340 342 342 344 342 343 343 343 344 345 345 344 344 345 346 345 346 348 348 347 347 346 344 343 341 340 338 337 338 335 334 332 334 338 345 347 349 348 347 346
340 338 338 338 339 340 341 343 343 344 343 342 344 343 341 344 344 344 343 343 345 344 344 345 344 342 340 339 338 338 337 335 334 335 333 337 338 345 347 348 347 346 346
337 338 337 337 337 338 343 341 341 343 344 343 343 342 344 342 342 344 342 341 342 341 342 342 342 340 339 337 336 338 335 335 334 334 334 336 340 343 345 347 347 346 345
335 339 339 337 336 337 339 338 339 343 343 344 345 345 345 343 343 343 341 341 342 341 342 341 340 341 338 335 334 334 334 334 333 333 334 335 339 344 347 348 347 346 345
304 310 334 338 337 336 337 337 337 338 339 341 342 343 342 341 341 342 342 340 339 341 342 341 341 341 339 336 335 333 334 333 333 332 332 333 337 344 347 348 348 347 345
318 328 337 341 337 337 336 337 336 337 339 339 339 342 342 341 340 341 341 340 338 338 339 340 341 339 339 337 335 334 333 334 333 333 331 332 334 340 344 345 346 346 346
316 319 323 325 334 339 337 337 336 338 338 337 337 339 341 341 339 339 340 338 338 337 338 338 339 339 338 337 335 334 334 334 333 332 331 330 329 332 336 340 346 347 345
315 317 317 317 317 319 322 324 326 333 337 337 337 339 339 340 339 337 338 338 338 339 337 337 337 337 336 336 334 333 334 334 333 332 331 331 329 328 330 336 341 344 345
312 311 312 314 312 312 313 315 318 319 321 326 330 333 336 339 340 336 335 336 338 335 336 336 337 336 336 334 333 332 333 333 332 332 332 331 329 328 326 330 334 338 342
307 306 307 307 307 307 308 309 311 312 313 317 319 325 327 329 332 330 329 335 334 334 334 335 335 335 334 333 332 333 331 331 332 333 331 330 329 327 326 327 328 330 335
304 304 304 304 304 304 304 305 306 305 307 311 314 314 319 320 323 328 326 326 328 332 331 332 333 334 333 332 331 330 329 331 331 331 331 331 329 327 326 325 326 327 328
302 301 301 300 300 301 301 300 302 300 302 304 309 308 313 310 312 315 321 323 329 328 328 332 333 331 330 327 325 324 324 325 328 330 331 329 328 326 325 325 324 325 328
298 298 298 298 297 298 298 298 298 298 302 302 302 303 306 305 309 310 312 317 321 323 329 330 332 330 328 328 324 320 319 322 324 326 328 327 327 327 325 324 323 322 324
293 294 295 294 294 295 295 296 296 297 297 298 296 297 300 301 303 305 308 310 312 317 319 323 329 327 326 327 329 322 314 314 317 321 325 327 326 326 326 325 323 322 322
293 293 292 293 293 293 293 292 291 291 290 293 294 295 296 298 300 303 305 306 308 310 313 317 325 328 325 321 327 327 325 319 314 312 321 325 325 326 327 327 325 324 323
292 291 290 291 290 291 290 290 289 288 290 291 292 292 294 296 297 299 301 302 303 306 309 313 316 322 329 325 324 322 322 321 319 314 312 318 324 326 327 327 327 326 324
291 290 290 289 289 288 288 287 287 286 286 287 289 290 292 294 295 296 298 298 299 301 303 307 312 315 325 328 325 323 320 318 317 316 314 314 318 322 327 326 325 325 325

GFSSE_sfc_thetae_126.txt.gz
Theta_e
341 344 350 352 352 352 351 350 351 352 354 356 356 356 356 355 355 355 356 356 357 358 358 357 356 353 350 350 351 351 352 350 350 353 353 353 351 351 351 351 350 347 351
342 347 349 352 352 352 351 350 351 352 354 356 356 356 356 355 355 355 355 356 357 358 358 356 355 354 350 349 350 349 350 349 349 350 352 352 351 351 350 350 348 348 350
345 348 348 350 352 352 352 351 351 354 354 355 356 355 356 356 355 355 355 355 356 358 357 355 355 353 350 349 347 348 348 348 347 349 352 346 347 351 350 350 349 350 349
346 347 348 349 351 351 351 351 351 354 354 354 354 355 355 355 355 355 354 354 356 357 356 355 354 353 352 348 345 346 347 347 346 348 345 345 347 352 350 350 349 350 350
345 347 347 348 349 350 350 350 351 352 352 352 352 354 355 355 355 355 353 354 356 357 356 354 353 353 349 346 345 345 346 345 345 344 342 342 343 350 349 349 349 349 349
343 346 345 346 348 349 350 350 350 350 349 349 350 353 354 355 355 354 352 354 356 356 356 355 354 351 347 345 345 344 344 343 342 339 339 340 340 346 347 349 348 348 347
341 343 344 344 346 349 350 350 349 349 348 349 349 350 351 353 353 351 351 353 354 354 354 353 352 349 346 345 344 343 343 342 338 337 336 338 337 344 346 349 348 348 347
340 342 344 346 346 347 348 347 346 347 347 347 348 349 350 350 350 349 350 351 352 352 351 351 348 347 346 344 343 342 341 341 339 336 335 336 338 343 347 347 347 346 346
338 340 341 343 346 345 343 344 343 344 345 346 346 346 347 347 347 348 349 349 351 350 349 348 347 346 345 343 342 340 338 340 336 335 334 334 339 344 346 346 345 346 346
337 337 337 339 341 342 342 342 342 342 343 344 345 344 343 344 345 346 346 347 349 349 347 347 345 343 343 341 339 338 337 339 337 335 334 332 337 341 345 349 347 346 346
338 337 337 337 338 339 340 342 343 344 343 342 343 342 340 342 342 343 343 343 345 344 344 345 344 342 340 339 338 337 337 337 336 335 334 335 340 343 345 347 347 345 346
335 336 336 336 336 337 342 340 340 344 345 342 341 341 342 343 339 343 341 340 341 341 342 342 342 340 339 338 337 338 336 335 335 335 335 336 340 342 347 347 346 346 345
324 337 338 335 335 335 337 338 342 343 343 344 343 341 343 343 343 342 340 340 339 340 341 341 340 340 338 336 335 334 334 334 334 334 335 335 339 343 345 347 346 346 345
311 330 331 335 334 334 335 336 338 341 340 341 341 343 343 341 341 341 341 341 339 339 342 343 342 342 340 336 334 334 334 334 333 333 333 333 336 341 346 348 348 346 346
305 320 329 332 336 333 333 333 332 335 337 340 339 341 340 339 338 340 340 341 340 339 342 341 341 340 339 338 335 334 334 334 333 333 332 331 332 338 345 347 348 347 347
318 320 320 325 338 340 338 336 335 333 333 335 335 338 340 341 339 339 339 339 339 336 339 340 339 338 337 337 336 335 334 334 334 333 333 332 329 334 340 345 345 345 347
313 313 314 314 317 321 322 323 325 331 332 332 333 332 336 339 338 338 336 338 336 336 336 337 339 339 337 337 335 336 335 334 334 333 333 332 331 328 330 335 338 342 346
305 305 306 308 307 308 310 313 314 316 319 322 325 328 328 330 333 334 334 333 334 337 336 337 337 335 336 334 334 334 334 334 333 333 332 332 331 331 328 329 333 337 341
302 301 301 301 301 303 305 309 308 310 310 313 315 315 317 318 317 324 331 332 334 333 335 336 336 335 334 334 334 333 333 333 333 333 332 331 330 330 329 327 328 330 335
298 298 298 297 297 299 301 302 304 303 305 309 306 309 309 310 311 313 321 326 325 325 327 331 331 333 334 333 332 331 332 331 331 332 332 332 331 330 329 328 328 328 327
295 295 294 294 294 295 295 295 299 297 301 303 302 305 304 304 307 307 309 314 319 323 323 324 325 325 328 331 328 326 325 328 328 330 330 330 330 329 328 328 327 328 328
291 292 293 292 292 292 293 293 294 296 298 300 297 299 300 300 303 303 305 308 311 314 317 325 323 322 323 327 325 321 319 320 325 327 327 327 328 328 327 327 326 326 327
290 290 291 291 290 291 291 291 292 294 294 295 293 294 296 298 299 302 303 304 306 309 311 315 318 323 321 326 327 323 314 314 317 322 325 326 328 327 328 327 326 325 325
289 290 290 291 290 290 289 288 287 287 287 290 291 292 293 296 298 299 300 301 302 305 306 310 315 318 321 319 321 327 327 320 314 312 318 322 326 326 328 328 326 325 325
291 290 289 289 289 288 288 287 286 285 286 288 289 289 291 294 295 297 298 298 298 300 301 303 305 309 315 317 323 322 324 322 321 314 310 313 319 323 328 329 329 327 325
290 289 289 288 288 288 288 288 287 286 286 287 288 289 291 292 293 295 296 296 296 297 298 300 302 303 306 312 317 322 321 320 318 317 313 312 313 317 322 328 328 329 328

GFSSE_sfc_thetae_129.txt.gz
Theta_e
343 350 350 353 352 351 351 351 351 354 355 356 355 355 355 355 355 355 356 356 357 358 358 356 355 353 353 352 353 353 352 350 352 354 353 353 352 353 351 352 351 347 351
347 351 349 352 352 352 351 351 352 354 356 356 355 355 355 355 355 355 356 356 356 358 359 356 354 352 350 350 350 351 350 349 350 352 353 352 352 351 351 351 349 348 351
349 352 353 350 352 352 352 351 352 354 356 357 356 355 355 355 355 355 355 355 356 358 358 356 355 353 349 349 349 349 349 349 349 350 353 350 350 351 351 349 349 350 350
350 352 354 350 351 351 351 351 352 354 355 356 356 356 355 355 355 355 354 354 356 358 357 355 355 353 351 347 346 348 348 348 348 349 350 349 348 351 350 349 349 350 349
351 352 352 349 349 351 350 351 351 352 352 354 355 356 356 356 356 355 354 354 356 357 355 356 355 355 349 346 344 346 347 346 346 348 349 350 350 349 349 347 349 350 348
350 352 349 346 348 350 350 350 351 351 350 350 352 355 356 356 356 355 352 354 356 357 357 356 355 352 347 345 345 345 345 345 344 347 348 348 348 348 347 349 347 347 346
348 351 352 344 347 349 350 350 350 349 348 349 350 352 354 355 354 353 351 353 354 355 355 354 352 348 346 345 345 344 343 343 347 347 346 347 348 345 347 347 347 347 346
347 350 351 348 347 347 348 348 347 347 347 347 348 349 352 352 351 351 351 351 352 352 351 351 349 347 346 345 344 342 341 341 343 345 346 346 345 342 346 348 347 347 346
348 349 350 352 351 345 343 343 343 345 346 346 346 346 348 348 348 349 350 350 350 350 349 349 347 346 346 344 342 340 339 340 347 346 343 345 342 343 346 348 347 346 345
348 349 349 350 352 353 353 342 342 343 343 344 345 344 344 345 346 346 346 348 349 349 349 348 346 345 344 342 340 339 338 339 346 346 345 344 338 344 346 348 348 346 345
347 348 349 349 350 351 352 350 345 344 343 342 345 343 341 350 351 350 346 345 346 345 345 345 344 342 340 340 339 338 337 345 346 345 345 338 338 342 344 347 348 346 346
340 347 349 349 348 348 347 350 351 351 351 351 351 351 351 351 350 348 345 341 342 342 340 341 341 339 340 346 345 339 344 345 345 344 344 337 339 342 344 346 347 346 345
321 342 347 348 348 347 347 348 348 346 346 348 348 350 350 348 347 348 348 347 348 344 350 347 347 349 348 347 346 345 344 345 343 345 342 336 339 343 344 348 346 347 345
311 324 341 345 346 347 347 347 345 344 345 345 347 348 348 349 346 344 344 345 346 347 347 347 348 348 347 348 347 346 345 343 343 344 342 334 336 341 345 346 346 346 345
318 327 329 338 340 343 345 345 345 342 342 343 344 344 346 346 346 345 345 344 344 345 346 346 344 344 344 344 345 345 344 343 343 343 343 333 333 337 342 345 348 347 347
314 313 317 317 322 332 338 340 340 341 342 343 343 342 343 344 345 345 343 343 342 343 342 346 346 343 343 344 343 342 343 343 343 343 342 342 330 332 337 343 347 348 348
308 308 307 310 311 314 319 323 326 330 332 335 334 334 339 343 345 345 343 342 344 343 340 341 342 344 343 341 340 342 341 343 342 343 342 342 341 328 330 337 342 342 344
303 303 303 303 304 306 310 316 320 322 324 322 324 327 328 328 329 337 338 337 339 339 339 338 339 336 338 339 339 339 340 339 341 343 343 341 340 342 333 329 333 336 338
299 300 300 301 301 303 306 311 313 315 316 314 316 317 315 316 318 323 331 337 337 335 336 333 328 334 336 336 336 337 338 337 339 341 342 342 342 341 342 332 328 329 332
298 298 298 299 298 300 303 306 309 307 310 308 308 310 308 309 311 313 318 320 326 331 333 331 327 330 337 339 337 337 339 339 340 339 339 339 340 341 342 340 340 336 326
296 297 296 296 297 297 297 299 302 301 306 307 304 305 305 305 307 309 311 314 318 321 325 329 332 330 328 333 331 333 333 336 335 335 337 337 336 338 339 339 338 338 338
295 295 295 295 295 295 295 296 298 299 303 305 301 301 302 302 304 306 307 309 311 313 316 321 325 325 328 332 328 328 321 327 329 332 334 334 334 336 336 337 337 335 337
294 294 294 294 294 294 294 295 296 298 298 299 297 298 298 300 302 303 304 306 307 309 310 314 317 319 320 328 330 326 319 320 322 327 328 327 328 332 333 334 334 334 335
292 292 292 293 293 293 294 293 292 291 291 293 294 296 297 299 300 301 302 303 304 305 306 307 310 313 317 319 327 331 328 325 317 317 322 323 325 325 328 331 333 333 334
292 291 291 291 291 291 293 293 292 292 292 293 293 294 296 297 298 299 300 299 300 302 303 304 306 308 311 313 317 327 323 322 326 321 317 318 324 326 327 326 329 333 333
293 292 291 290 290 290 290 291 291 290 290 290 291 291 292 294 294 296 296 296 297 297 298 300 301 302 304 306 309 313 322 322 320 320 320 320 320 321 325 325 326 331 333

GFSSE_sfc_thetae_132.txt.gz
Theta_e
345 355 352 352 352 352 352 352 354 355 355 356 355 356 356 356 355 355 356 356 358 359 358 355 354 354 353 353 354 352 351 352 354 355 354 352 352 352 352 352 351 348 351
350 356 350 351 352 352 353 352 354 356 357 356 355 355 355 356 354 355 356 356 357 358 357 355 353 353 352 351 352 352 351 351 352 353 354 353 352 351 351 350 350 348 352
352 355 356 350 351 352 352 353 354 357 357 357 356 355 356 356 355 355 355 355 357 358 358 355 354 351 350 350 350 350 350 350 351 352 353 350 350 351 350 348 350 351 351
353 354 356 350 351 351 351 352 353 357 358 357 356 356 355 355 355 355 354 354 356 358 359 356 355 353 350 348 348 349 349 349 349 351 350 347 347 350 350 348 349 349 350
352 355 356 350 350 351 351 351 352 354 355 356 356 356 356 356 356 355 353 354 356 359 358 356 356 355 349 346 346 347 348 348 348 348 349 349 348 349 350 348 347 348 348
354 354 351 348 350 350 350 351 351 351 351 353 354 356 356 356 356 355 353 354 356 358 357 357 356 354 348 345 345 346 346 346 345 348 348 348 349 349 348 350 348 348 348
352 355 356 347 349 350 351 351 350 350 349 350 352 354 355 356 356 354 352 353 355 356 356 355 354 351 347 345 345 345 344 344 347 347 347 348 349 349 348 349 348 346 347
353 356 356 349 348 349 349 349 348 348 348 348 350 352 354 354 353 352 351 352 353 353 353 352 350 349 346 345 345 343 342 342 345 346 347 347 347 348 348 349 348 346 346
355 357 359 357 354 346 346 346 345 346 347 347 347 348 350 350 350 351 351 351 352 351 351 350 349 347 346 345 344 341 340 341 347 346 346 347 345 345 347 349 348 347 346
350 356 357 359 359 359 358 344 344 344 345 345 346 346 346 347 348 348 348 349 350 348 347 349 347 346 346 344 342 340 339 340 346 346 346 346 344 345 346 350 349 347 346
339 348 355 358 358 360 359 354 346 345 345 344 346 345 344 351 351 352 347 346 346 344 345 346 346 344 343 342 341 340 339 345 345 345 345 339 341 345 346 349 348 347 346
321 332 349 355 357 358 354 356 357 355 355 354 354 354 352 352 351 349 346 343 344 341 340 342 343 342 342 346 345 341 345 345 345 345 345 339 340 343 345 347 347 347 346
319 321 334 350 356 356 354 354 354 356 354 353 355 355 354 351 352 351 350 350 351 344 349 346 347 349 347 346 344 345 344 345 344 344 343 337 340 343 345 346 347 347 346
322 330 333 341 347 351 353 351 353 349 349 349 350 351 352 350 349 350 348 351 349 349 348 350 349 348 348 348 348 347 347 345 343 343 343 336 337 342 344 346 348 347 346
319 322 325 328 333 342 343 345 349 348 347 347 348 347 349 348 349 348 348 346 347 350 350 349 348 348 348 349 348 347 346 346 346 344 344 335 334 338 342 344 346 347 347
315 315 317 319 323 328 326 332 340 343 344 344 344 343 345 346 346 345 347 348 348 348 349 349 346 346 346 347 345 345 346 346 346 346 344 344 332 334 338 342 344 348 349
312 312 312 314 317 320 323 326 325 329 329 328 328 326 326 326 325 344 346 345 346 349 349 347 347 345 344 344 343 345 345 347 346 346 346 345 342 329 331 336 340 344 347
308 308 309 309 312 315 318 320 320 323 322 321 323 322 321 321 322 325 334 341 343 345 343 341 343 342 340 342 341 342 343 345 345 346 346 345 345 343 331 330 334 340 341
305 305 306 306 306 310 314 317 317 319 320 318 320 318 317 319 320 322 328 326 325 335 338 340 340 342 337 337 338 340 342 343 343 343 343 344 345 344 343 332 329 331 334
305 305 305 305 306 308 309 313 315 314 316 316 313 313 314 314 315 317 320 322 325 326 331 335 337 339 336 333 334 336 336 340 343 341 342 341 343 344 345 343 340 338 327
304 304 303 303 304 304 305 305 307 307 311 313 310 310 310 311 313 314 315 317 319 321 322 324 326 331 335 334 330 330 328 327 339 340 341 341 341 343 345 344 344 343 337
303 303 303 303 303 303 303 304 304 305 308 308 307 308 308 308 310 310 311 313 315 315 317 321 323 320 326 331 327 327 321 325 335 337 340 339 341 341 341 343 342 343 343
300 300 300 300 301 301 302 303 304 305 305 305 304 304 305 306 307 308 309 310 311 312 312 315 318 319 317 321 327 325 320 319 326 336 335 337 339 338 339 340 340 341 342
301 301 301 300 300 300 301 300 300 300 299 301 302 302 303 305 304 305 306 306 306 308 309 311 313 314 313 312 318 323 328 330 322 321 328 332 335 332 336 335 335 336 336
301 300 300 300 299 298 299 299 299 298 299 300 300 300 302 302 303 302 302 301 302 303 304 304 306 309 312 312 314 315 317 327 331 324 318 324 327 328 331 330 331 333 335
299 299 299 298 298 298 298 298 297 296 296 296 296 296 297 299 300 301 299 299 298 298 299 300 301 303 303 304 309 312 312 312 320 323 321 322 322 326 329 330 332 330 332